<?xml version="1.0" encoding="UTF-8" standalone="no" ?>
<gpx xmlns="http://www.topografix.com/GPX/1/1" xmlns:xsi="http://www.w3.org/2001/XMLSchema-instance" xsi:schemaLocation="http://www.topografix.com/GPX/1/1 http://www.topografix.com/GPX/1/1/gpx.xsd" version="1.1" creator="VisuGPX - https://www.visugpx.com">
  <metadata>
    <name>Pont du Navoy Crotenay par la Côte de L'Heute</name>
  </metadata>
  <trk>
    <name><![CDATA[Pont du Navoy Crotenay par la Côte de L'Heute_1]]></name>
    <extensions>
      <line xmlns="http://www.topografix.com/GPX/gpx_style/0/2">
        <color>0000FF</color>
        <width>4</width>
      </line>
    </extensions>
    <trkseg>
      <trkpt lat="46.74825" lon="5.78542">
        <ele>584.2</ele>
        <time>2021-04-15T11:23:41Z</time>
      </trkpt>
      <trkpt lat="46.74821" lon="5.78544">
        <ele>586.6</ele>
        <time>2021-04-15T11:24:17Z</time>
      </trkpt>
      <trkpt lat="46.74817" lon="5.78542">
        <ele>589.3</ele>
        <time>2021-04-15T11:24:23Z</time>
      </trkpt>
      <trkpt lat="46.74813" lon="5.78537">
        <ele>591.5</ele>
        <time>2021-04-15T11:24:30Z</time>
      </trkpt>
      <trkpt lat="46.74809" lon="5.78533">
        <ele>593.1</ele>
        <time>2021-04-15T11:24:40Z</time>
      </trkpt>
      <trkpt lat="46.74806" lon="5.78528">
        <ele>593.3</ele>
        <time>2021-04-15T11:24:47Z</time>
      </trkpt>
      <trkpt lat="46.74802" lon="5.78525">
        <ele>593.3</ele>
        <time>2021-04-15T11:24:52Z</time>
      </trkpt>
      <trkpt lat="46.74797" lon="5.78523">
        <ele>593.2</ele>
        <time>2021-04-15T11:24:57Z</time>
      </trkpt>
      <trkpt lat="46.74792" lon="5.7852">
        <ele>593.1</ele>
        <time>2021-04-15T11:25:02Z</time>
      </trkpt>
      <trkpt lat="46.74788" lon="5.78516">
        <ele>593</ele>
        <time>2021-04-15T11:25:07Z</time>
      </trkpt>
      <trkpt lat="46.74783" lon="5.78514">
        <ele>592.9</ele>
        <time>2021-04-15T11:25:12Z</time>
      </trkpt>
      <trkpt lat="46.74778" lon="5.78513">
        <ele>592.7</ele>
        <time>2021-04-15T11:25:27Z</time>
      </trkpt>
      <trkpt lat="46.74773" lon="5.7851">
        <ele>592.6</ele>
        <time>2021-04-15T11:25:34Z</time>
      </trkpt>
      <trkpt lat="46.74768" lon="5.78509">
        <ele>592.9</ele>
        <time>2021-04-15T11:25:45Z</time>
      </trkpt>
      <trkpt lat="46.74764" lon="5.7851">
        <ele>593.1</ele>
        <time>2021-04-15T11:25:50Z</time>
      </trkpt>
      <trkpt lat="46.74759" lon="5.78508">
        <ele>593.5</ele>
        <time>2021-04-15T11:25:55Z</time>
      </trkpt>
      <trkpt lat="46.74754" lon="5.78507">
        <ele>593.8</ele>
        <time>2021-04-15T11:26:00Z</time>
      </trkpt>
      <trkpt lat="46.74748" lon="5.78505">
        <ele>594.4</ele>
        <time>2021-04-15T11:26:05Z</time>
      </trkpt>
      <trkpt lat="46.74744" lon="5.78503">
        <ele>594.8</ele>
        <time>2021-04-15T11:26:10Z</time>
      </trkpt>
      <trkpt lat="46.74739" lon="5.785">
        <ele>595.1</ele>
        <time>2021-04-15T11:26:15Z</time>
      </trkpt>
      <trkpt lat="46.74735" lon="5.78495">
        <ele>595.3</ele>
        <time>2021-04-15T11:26:20Z</time>
      </trkpt>
      <trkpt lat="46.74732" lon="5.78489">
        <ele>595.4</ele>
        <time>2021-04-15T11:26:26Z</time>
      </trkpt>
      <trkpt lat="46.74728" lon="5.78484">
        <ele>595.3</ele>
        <time>2021-04-15T11:26:31Z</time>
      </trkpt>
      <trkpt lat="46.74723" lon="5.7848">
        <ele>595.1</ele>
        <time>2021-04-15T11:26:37Z</time>
      </trkpt>
      <trkpt lat="46.74719" lon="5.78477">
        <ele>594.9</ele>
        <time>2021-04-15T11:26:42Z</time>
      </trkpt>
      <trkpt lat="46.74714" lon="5.78473">
        <ele>594.7</ele>
        <time>2021-04-15T11:26:47Z</time>
      </trkpt>
      <trkpt lat="46.74704" lon="5.78476">
        <ele>596.3</ele>
        <time>2021-04-15T11:26:51Z</time>
      </trkpt>
      <trkpt lat="46.74699" lon="5.78476">
        <ele>596.9</ele>
        <time>2021-04-15T11:26:55Z</time>
      </trkpt>
      <trkpt lat="46.74695" lon="5.78473">
        <ele>596.9</ele>
        <time>2021-04-15T11:27:00Z</time>
      </trkpt>
      <trkpt lat="46.7469" lon="5.78469">
        <ele>596.4</ele>
        <time>2021-04-15T11:27:05Z</time>
      </trkpt>
      <trkpt lat="46.74687" lon="5.78464">
        <ele>595.6</ele>
        <time>2021-04-15T11:27:10Z</time>
      </trkpt>
      <trkpt lat="46.74682" lon="5.78461">
        <ele>594.8</ele>
        <time>2021-04-15T11:27:16Z</time>
      </trkpt>
      <trkpt lat="46.74678" lon="5.78456">
        <ele>593.8</ele>
        <time>2021-04-15T11:27:22Z</time>
      </trkpt>
      <trkpt lat="46.74674" lon="5.78452">
        <ele>592.4</ele>
        <time>2021-04-15T11:27:29Z</time>
      </trkpt>
      <trkpt lat="46.7467" lon="5.78448">
        <ele>591.3</ele>
        <time>2021-04-15T11:27:35Z</time>
      </trkpt>
      <trkpt lat="46.74666" lon="5.78446">
        <ele>591</ele>
        <time>2021-04-15T11:27:39Z</time>
      </trkpt>
      <trkpt lat="46.7466" lon="5.78445">
        <ele>591.4</ele>
        <time>2021-04-15T11:27:43Z</time>
      </trkpt>
      <trkpt lat="46.74653" lon="5.78442">
        <ele>592.3</ele>
        <time>2021-04-15T11:27:47Z</time>
      </trkpt>
      <trkpt lat="46.74648" lon="5.7844">
        <ele>592.9</ele>
        <time>2021-04-15T11:27:51Z</time>
      </trkpt>
      <trkpt lat="46.74641" lon="5.7844">
        <ele>594.2</ele>
        <time>2021-04-15T11:27:55Z</time>
      </trkpt>
      <trkpt lat="46.74636" lon="5.78438">
        <ele>595.2</ele>
        <time>2021-04-15T11:27:59Z</time>
      </trkpt>
      <trkpt lat="46.74631" lon="5.78435">
        <ele>596.4</ele>
        <time>2021-04-15T11:28:04Z</time>
      </trkpt>
      <trkpt lat="46.74627" lon="5.78433">
        <ele>597.3</ele>
        <time>2021-04-15T11:28:08Z</time>
      </trkpt>
      <trkpt lat="46.74622" lon="5.7843">
        <ele>597.6</ele>
        <time>2021-04-15T11:28:12Z</time>
      </trkpt>
      <trkpt lat="46.74617" lon="5.78429">
        <ele>597.7</ele>
        <time>2021-04-15T11:28:16Z</time>
      </trkpt>
      <trkpt lat="46.74613" lon="5.78427">
        <ele>598.1</ele>
        <time>2021-04-15T11:28:21Z</time>
      </trkpt>
      <trkpt lat="46.74608" lon="5.78425">
        <ele>598.5</ele>
        <time>2021-04-15T11:28:27Z</time>
      </trkpt>
      <trkpt lat="46.74604" lon="5.78422">
        <ele>598.6</ele>
        <time>2021-04-15T11:28:33Z</time>
      </trkpt>
      <trkpt lat="46.74599" lon="5.7842">
        <ele>598.7</ele>
        <time>2021-04-15T11:28:37Z</time>
      </trkpt>
      <trkpt lat="46.74595" lon="5.78418">
        <ele>598.4</ele>
        <time>2021-04-15T11:28:42Z</time>
      </trkpt>
      <trkpt lat="46.7459" lon="5.78415">
        <ele>598.1</ele>
        <time>2021-04-15T11:28:47Z</time>
      </trkpt>
      <trkpt lat="46.74585" lon="5.78412">
        <ele>597.4</ele>
        <time>2021-04-15T11:28:52Z</time>
      </trkpt>
      <trkpt lat="46.7458" lon="5.7841">
        <ele>596.5</ele>
        <time>2021-04-15T11:28:57Z</time>
      </trkpt>
      <trkpt lat="46.74575" lon="5.78407">
        <ele>595.9</ele>
        <time>2021-04-15T11:29:01Z</time>
      </trkpt>
      <trkpt lat="46.74571" lon="5.78405">
        <ele>595.4</ele>
        <time>2021-04-15T11:29:05Z</time>
      </trkpt>
      <trkpt lat="46.74566" lon="5.78404">
        <ele>595.3</ele>
        <time>2021-04-15T11:29:09Z</time>
      </trkpt>
      <trkpt lat="46.74561" lon="5.78402">
        <ele>595</ele>
        <time>2021-04-15T11:29:13Z</time>
      </trkpt>
      <trkpt lat="46.74558" lon="5.78398">
        <ele>594.3</ele>
        <time>2021-04-15T11:29:18Z</time>
      </trkpt>
      <trkpt lat="46.74553" lon="5.78395">
        <ele>593.8</ele>
        <time>2021-04-15T11:29:23Z</time>
      </trkpt>
      <trkpt lat="46.74548" lon="5.78394">
        <ele>593.1</ele>
        <time>2021-04-15T11:29:28Z</time>
      </trkpt>
      <trkpt lat="46.74543" lon="5.78392">
        <ele>592.6</ele>
        <time>2021-04-15T11:29:32Z</time>
      </trkpt>
      <trkpt lat="46.74539" lon="5.78389">
        <ele>592.4</ele>
        <time>2021-04-15T11:29:36Z</time>
      </trkpt>
      <trkpt lat="46.74534" lon="5.78386">
        <ele>592.3</ele>
        <time>2021-04-15T11:29:41Z</time>
      </trkpt>
      <trkpt lat="46.74529" lon="5.78381">
        <ele>592.2</ele>
        <time>2021-04-15T11:29:46Z</time>
      </trkpt>
      <trkpt lat="46.74526" lon="5.78376">
        <ele>591.9</ele>
        <time>2021-04-15T11:29:51Z</time>
      </trkpt>
      <trkpt lat="46.74524" lon="5.7837">
        <ele>592</ele>
        <time>2021-04-15T11:29:56Z</time>
      </trkpt>
      <trkpt lat="46.7452" lon="5.78365">
        <ele>592.5</ele>
        <time>2021-04-15T11:30:00Z</time>
      </trkpt>
      <trkpt lat="46.74519" lon="5.78358">
        <ele>593.7</ele>
        <time>2021-04-15T11:30:07Z</time>
      </trkpt>
      <trkpt lat="46.74516" lon="5.78351">
        <ele>593.8</ele>
        <time>2021-04-15T11:30:13Z</time>
      </trkpt>
      <trkpt lat="46.74513" lon="5.78346">
        <ele>593.7</ele>
        <time>2021-04-15T11:30:17Z</time>
      </trkpt>
      <trkpt lat="46.7451" lon="5.78341">
        <ele>593.5</ele>
        <time>2021-04-15T11:30:22Z</time>
      </trkpt>
      <trkpt lat="46.74505" lon="5.78341">
        <ele>593.6</ele>
        <time>2021-04-15T11:30:55Z</time>
      </trkpt>
      <trkpt lat="46.74502" lon="5.78334">
        <ele>594.1</ele>
        <time>2021-04-15T11:31:01Z</time>
      </trkpt>
      <trkpt lat="46.745" lon="5.78329">
        <ele>594.5</ele>
        <time>2021-04-15T11:31:05Z</time>
      </trkpt>
      <trkpt lat="46.74497" lon="5.78323">
        <ele>594.9</ele>
        <time>2021-04-15T11:31:10Z</time>
      </trkpt>
      <trkpt lat="46.74494" lon="5.78317">
        <ele>595.1</ele>
        <time>2021-04-15T11:31:15Z</time>
      </trkpt>
      <trkpt lat="46.7449" lon="5.78313">
        <ele>595.6</ele>
        <time>2021-04-15T11:31:19Z</time>
      </trkpt>
      <trkpt lat="46.74485" lon="5.78309">
        <ele>596.2</ele>
        <time>2021-04-15T11:31:23Z</time>
      </trkpt>
      <trkpt lat="46.74481" lon="5.78305">
        <ele>596.9</ele>
        <time>2021-04-15T11:31:27Z</time>
      </trkpt>
      <trkpt lat="46.74477" lon="5.78302">
        <ele>597.4</ele>
        <time>2021-04-15T11:31:31Z</time>
      </trkpt>
      <trkpt lat="46.74473" lon="5.78298">
        <ele>597.7</ele>
        <time>2021-04-15T11:31:35Z</time>
      </trkpt>
      <trkpt lat="46.74468" lon="5.78296">
        <ele>598</ele>
        <time>2021-04-15T11:31:39Z</time>
      </trkpt>
      <trkpt lat="46.74463" lon="5.78294">
        <ele>598</ele>
        <time>2021-04-15T11:31:44Z</time>
      </trkpt>
      <trkpt lat="46.7446" lon="5.78291">
        <ele>597.9</ele>
        <time>2021-04-15T11:31:49Z</time>
      </trkpt>
      <trkpt lat="46.74455" lon="5.78288">
        <ele>597.6</ele>
        <time>2021-04-15T11:31:54Z</time>
      </trkpt>
      <trkpt lat="46.74452" lon="5.78282">
        <ele>597.3</ele>
        <time>2021-04-15T11:32:03Z</time>
      </trkpt>
      <trkpt lat="46.74448" lon="5.78277">
        <ele>596</ele>
        <time>2021-04-15T11:32:09Z</time>
      </trkpt>
      <trkpt lat="46.74445" lon="5.78273">
        <ele>594.7</ele>
        <time>2021-04-15T11:32:14Z</time>
      </trkpt>
      <trkpt lat="46.7444" lon="5.7827">
        <ele>593.8</ele>
        <time>2021-04-15T11:32:18Z</time>
      </trkpt>
      <trkpt lat="46.74436" lon="5.78268">
        <ele>593.4</ele>
        <time>2021-04-15T11:32:22Z</time>
      </trkpt>
      <trkpt lat="46.74431" lon="5.78265">
        <ele>592.8</ele>
        <time>2021-04-15T11:32:27Z</time>
      </trkpt>
      <trkpt lat="46.74428" lon="5.7826">
        <ele>591.5</ele>
        <time>2021-04-15T11:32:32Z</time>
      </trkpt>
      <trkpt lat="46.74424" lon="5.78258">
        <ele>590.4</ele>
        <time>2021-04-15T11:32:37Z</time>
      </trkpt>
      <trkpt lat="46.74419" lon="5.78254">
        <ele>590.3</ele>
        <time>2021-04-15T11:32:41Z</time>
      </trkpt>
      <trkpt lat="46.74415" lon="5.7825">
        <ele>590.4</ele>
        <time>2021-04-15T11:32:45Z</time>
      </trkpt>
      <trkpt lat="46.7441" lon="5.78246">
        <ele>591.1</ele>
        <time>2021-04-15T11:32:50Z</time>
      </trkpt>
      <trkpt lat="46.74407" lon="5.78243">
        <ele>591.9</ele>
        <time>2021-04-15T11:32:54Z</time>
      </trkpt>
      <trkpt lat="46.74402" lon="5.78239">
        <ele>592.8</ele>
        <time>2021-04-15T11:32:58Z</time>
      </trkpt>
      <trkpt lat="46.74397" lon="5.78236">
        <ele>594.2</ele>
        <time>2021-04-15T11:33:02Z</time>
      </trkpt>
      <trkpt lat="46.74392" lon="5.78232">
        <ele>595.4</ele>
        <time>2021-04-15T11:33:06Z</time>
      </trkpt>
      <trkpt lat="46.74388" lon="5.78228">
        <ele>596.6</ele>
        <time>2021-04-15T11:33:10Z</time>
      </trkpt>
      <trkpt lat="46.74384" lon="5.78224">
        <ele>597.9</ele>
        <time>2021-04-15T11:33:15Z</time>
      </trkpt>
      <trkpt lat="46.7438" lon="5.78219">
        <ele>598.9</ele>
        <time>2021-04-15T11:33:21Z</time>
      </trkpt>
      <trkpt lat="46.7438" lon="5.78211">
        <ele>599.5</ele>
        <time>2021-04-15T11:33:37Z</time>
      </trkpt>
      <trkpt lat="46.74376" lon="5.78206">
        <ele>599</ele>
        <time>2021-04-15T11:33:43Z</time>
      </trkpt>
      <trkpt lat="46.74372" lon="5.78201">
        <ele>597.8</ele>
        <time>2021-04-15T11:33:49Z</time>
      </trkpt>
      <trkpt lat="46.7437" lon="5.78195">
        <ele>596</ele>
        <time>2021-04-15T11:33:54Z</time>
      </trkpt>
      <trkpt lat="46.74366" lon="5.78192">
        <ele>594</ele>
        <time>2021-04-15T11:33:59Z</time>
      </trkpt>
      <trkpt lat="46.74361" lon="5.7819">
        <ele>592.5</ele>
        <time>2021-04-15T11:34:04Z</time>
      </trkpt>
      <trkpt lat="46.74357" lon="5.78186">
        <ele>591</ele>
        <time>2021-04-15T11:34:12Z</time>
      </trkpt>
      <trkpt lat="46.74352" lon="5.78185">
        <ele>591.1</ele>
        <time>2021-04-15T11:34:25Z</time>
      </trkpt>
      <trkpt lat="46.74347" lon="5.78191">
        <ele>594.3</ele>
        <time>2021-04-15T11:34:29Z</time>
      </trkpt>
      <trkpt lat="46.74344" lon="5.78198">
        <ele>597.7</ele>
        <time>2021-04-15T11:34:33Z</time>
      </trkpt>
      <trkpt lat="46.7434" lon="5.78202">
        <ele>600.1</ele>
        <time>2021-04-15T11:34:37Z</time>
      </trkpt>
      <trkpt lat="46.74337" lon="5.78208">
        <ele>601.6</ele>
        <time>2021-04-15T11:34:41Z</time>
      </trkpt>
      <trkpt lat="46.74334" lon="5.78212">
        <ele>602.8</ele>
        <time>2021-04-15T11:34:45Z</time>
      </trkpt>
      <trkpt lat="46.7433" lon="5.78216">
        <ele>604.3</ele>
        <time>2021-04-15T11:34:51Z</time>
      </trkpt>
      <trkpt lat="46.74325" lon="5.78219">
        <ele>605.1</ele>
        <time>2021-04-15T11:34:56Z</time>
      </trkpt>
      <trkpt lat="46.74321" lon="5.78222">
        <ele>605.4</ele>
        <time>2021-04-15T11:35:03Z</time>
      </trkpt>
      <trkpt lat="46.74317" lon="5.78226">
        <ele>605.2</ele>
        <time>2021-04-15T11:35:09Z</time>
      </trkpt>
      <trkpt lat="46.74312" lon="5.78229">
        <ele>605.1</ele>
        <time>2021-04-15T11:35:15Z</time>
      </trkpt>
      <trkpt lat="46.74308" lon="5.78231">
        <ele>605.2</ele>
        <time>2021-04-15T11:35:21Z</time>
      </trkpt>
      <trkpt lat="46.743" lon="5.78233">
        <ele>603.6</ele>
        <time>2021-04-15T11:35:25Z</time>
      </trkpt>
      <trkpt lat="46.74296" lon="5.78234">
        <ele>602.7</ele>
        <time>2021-04-15T11:35:29Z</time>
      </trkpt>
      <trkpt lat="46.74291" lon="5.78235">
        <ele>602.2</ele>
        <time>2021-04-15T11:35:34Z</time>
      </trkpt>
      <trkpt lat="46.74286" lon="5.78237">
        <ele>602.2</ele>
        <time>2021-04-15T11:35:38Z</time>
      </trkpt>
      <trkpt lat="46.74281" lon="5.78236">
        <ele>602</ele>
        <time>2021-04-15T11:35:43Z</time>
      </trkpt>
      <trkpt lat="46.74276" lon="5.78236">
        <ele>601.5</ele>
        <time>2021-04-15T11:35:48Z</time>
      </trkpt>
      <trkpt lat="46.74272" lon="5.78236">
        <ele>600.7</ele>
        <time>2021-04-15T11:35:54Z</time>
      </trkpt>
      <trkpt lat="46.74267" lon="5.78236">
        <ele>599.8</ele>
        <time>2021-04-15T11:35:59Z</time>
      </trkpt>
      <trkpt lat="46.74262" lon="5.78237">
        <ele>598.9</ele>
        <time>2021-04-15T11:36:04Z</time>
      </trkpt>
      <trkpt lat="46.74258" lon="5.78237">
        <ele>598.6</ele>
        <time>2021-04-15T11:36:11Z</time>
      </trkpt>
      <trkpt lat="46.74253" lon="5.78234">
        <ele>597.7</ele>
        <time>2021-04-15T11:36:15Z</time>
      </trkpt>
      <trkpt lat="46.74244" lon="5.78236">
        <ele>597.4</ele>
        <time>2021-04-15T11:36:19Z</time>
      </trkpt>
      <trkpt lat="46.74237" lon="5.78239">
        <ele>597.4</ele>
        <time>2021-04-15T11:36:23Z</time>
      </trkpt>
      <trkpt lat="46.74232" lon="5.78238">
        <ele>597.2</ele>
        <time>2021-04-15T11:36:27Z</time>
      </trkpt>
      <trkpt lat="46.74227" lon="5.78237">
        <ele>596.8</ele>
        <time>2021-04-15T11:36:33Z</time>
      </trkpt>
      <trkpt lat="46.74223" lon="5.78233">
        <ele>596.3</ele>
        <time>2021-04-15T11:36:39Z</time>
      </trkpt>
      <trkpt lat="46.74219" lon="5.78229">
        <ele>596</ele>
        <time>2021-04-15T11:36:45Z</time>
      </trkpt>
      <trkpt lat="46.74214" lon="5.78226">
        <ele>595.6</ele>
        <time>2021-04-15T11:36:51Z</time>
      </trkpt>
      <trkpt lat="46.74211" lon="5.78222">
        <ele>595.1</ele>
        <time>2021-04-15T11:36:59Z</time>
      </trkpt>
      <trkpt lat="46.74205" lon="5.78219">
        <ele>593.6</ele>
        <time>2021-04-15T11:37:03Z</time>
      </trkpt>
      <trkpt lat="46.742" lon="5.78217">
        <ele>592</ele>
        <time>2021-04-15T11:37:07Z</time>
      </trkpt>
      <trkpt lat="46.74195" lon="5.78215">
        <ele>590.1</ele>
        <time>2021-04-15T11:37:13Z</time>
      </trkpt>
      <trkpt lat="46.74191" lon="5.78214">
        <ele>589</ele>
        <time>2021-04-15T11:37:18Z</time>
      </trkpt>
      <trkpt lat="46.74185" lon="5.78212">
        <ele>587.9</ele>
        <time>2021-04-15T11:37:23Z</time>
      </trkpt>
      <trkpt lat="46.74182" lon="5.78208">
        <ele>586.6</ele>
        <time>2021-04-15T11:37:29Z</time>
      </trkpt>
      <trkpt lat="46.74178" lon="5.78203">
        <ele>584.6</ele>
        <time>2021-04-15T11:37:36Z</time>
      </trkpt>
      <trkpt lat="46.74173" lon="5.78201">
        <ele>583.6</ele>
        <time>2021-04-15T11:37:40Z</time>
      </trkpt>
      <trkpt lat="46.74168" lon="5.782">
        <ele>582.9</ele>
        <time>2021-04-15T11:37:44Z</time>
      </trkpt>
      <trkpt lat="46.74163" lon="5.78199">
        <ele>581.4</ele>
        <time>2021-04-15T11:37:49Z</time>
      </trkpt>
      <trkpt lat="46.74158" lon="5.78198">
        <ele>579.5</ele>
        <time>2021-04-15T11:37:55Z</time>
      </trkpt>
      <trkpt lat="46.74153" lon="5.78196">
        <ele>578</ele>
        <time>2021-04-15T11:38:00Z</time>
      </trkpt>
      <trkpt lat="46.74149" lon="5.78194">
        <ele>576.7</ele>
        <time>2021-04-15T11:38:05Z</time>
      </trkpt>
      <trkpt lat="46.74144" lon="5.78195">
        <ele>575.8</ele>
        <time>2021-04-15T11:38:10Z</time>
      </trkpt>
      <trkpt lat="46.74139" lon="5.78194">
        <ele>574.8</ele>
        <time>2021-04-15T11:38:15Z</time>
      </trkpt>
      <trkpt lat="46.74134" lon="5.78193">
        <ele>575.3</ele>
        <time>2021-04-15T11:38:19Z</time>
      </trkpt>
      <trkpt lat="46.74131" lon="5.78188">
        <ele>575.1</ele>
        <time>2021-04-15T11:38:29Z</time>
      </trkpt>
      <trkpt lat="46.74127" lon="5.78185">
        <ele>574.4</ele>
        <time>2021-04-15T11:39:10Z</time>
      </trkpt>
      <trkpt lat="46.74122" lon="5.78185">
        <ele>574.5</ele>
        <time>2021-04-15T11:39:17Z</time>
      </trkpt>
      <trkpt lat="46.74117" lon="5.78188">
        <ele>574.5</ele>
        <time>2021-04-15T11:39:22Z</time>
      </trkpt>
      <trkpt lat="46.74112" lon="5.78189">
        <ele>574.8</ele>
        <time>2021-04-15T11:39:26Z</time>
      </trkpt>
      <trkpt lat="46.74107" lon="5.78189">
        <ele>574.9</ele>
        <time>2021-04-15T11:39:31Z</time>
      </trkpt>
      <trkpt lat="46.74103" lon="5.78191">
        <ele>574.8</ele>
        <time>2021-04-15T11:39:35Z</time>
      </trkpt>
      <trkpt lat="46.74098" lon="5.78191">
        <ele>574.7</ele>
        <time>2021-04-15T11:39:41Z</time>
      </trkpt>
      <trkpt lat="46.74093" lon="5.78193">
        <ele>574.2</ele>
        <time>2021-04-15T11:39:47Z</time>
      </trkpt>
      <trkpt lat="46.74088" lon="5.78195">
        <ele>573.6</ele>
        <time>2021-04-15T11:39:52Z</time>
      </trkpt>
      <trkpt lat="46.74083" lon="5.78197">
        <ele>573.3</ele>
        <time>2021-04-15T11:39:56Z</time>
      </trkpt>
      <trkpt lat="46.74078" lon="5.78198">
        <ele>572.8</ele>
        <time>2021-04-15T11:40:01Z</time>
      </trkpt>
      <trkpt lat="46.74073" lon="5.78199">
        <ele>572.5</ele>
        <time>2021-04-15T11:40:06Z</time>
      </trkpt>
      <trkpt lat="46.74069" lon="5.782">
        <ele>572.3</ele>
        <time>2021-04-15T11:40:10Z</time>
      </trkpt>
      <trkpt lat="46.74064" lon="5.78201">
        <ele>571.7</ele>
        <time>2021-04-15T11:40:17Z</time>
      </trkpt>
      <trkpt lat="46.74058" lon="5.78202">
        <ele>571.1</ele>
        <time>2021-04-15T11:40:23Z</time>
      </trkpt>
      <trkpt lat="46.74053" lon="5.78203">
        <ele>570.6</ele>
        <time>2021-04-15T11:40:27Z</time>
      </trkpt>
      <trkpt lat="46.74048" lon="5.78204">
        <ele>570.2</ele>
        <time>2021-04-15T11:40:31Z</time>
      </trkpt>
      <trkpt lat="46.74042" lon="5.78205">
        <ele>569.9</ele>
        <time>2021-04-15T11:40:35Z</time>
      </trkpt>
      <trkpt lat="46.74037" lon="5.78205">
        <ele>569.3</ele>
        <time>2021-04-15T11:40:40Z</time>
      </trkpt>
      <trkpt lat="46.74033" lon="5.78207">
        <ele>568.9</ele>
        <time>2021-04-15T11:40:44Z</time>
      </trkpt>
      <trkpt lat="46.74028" lon="5.78207">
        <ele>568.5</ele>
        <time>2021-04-15T11:40:48Z</time>
      </trkpt>
      <trkpt lat="46.74023" lon="5.78206">
        <ele>567.9</ele>
        <time>2021-04-15T11:40:53Z</time>
      </trkpt>
      <trkpt lat="46.74018" lon="5.78204">
        <ele>567.1</ele>
        <time>2021-04-15T11:40:59Z</time>
      </trkpt>
      <trkpt lat="46.74014" lon="5.782">
        <ele>566.4</ele>
        <time>2021-04-15T11:41:04Z</time>
      </trkpt>
      <trkpt lat="46.74005" lon="5.78201">
        <ele>567.7</ele>
        <time>2021-04-15T11:41:10Z</time>
      </trkpt>
      <trkpt lat="46.73998" lon="5.78204">
        <ele>569.4</ele>
        <time>2021-04-15T11:41:14Z</time>
      </trkpt>
      <trkpt lat="46.73993" lon="5.78204">
        <ele>570.7</ele>
        <time>2021-04-15T11:41:19Z</time>
      </trkpt>
      <trkpt lat="46.73988" lon="5.78203">
        <ele>571.3</ele>
        <time>2021-04-15T11:41:27Z</time>
      </trkpt>
      <trkpt lat="46.73983" lon="5.78202">
        <ele>571</ele>
        <time>2021-04-15T11:41:34Z</time>
      </trkpt>
      <trkpt lat="46.73978" lon="5.78203">
        <ele>570.6</ele>
        <time>2021-04-15T11:41:38Z</time>
      </trkpt>
      <trkpt lat="46.73973" lon="5.78202">
        <ele>570</ele>
        <time>2021-04-15T11:41:42Z</time>
      </trkpt>
      <trkpt lat="46.73968" lon="5.78199">
        <ele>568.6</ele>
        <time>2021-04-15T11:41:49Z</time>
      </trkpt>
      <trkpt lat="46.73964" lon="5.78197">
        <ele>567.6</ele>
        <time>2021-04-15T11:41:53Z</time>
      </trkpt>
      <trkpt lat="46.73953" lon="5.78201">
        <ele>568.7</ele>
        <time>2021-04-15T11:41:57Z</time>
      </trkpt>
      <trkpt lat="46.73946" lon="5.78202">
        <ele>569.7</ele>
        <time>2021-04-15T11:42:01Z</time>
      </trkpt>
      <trkpt lat="46.7394" lon="5.78202">
        <ele>569.8</ele>
        <time>2021-04-15T11:42:07Z</time>
      </trkpt>
      <trkpt lat="46.73935" lon="5.78201">
        <ele>569.2</ele>
        <time>2021-04-15T11:42:12Z</time>
      </trkpt>
      <trkpt lat="46.73931" lon="5.78198">
        <ele>568.6</ele>
        <time>2021-04-15T11:42:18Z</time>
      </trkpt>
      <trkpt lat="46.73924" lon="5.78199">
        <ele>567.7</ele>
        <time>2021-04-15T11:42:22Z</time>
      </trkpt>
      <trkpt lat="46.73916" lon="5.78201">
        <ele>567.3</ele>
        <time>2021-04-15T11:42:26Z</time>
      </trkpt>
      <trkpt lat="46.73911" lon="5.78201">
        <ele>566.9</ele>
        <time>2021-04-15T11:42:30Z</time>
      </trkpt>
      <trkpt lat="46.73906" lon="5.78201">
        <ele>566.4</ele>
        <time>2021-04-15T11:42:35Z</time>
      </trkpt>
      <trkpt lat="46.73901" lon="5.782">
        <ele>566</ele>
        <time>2021-04-15T11:42:40Z</time>
      </trkpt>
      <trkpt lat="46.73896" lon="5.78199">
        <ele>565.5</ele>
        <time>2021-04-15T11:42:45Z</time>
      </trkpt>
      <trkpt lat="46.73888" lon="5.78199">
        <ele>566.3</ele>
        <time>2021-04-15T11:42:49Z</time>
      </trkpt>
      <trkpt lat="46.73884" lon="5.78194">
        <ele>566.8</ele>
        <time>2021-04-15T11:42:57Z</time>
      </trkpt>
      <trkpt lat="46.7388" lon="5.78192">
        <ele>566.5</ele>
        <time>2021-04-15T11:43:05Z</time>
      </trkpt>
      <trkpt lat="46.73875" lon="5.7819">
        <ele>566.1</ele>
        <time>2021-04-15T11:43:13Z</time>
      </trkpt>
      <trkpt lat="46.73871" lon="5.78188">
        <ele>565.7</ele>
        <time>2021-04-15T11:43:20Z</time>
      </trkpt>
      <trkpt lat="46.73865" lon="5.78189">
        <ele>565.5</ele>
        <time>2021-04-15T11:43:25Z</time>
      </trkpt>
      <trkpt lat="46.73861" lon="5.7819">
        <ele>564.9</ele>
        <time>2021-04-15T11:43:31Z</time>
      </trkpt>
      <trkpt lat="46.73856" lon="5.78189">
        <ele>564.3</ele>
        <time>2021-04-15T11:43:36Z</time>
      </trkpt>
      <trkpt lat="46.73851" lon="5.78187">
        <ele>563.8</ele>
        <time>2021-04-15T11:43:40Z</time>
      </trkpt>
      <trkpt lat="46.73842" lon="5.78184">
        <ele>563.1</ele>
        <time>2021-04-15T11:43:44Z</time>
      </trkpt>
      <trkpt lat="46.73838" lon="5.78182">
        <ele>562</ele>
        <time>2021-04-15T11:43:49Z</time>
      </trkpt>
      <trkpt lat="46.73833" lon="5.7818">
        <ele>560.7</ele>
        <time>2021-04-15T11:43:54Z</time>
      </trkpt>
      <trkpt lat="46.73829" lon="5.78178">
        <ele>559.4</ele>
        <time>2021-04-15T11:43:59Z</time>
      </trkpt>
      <trkpt lat="46.73824" lon="5.78178">
        <ele>557.9</ele>
        <time>2021-04-15T11:44:05Z</time>
      </trkpt>
      <trkpt lat="46.73819" lon="5.78177">
        <ele>556.2</ele>
        <time>2021-04-15T11:44:11Z</time>
      </trkpt>
      <trkpt lat="46.73814" lon="5.78177">
        <ele>554.9</ele>
        <time>2021-04-15T11:44:16Z</time>
      </trkpt>
      <trkpt lat="46.73809" lon="5.78177">
        <ele>553.5</ele>
        <time>2021-04-15T11:44:21Z</time>
      </trkpt>
      <trkpt lat="46.73804" lon="5.78175">
        <ele>552.1</ele>
        <time>2021-04-15T11:44:26Z</time>
      </trkpt>
      <trkpt lat="46.738" lon="5.78172">
        <ele>550.6</ele>
        <time>2021-04-15T11:44:31Z</time>
      </trkpt>
      <trkpt lat="46.73795" lon="5.78171">
        <ele>549.4</ele>
        <time>2021-04-15T11:44:35Z</time>
      </trkpt>
      <trkpt lat="46.73786" lon="5.78171">
        <ele>549.8</ele>
        <time>2021-04-15T11:44:40Z</time>
      </trkpt>
      <trkpt lat="46.73778" lon="5.78171">
        <ele>550.9</ele>
        <time>2021-04-15T11:44:44Z</time>
      </trkpt>
      <trkpt lat="46.73773" lon="5.78171">
        <ele>551.4</ele>
        <time>2021-04-15T11:44:48Z</time>
      </trkpt>
      <trkpt lat="46.73768" lon="5.78172">
        <ele>551.4</ele>
        <time>2021-04-15T11:44:53Z</time>
      </trkpt>
      <trkpt lat="46.73763" lon="5.78173">
        <ele>551</ele>
        <time>2021-04-15T11:44:59Z</time>
      </trkpt>
      <trkpt lat="46.73757" lon="5.78173">
        <ele>550.9</ele>
        <time>2021-04-15T11:45:03Z</time>
      </trkpt>
      <trkpt lat="46.73753" lon="5.78171">
        <ele>550.8</ele>
        <time>2021-04-15T11:45:08Z</time>
      </trkpt>
      <trkpt lat="46.73749" lon="5.78169">
        <ele>550.2</ele>
        <time>2021-04-15T11:45:13Z</time>
      </trkpt>
      <trkpt lat="46.73743" lon="5.78169">
        <ele>549.6</ele>
        <time>2021-04-15T11:45:19Z</time>
      </trkpt>
      <trkpt lat="46.73739" lon="5.7817">
        <ele>549.9</ele>
        <time>2021-04-15T11:45:23Z</time>
      </trkpt>
      <trkpt lat="46.73734" lon="5.78168">
        <ele>550.7</ele>
        <time>2021-04-15T11:45:31Z</time>
      </trkpt>
      <trkpt lat="46.73729" lon="5.78166">
        <ele>551</ele>
        <time>2021-04-15T11:45:37Z</time>
      </trkpt>
      <trkpt lat="46.73724" lon="5.78164">
        <ele>550.9</ele>
        <time>2021-04-15T11:45:41Z</time>
      </trkpt>
      <trkpt lat="46.7372" lon="5.78164">
        <ele>550.8</ele>
        <time>2021-04-15T11:45:45Z</time>
      </trkpt>
      <trkpt lat="46.73714" lon="5.78163">
        <ele>550.6</ele>
        <time>2021-04-15T11:45:50Z</time>
      </trkpt>
      <trkpt lat="46.7371" lon="5.7816">
        <ele>550.4</ele>
        <time>2021-04-15T11:45:57Z</time>
      </trkpt>
      <trkpt lat="46.73699" lon="5.78162">
        <ele>551.1</ele>
        <time>2021-04-15T11:46:01Z</time>
      </trkpt>
      <trkpt lat="46.73694" lon="5.78162">
        <ele>551</ele>
        <time>2021-04-15T11:46:06Z</time>
      </trkpt>
      <trkpt lat="46.7369" lon="5.78159">
        <ele>550.5</ele>
        <time>2021-04-15T11:46:12Z</time>
      </trkpt>
      <trkpt lat="46.73686" lon="5.78156">
        <ele>549.7</ele>
        <time>2021-04-15T11:46:17Z</time>
      </trkpt>
      <trkpt lat="46.7368" lon="5.78156">
        <ele>549.6</ele>
        <time>2021-04-15T11:46:22Z</time>
      </trkpt>
      <trkpt lat="46.73675" lon="5.78157">
        <ele>549.6</ele>
        <time>2021-04-15T11:46:27Z</time>
      </trkpt>
      <trkpt lat="46.7367" lon="5.78155">
        <ele>549.6</ele>
        <time>2021-04-15T11:46:31Z</time>
      </trkpt>
      <trkpt lat="46.73665" lon="5.78155">
        <ele>549.4</ele>
        <time>2021-04-15T11:46:35Z</time>
      </trkpt>
      <trkpt lat="46.73661" lon="5.78155">
        <ele>549.1</ele>
        <time>2021-04-15T11:46:39Z</time>
      </trkpt>
      <trkpt lat="46.73655" lon="5.78156">
        <ele>548.4</ele>
        <time>2021-04-15T11:46:44Z</time>
      </trkpt>
      <trkpt lat="46.73651" lon="5.78154">
        <ele>547.4</ele>
        <time>2021-04-15T11:46:49Z</time>
      </trkpt>
      <trkpt lat="46.73646" lon="5.78154">
        <ele>546.6</ele>
        <time>2021-04-15T11:46:54Z</time>
      </trkpt>
      <trkpt lat="46.7364" lon="5.78152">
        <ele>545.6</ele>
        <time>2021-04-15T11:46:59Z</time>
      </trkpt>
      <trkpt lat="46.73635" lon="5.78151">
        <ele>544.8</ele>
        <time>2021-04-15T11:47:03Z</time>
      </trkpt>
      <trkpt lat="46.7363" lon="5.7815">
        <ele>544.1</ele>
        <time>2021-04-15T11:47:07Z</time>
      </trkpt>
      <trkpt lat="46.73625" lon="5.78149">
        <ele>543.8</ele>
        <time>2021-04-15T11:47:11Z</time>
      </trkpt>
      <trkpt lat="46.7362" lon="5.78146">
        <ele>543.2</ele>
        <time>2021-04-15T11:47:16Z</time>
      </trkpt>
      <trkpt lat="46.73615" lon="5.78143">
        <ele>542.6</ele>
        <time>2021-04-15T11:47:21Z</time>
      </trkpt>
      <trkpt lat="46.73611" lon="5.78142">
        <ele>541.7</ele>
        <time>2021-04-15T11:47:26Z</time>
      </trkpt>
      <trkpt lat="46.73606" lon="5.78141">
        <ele>540.3</ele>
        <time>2021-04-15T11:47:31Z</time>
      </trkpt>
      <trkpt lat="46.73598" lon="5.78142">
        <ele>539.2</ele>
        <time>2021-04-15T11:47:36Z</time>
      </trkpt>
      <trkpt lat="46.73592" lon="5.78143">
        <ele>538.4</ele>
        <time>2021-04-15T11:47:40Z</time>
      </trkpt>
      <trkpt lat="46.73587" lon="5.78143">
        <ele>537.4</ele>
        <time>2021-04-15T11:47:45Z</time>
      </trkpt>
      <trkpt lat="46.73581" lon="5.78142">
        <ele>536.6</ele>
        <time>2021-04-15T11:47:51Z</time>
      </trkpt>
      <trkpt lat="46.73577" lon="5.78142">
        <ele>535.3</ele>
        <time>2021-04-15T11:47:57Z</time>
      </trkpt>
      <trkpt lat="46.73572" lon="5.78142">
        <ele>533.6</ele>
        <time>2021-04-15T11:48:04Z</time>
      </trkpt>
      <trkpt lat="46.73568" lon="5.78138">
        <ele>531.9</ele>
        <time>2021-04-15T11:48:11Z</time>
      </trkpt>
      <trkpt lat="46.73558" lon="5.78137">
        <ele>533.1</ele>
        <time>2021-04-15T11:48:15Z</time>
      </trkpt>
      <trkpt lat="46.73553" lon="5.78136">
        <ele>533.2</ele>
        <time>2021-04-15T11:48:19Z</time>
      </trkpt>
      <trkpt lat="46.73549" lon="5.78133">
        <ele>532.7</ele>
        <time>2021-04-15T11:48:25Z</time>
      </trkpt>
      <trkpt lat="46.7354" lon="5.78136">
        <ele>533.6</ele>
        <time>2021-04-15T11:48:29Z</time>
      </trkpt>
      <trkpt lat="46.73534" lon="5.78138">
        <ele>534.3</ele>
        <time>2021-04-15T11:48:33Z</time>
      </trkpt>
      <trkpt lat="46.73529" lon="5.78136">
        <ele>534.6</ele>
        <time>2021-04-15T11:48:39Z</time>
      </trkpt>
      <trkpt lat="46.73524" lon="5.78131">
        <ele>534.5</ele>
        <time>2021-04-15T11:48:58Z</time>
      </trkpt>
      <trkpt lat="46.73521" lon="5.78125">
        <ele>534</ele>
        <time>2021-04-15T11:49:05Z</time>
      </trkpt>
      <trkpt lat="46.73516" lon="5.78125">
        <ele>533.5</ele>
        <time>2021-04-15T11:49:11Z</time>
      </trkpt>
      <trkpt lat="46.73511" lon="5.78125">
        <ele>532.9</ele>
        <time>2021-04-15T11:49:16Z</time>
      </trkpt>
      <trkpt lat="46.73506" lon="5.78124">
        <ele>532.2</ele>
        <time>2021-04-15T11:49:21Z</time>
      </trkpt>
      <trkpt lat="46.73501" lon="5.78123">
        <ele>531.1</ele>
        <time>2021-04-15T11:49:27Z</time>
      </trkpt>
      <trkpt lat="46.7349" lon="5.78128">
        <ele>531.3</ele>
        <time>2021-04-15T11:49:32Z</time>
      </trkpt>
      <trkpt lat="46.73482" lon="5.78132">
        <ele>531.8</ele>
        <time>2021-04-15T11:49:36Z</time>
      </trkpt>
      <trkpt lat="46.73477" lon="5.7813">
        <ele>531.7</ele>
        <time>2021-04-15T11:49:43Z</time>
      </trkpt>
      <trkpt lat="46.7347" lon="5.78129">
        <ele>531.3</ele>
        <time>2021-04-15T11:49:51Z</time>
      </trkpt>
      <trkpt lat="46.73464" lon="5.78129">
        <ele>531.1</ele>
        <time>2021-04-15T11:49:55Z</time>
      </trkpt>
      <trkpt lat="46.73459" lon="5.78129">
        <ele>530.7</ele>
        <time>2021-04-15T11:50:00Z</time>
      </trkpt>
      <trkpt lat="46.73458" lon="5.78123">
        <ele>529.9</ele>
        <time>2021-04-15T11:50:13Z</time>
      </trkpt>
      <trkpt lat="46.73453" lon="5.78124">
        <ele>529.8</ele>
        <time>2021-04-15T11:50:23Z</time>
      </trkpt>
      <trkpt lat="46.73452" lon="5.78117">
        <ele>530.9</ele>
        <time>2021-04-15T11:50:35Z</time>
      </trkpt>
      <trkpt lat="46.7345" lon="5.78124">
        <ele>531.7</ele>
        <time>2021-04-15T11:50:51Z</time>
      </trkpt>
      <trkpt lat="46.73446" lon="5.78128">
        <ele>532</ele>
        <time>2021-04-15T11:50:57Z</time>
      </trkpt>
      <trkpt lat="46.73441" lon="5.78125">
        <ele>534.3</ele>
        <time>2021-04-15T11:51:06Z</time>
      </trkpt>
      <trkpt lat="46.73438" lon="5.7812">
        <ele>534.5</ele>
        <time>2021-04-15T11:51:11Z</time>
      </trkpt>
      <trkpt lat="46.73433" lon="5.78118">
        <ele>533.9</ele>
        <time>2021-04-15T11:51:16Z</time>
      </trkpt>
      <trkpt lat="46.73428" lon="5.78115">
        <ele>532.8</ele>
        <time>2021-04-15T11:51:21Z</time>
      </trkpt>
      <trkpt lat="46.73424" lon="5.78114">
        <ele>531.5</ele>
        <time>2021-04-15T11:51:26Z</time>
      </trkpt>
      <trkpt lat="46.73419" lon="5.78112">
        <ele>528.3</ele>
        <time>2021-04-15T11:51:37Z</time>
      </trkpt>
      <trkpt lat="46.73414" lon="5.7811">
        <ele>526.6</ele>
        <time>2021-04-15T11:51:46Z</time>
      </trkpt>
      <trkpt lat="46.73409" lon="5.78109">
        <ele>526.1</ele>
        <time>2021-04-15T11:51:52Z</time>
      </trkpt>
      <trkpt lat="46.73406" lon="5.78104">
        <ele>523.9</ele>
        <time>2021-04-15T11:52:01Z</time>
      </trkpt>
      <trkpt lat="46.734" lon="5.78107">
        <ele>523.3</ele>
        <time>2021-04-15T11:52:05Z</time>
      </trkpt>
      <trkpt lat="46.73395" lon="5.78105">
        <ele>522.8</ele>
        <time>2021-04-15T11:52:09Z</time>
      </trkpt>
      <trkpt lat="46.73391" lon="5.78102">
        <ele>522.7</ele>
        <time>2021-04-15T11:52:13Z</time>
      </trkpt>
      <trkpt lat="46.73385" lon="5.78103">
        <ele>522.9</ele>
        <time>2021-04-15T11:52:17Z</time>
      </trkpt>
      <trkpt lat="46.73381" lon="5.78103">
        <ele>523.8</ele>
        <time>2021-04-15T11:52:21Z</time>
      </trkpt>
      <trkpt lat="46.73376" lon="5.78103">
        <ele>525</ele>
        <time>2021-04-15T11:52:25Z</time>
      </trkpt>
      <trkpt lat="46.73371" lon="5.78105">
        <ele>526.2</ele>
        <time>2021-04-15T11:52:30Z</time>
      </trkpt>
      <trkpt lat="46.73366" lon="5.78105">
        <ele>526.7</ele>
        <time>2021-04-15T11:52:35Z</time>
      </trkpt>
      <trkpt lat="46.73361" lon="5.78105">
        <ele>526.4</ele>
        <time>2021-04-15T11:52:39Z</time>
      </trkpt>
      <trkpt lat="46.73355" lon="5.78106">
        <ele>525.8</ele>
        <time>2021-04-15T11:52:43Z</time>
      </trkpt>
      <trkpt lat="46.7335" lon="5.78107">
        <ele>525</ele>
        <time>2021-04-15T11:52:47Z</time>
      </trkpt>
      <trkpt lat="46.73346" lon="5.78106">
        <ele>524</ele>
        <time>2021-04-15T11:52:52Z</time>
      </trkpt>
      <trkpt lat="46.73341" lon="5.78104">
        <ele>523.4</ele>
        <time>2021-04-15T11:52:58Z</time>
      </trkpt>
      <trkpt lat="46.73336" lon="5.78102">
        <ele>523.1</ele>
        <time>2021-04-15T11:53:04Z</time>
      </trkpt>
      <trkpt lat="46.73331" lon="5.78102">
        <ele>522.8</ele>
        <time>2021-04-15T11:53:08Z</time>
      </trkpt>
      <trkpt lat="46.73326" lon="5.78102">
        <ele>522</ele>
        <time>2021-04-15T11:53:12Z</time>
      </trkpt>
      <trkpt lat="46.7332" lon="5.781">
        <ele>521</ele>
        <time>2021-04-15T11:53:17Z</time>
      </trkpt>
      <trkpt lat="46.73315" lon="5.78098">
        <ele>520.1</ele>
        <time>2021-04-15T11:53:22Z</time>
      </trkpt>
      <trkpt lat="46.7331" lon="5.78096">
        <ele>519.1</ele>
        <time>2021-04-15T11:53:28Z</time>
      </trkpt>
      <trkpt lat="46.73306" lon="5.78096">
        <ele>518.5</ele>
        <time>2021-04-15T11:53:33Z</time>
      </trkpt>
      <trkpt lat="46.733" lon="5.78096">
        <ele>518</ele>
        <time>2021-04-15T11:53:38Z</time>
      </trkpt>
      <trkpt lat="46.73296" lon="5.78094">
        <ele>517.2</ele>
        <time>2021-04-15T11:53:42Z</time>
      </trkpt>
      <trkpt lat="46.73291" lon="5.78093">
        <ele>516</ele>
        <time>2021-04-15T11:53:46Z</time>
      </trkpt>
      <trkpt lat="46.73286" lon="5.78093">
        <ele>513.7</ele>
        <time>2021-04-15T11:53:52Z</time>
      </trkpt>
      <trkpt lat="46.73281" lon="5.78091">
        <ele>512.2</ele>
        <time>2021-04-15T11:53:57Z</time>
      </trkpt>
      <trkpt lat="46.73277" lon="5.78087">
        <ele>510.6</ele>
        <time>2021-04-15T11:54:03Z</time>
      </trkpt>
      <trkpt lat="46.73272" lon="5.78087">
        <ele>509.4</ele>
        <time>2021-04-15T11:54:08Z</time>
      </trkpt>
      <trkpt lat="46.73266" lon="5.78086">
        <ele>508.2</ele>
        <time>2021-04-15T11:54:13Z</time>
      </trkpt>
      <trkpt lat="46.73261" lon="5.78087">
        <ele>507.7</ele>
        <time>2021-04-15T11:54:17Z</time>
      </trkpt>
      <trkpt lat="46.73256" lon="5.78087">
        <ele>507</ele>
        <time>2021-04-15T11:54:22Z</time>
      </trkpt>
      <trkpt lat="46.7325" lon="5.78086">
        <ele>506</ele>
        <time>2021-04-15T11:54:27Z</time>
      </trkpt>
      <trkpt lat="46.73245" lon="5.78084">
        <ele>505.2</ele>
        <time>2021-04-15T11:54:32Z</time>
      </trkpt>
      <trkpt lat="46.73241" lon="5.78081">
        <ele>504.4</ele>
        <time>2021-04-15T11:54:37Z</time>
      </trkpt>
      <trkpt lat="46.73236" lon="5.7808">
        <ele>503.9</ele>
        <time>2021-04-15T11:54:42Z</time>
      </trkpt>
      <trkpt lat="46.7323" lon="5.78082">
        <ele>504</ele>
        <time>2021-04-15T11:54:46Z</time>
      </trkpt>
      <trkpt lat="46.73225" lon="5.78082">
        <ele>504</ele>
        <time>2021-04-15T11:54:50Z</time>
      </trkpt>
      <trkpt lat="46.7322" lon="5.78082">
        <ele>504.4</ele>
        <time>2021-04-15T11:54:54Z</time>
      </trkpt>
      <trkpt lat="46.73216" lon="5.78079">
        <ele>505.4</ele>
        <time>2021-04-15T11:55:03Z</time>
      </trkpt>
      <trkpt lat="46.73213" lon="5.78074">
        <ele>505.2</ele>
        <time>2021-04-15T11:55:11Z</time>
      </trkpt>
      <trkpt lat="46.73208" lon="5.78074">
        <ele>504.7</ele>
        <time>2021-04-15T11:55:16Z</time>
      </trkpt>
      <trkpt lat="46.73197" lon="5.78085">
        <ele>505.8</ele>
        <time>2021-04-15T11:55:20Z</time>
      </trkpt>
      <trkpt lat="46.73193" lon="5.78088">
        <ele>506.4</ele>
        <time>2021-04-15T11:55:25Z</time>
      </trkpt>
      <trkpt lat="46.7319" lon="5.78082">
        <ele>506.1</ele>
        <time>2021-04-15T11:55:33Z</time>
      </trkpt>
      <trkpt lat="46.73185" lon="5.78081">
        <ele>505.6</ele>
        <time>2021-04-15T11:55:38Z</time>
      </trkpt>
      <trkpt lat="46.7318" lon="5.7808">
        <ele>505</ele>
        <time>2021-04-15T11:55:43Z</time>
      </trkpt>
      <trkpt lat="46.73176" lon="5.78076">
        <ele>503.8</ele>
        <time>2021-04-15T11:55:49Z</time>
      </trkpt>
      <trkpt lat="46.73171" lon="5.78073">
        <ele>502.9</ele>
        <time>2021-04-15T11:55:54Z</time>
      </trkpt>
      <trkpt lat="46.73166" lon="5.78071">
        <ele>502.2</ele>
        <time>2021-04-15T11:55:59Z</time>
      </trkpt>
      <trkpt lat="46.73161" lon="5.78071">
        <ele>501.3</ele>
        <time>2021-04-15T11:56:06Z</time>
      </trkpt>
      <trkpt lat="46.73156" lon="5.78072">
        <ele>500.5</ele>
        <time>2021-04-15T11:56:13Z</time>
      </trkpt>
      <trkpt lat="46.73152" lon="5.78068">
        <ele>499.5</ele>
        <time>2021-04-15T11:56:24Z</time>
      </trkpt>
      <trkpt lat="46.73147" lon="5.78069">
        <ele>499.2</ele>
        <time>2021-04-15T11:56:29Z</time>
      </trkpt>
      <trkpt lat="46.73142" lon="5.7807">
        <ele>498.9</ele>
        <time>2021-04-15T11:56:35Z</time>
      </trkpt>
      <trkpt lat="46.73136" lon="5.78071">
        <ele>498.6</ele>
        <time>2021-04-15T11:56:40Z</time>
      </trkpt>
      <trkpt lat="46.73131" lon="5.78071">
        <ele>498.2</ele>
        <time>2021-04-15T11:56:45Z</time>
      </trkpt>
      <trkpt lat="46.73127" lon="5.78072">
        <ele>498.2</ele>
        <time>2021-04-15T11:56:50Z</time>
      </trkpt>
      <trkpt lat="46.73122" lon="5.78069">
        <ele>497.7</ele>
        <time>2021-04-15T11:56:56Z</time>
      </trkpt>
      <trkpt lat="46.73116" lon="5.78067">
        <ele>497.3</ele>
        <time>2021-04-15T11:57:01Z</time>
      </trkpt>
      <trkpt lat="46.73112" lon="5.78065">
        <ele>496.9</ele>
        <time>2021-04-15T11:57:06Z</time>
      </trkpt>
      <trkpt lat="46.73107" lon="5.78063">
        <ele>496.9</ele>
        <time>2021-04-15T11:57:11Z</time>
      </trkpt>
      <trkpt lat="46.73102" lon="5.78064">
        <ele>496.5</ele>
        <time>2021-04-15T11:57:17Z</time>
      </trkpt>
      <trkpt lat="46.73098" lon="5.78064">
        <ele>496</ele>
        <time>2021-04-15T11:57:23Z</time>
      </trkpt>
      <trkpt lat="46.73093" lon="5.78064">
        <ele>495.8</ele>
        <time>2021-04-15T11:57:29Z</time>
      </trkpt>
      <trkpt lat="46.73088" lon="5.78062">
        <ele>495.7</ele>
        <time>2021-04-15T11:57:34Z</time>
      </trkpt>
      <trkpt lat="46.73083" lon="5.7806">
        <ele>495.5</ele>
        <time>2021-04-15T11:57:40Z</time>
      </trkpt>
      <trkpt lat="46.73078" lon="5.78059">
        <ele>495</ele>
        <time>2021-04-15T11:57:45Z</time>
      </trkpt>
      <trkpt lat="46.73073" lon="5.78059">
        <ele>494.7</ele>
        <time>2021-04-15T11:57:50Z</time>
      </trkpt>
      <trkpt lat="46.73068" lon="5.78058">
        <ele>494.5</ele>
        <time>2021-04-15T11:57:55Z</time>
      </trkpt>
      <trkpt lat="46.73063" lon="5.78058">
        <ele>494.3</ele>
        <time>2021-04-15T11:58:00Z</time>
      </trkpt>
      <trkpt lat="46.73058" lon="5.78058">
        <ele>494.1</ele>
        <time>2021-04-15T11:58:06Z</time>
      </trkpt>
      <trkpt lat="46.73052" lon="5.78056">
        <ele>493.8</ele>
        <time>2021-04-15T11:58:11Z</time>
      </trkpt>
      <trkpt lat="46.73048" lon="5.78055">
        <ele>493.3</ele>
        <time>2021-04-15T11:58:15Z</time>
      </trkpt>
      <trkpt lat="46.73043" lon="5.78054">
        <ele>492.8</ele>
        <time>2021-04-15T11:58:20Z</time>
      </trkpt>
      <trkpt lat="46.73038" lon="5.78052">
        <ele>492.4</ele>
        <time>2021-04-15T11:58:25Z</time>
      </trkpt>
      <trkpt lat="46.73032" lon="5.78051">
        <ele>492.2</ele>
        <time>2021-04-15T11:58:30Z</time>
      </trkpt>
      <trkpt lat="46.73027" lon="5.78051">
        <ele>491.8</ele>
        <time>2021-04-15T11:58:35Z</time>
      </trkpt>
      <trkpt lat="46.73023" lon="5.7805">
        <ele>491.1</ele>
        <time>2021-04-15T11:58:44Z</time>
      </trkpt>
      <trkpt lat="46.73017" lon="5.78049">
        <ele>489.3</ele>
        <time>2021-04-15T11:59:20Z</time>
      </trkpt>
      <trkpt lat="46.73012" lon="5.78048">
        <ele>489.2</ele>
        <time>2021-04-15T11:59:24Z</time>
      </trkpt>
      <trkpt lat="46.73007" lon="5.78047">
        <ele>489.1</ele>
        <time>2021-04-15T11:59:29Z</time>
      </trkpt>
      <trkpt lat="46.73002" lon="5.78045">
        <ele>489</ele>
        <time>2021-04-15T11:59:35Z</time>
      </trkpt>
      <trkpt lat="46.72997" lon="5.78044">
        <ele>488.7</ele>
        <time>2021-04-15T11:59:40Z</time>
      </trkpt>
      <trkpt lat="46.72993" lon="5.78042">
        <ele>488.5</ele>
        <time>2021-04-15T11:59:45Z</time>
      </trkpt>
      <trkpt lat="46.72987" lon="5.78042">
        <ele>488.3</ele>
        <time>2021-04-15T11:59:51Z</time>
      </trkpt>
      <trkpt lat="46.72983" lon="5.78038">
        <ele>488.2</ele>
        <time>2021-04-15T11:59:59Z</time>
      </trkpt>
      <trkpt lat="46.72978" lon="5.78037">
        <ele>488.2</ele>
        <time>2021-04-15T12:00:04Z</time>
      </trkpt>
      <trkpt lat="46.72974" lon="5.78037">
        <ele>488.4</ele>
        <time>2021-04-15T12:00:08Z</time>
      </trkpt>
      <trkpt lat="46.72969" lon="5.78037">
        <ele>488.5</ele>
        <time>2021-04-15T12:00:12Z</time>
      </trkpt>
      <trkpt lat="46.72964" lon="5.78038">
        <ele>488.6</ele>
        <time>2021-04-15T12:00:16Z</time>
      </trkpt>
      <trkpt lat="46.72959" lon="5.78039">
        <ele>488.7</ele>
        <time>2021-04-15T12:00:20Z</time>
      </trkpt>
      <trkpt lat="46.72954" lon="5.78038">
        <ele>488.3</ele>
        <time>2021-04-15T12:00:25Z</time>
      </trkpt>
      <trkpt lat="46.72949" lon="5.78037">
        <ele>487.6</ele>
        <time>2021-04-15T12:00:30Z</time>
      </trkpt>
      <trkpt lat="46.72944" lon="5.78036">
        <ele>486.9</ele>
        <time>2021-04-15T12:00:35Z</time>
      </trkpt>
      <trkpt lat="46.72939" lon="5.78035">
        <ele>486.5</ele>
        <time>2021-04-15T12:00:40Z</time>
      </trkpt>
      <trkpt lat="46.72934" lon="5.78034">
        <ele>486.2</ele>
        <time>2021-04-15T12:00:45Z</time>
      </trkpt>
      <trkpt lat="46.72929" lon="5.78031">
        <ele>485.9</ele>
        <time>2021-04-15T12:00:51Z</time>
      </trkpt>
      <trkpt lat="46.72925" lon="5.7803">
        <ele>485.6</ele>
        <time>2021-04-15T12:00:56Z</time>
      </trkpt>
      <trkpt lat="46.72919" lon="5.78029">
        <ele>485.1</ele>
        <time>2021-04-15T12:01:01Z</time>
      </trkpt>
      <trkpt lat="46.72914" lon="5.7803">
        <ele>484.1</ele>
        <time>2021-04-15T12:01:06Z</time>
      </trkpt>
      <trkpt lat="46.7291" lon="5.78028">
        <ele>483.2</ele>
        <time>2021-04-15T12:01:11Z</time>
      </trkpt>
      <trkpt lat="46.72905" lon="5.78026">
        <ele>482.2</ele>
        <time>2021-04-15T12:01:16Z</time>
      </trkpt>
      <trkpt lat="46.729" lon="5.78025">
        <ele>481.1</ele>
        <time>2021-04-15T12:01:21Z</time>
      </trkpt>
      <trkpt lat="46.72895" lon="5.78023">
        <ele>480</ele>
        <time>2021-04-15T12:01:26Z</time>
      </trkpt>
      <trkpt lat="46.7289" lon="5.78022">
        <ele>478.9</ele>
        <time>2021-04-15T12:01:31Z</time>
      </trkpt>
      <trkpt lat="46.72885" lon="5.7802">
        <ele>477.9</ele>
        <time>2021-04-15T12:01:36Z</time>
      </trkpt>
      <trkpt lat="46.72881" lon="5.78021">
        <ele>477.2</ele>
        <time>2021-04-15T12:01:40Z</time>
      </trkpt>
      <trkpt lat="46.72876" lon="5.78021">
        <ele>476.7</ele>
        <time>2021-04-15T12:01:44Z</time>
      </trkpt>
      <trkpt lat="46.7287" lon="5.7802">
        <ele>476.2</ele>
        <time>2021-04-15T12:01:49Z</time>
      </trkpt>
      <trkpt lat="46.72866" lon="5.78018">
        <ele>475.7</ele>
        <time>2021-04-15T12:01:54Z</time>
      </trkpt>
      <trkpt lat="46.72862" lon="5.78021">
        <ele>474.8</ele>
        <time>2021-04-15T12:02:03Z</time>
      </trkpt>
      <trkpt lat="46.72858" lon="5.78022">
        <ele>473.9</ele>
        <time>2021-04-15T12:02:11Z</time>
      </trkpt>
      <trkpt lat="46.72853" lon="5.78019">
        <ele>474.1</ele>
        <time>2021-04-15T12:02:17Z</time>
      </trkpt>
      <trkpt lat="46.7285" lon="5.78014">
        <ele>474.8</ele>
        <time>2021-04-15T12:02:22Z</time>
      </trkpt>
      <trkpt lat="46.72846" lon="5.78011">
        <ele>475.9</ele>
        <time>2021-04-15T12:02:27Z</time>
      </trkpt>
      <trkpt lat="46.72842" lon="5.78008">
        <ele>478.4</ele>
        <time>2021-04-15T12:02:38Z</time>
      </trkpt>
      <trkpt lat="46.72837" lon="5.78009">
        <ele>478.9</ele>
        <time>2021-04-15T12:02:48Z</time>
      </trkpt>
      <trkpt lat="46.72832" lon="5.78007">
        <ele>478.9</ele>
        <time>2021-04-15T12:02:53Z</time>
      </trkpt>
      <trkpt lat="46.72827" lon="5.78005">
        <ele>479.1</ele>
        <time>2021-04-15T12:02:59Z</time>
      </trkpt>
      <trkpt lat="46.72822" lon="5.78005">
        <ele>479.3</ele>
        <time>2021-04-15T12:03:03Z</time>
      </trkpt>
      <trkpt lat="46.72817" lon="5.78005">
        <ele>479.6</ele>
        <time>2021-04-15T12:03:08Z</time>
      </trkpt>
      <trkpt lat="46.72813" lon="5.78005">
        <ele>480</ele>
        <time>2021-04-15T12:03:13Z</time>
      </trkpt>
      <trkpt lat="46.72808" lon="5.78006">
        <ele>480.3</ele>
        <time>2021-04-15T12:03:17Z</time>
      </trkpt>
      <trkpt lat="46.72803" lon="5.78006">
        <ele>480.8</ele>
        <time>2021-04-15T12:03:21Z</time>
      </trkpt>
      <trkpt lat="46.72797" lon="5.78005">
        <ele>481.5</ele>
        <time>2021-04-15T12:03:26Z</time>
      </trkpt>
      <trkpt lat="46.72794" lon="5.78001">
        <ele>482.5</ele>
        <time>2021-04-15T12:03:34Z</time>
      </trkpt>
      <trkpt lat="46.72793" lon="5.77994">
        <ele>483.3</ele>
        <time>2021-04-15T12:03:40Z</time>
      </trkpt>
      <trkpt lat="46.72795" lon="5.77988">
        <ele>483.7</ele>
        <time>2021-04-15T12:04:07Z</time>
      </trkpt>
      <trkpt lat="46.72797" lon="5.77981">
        <ele>483.5</ele>
        <time>2021-04-15T12:04:18Z</time>
      </trkpt>
      <trkpt lat="46.728" lon="5.77975">
        <ele>483.5</ele>
        <time>2021-04-15T12:04:33Z</time>
      </trkpt>
      <trkpt lat="46.72804" lon="5.77971">
        <ele>483.8</ele>
        <time>2021-04-15T12:04:38Z</time>
      </trkpt>
      <trkpt lat="46.72807" lon="5.77965">
        <ele>484.3</ele>
        <time>2021-04-15T12:04:43Z</time>
      </trkpt>
      <trkpt lat="46.72811" lon="5.7796">
        <ele>484.9</ele>
        <time>2021-04-15T12:04:48Z</time>
      </trkpt>
      <trkpt lat="46.72814" lon="5.77954">
        <ele>485.6</ele>
        <time>2021-04-15T12:04:53Z</time>
      </trkpt>
      <trkpt lat="46.72818" lon="5.77949">
        <ele>486.6</ele>
        <time>2021-04-15T12:04:58Z</time>
      </trkpt>
      <trkpt lat="46.72821" lon="5.77943">
        <ele>487.3</ele>
        <time>2021-04-15T12:05:02Z</time>
      </trkpt>
      <trkpt lat="46.72825" lon="5.77938">
        <ele>488</ele>
        <time>2021-04-15T12:05:06Z</time>
      </trkpt>
      <trkpt lat="46.7283" lon="5.77935">
        <ele>489.1</ele>
        <time>2021-04-15T12:05:11Z</time>
      </trkpt>
      <trkpt lat="46.72834" lon="5.77931">
        <ele>490.2</ele>
        <time>2021-04-15T12:05:16Z</time>
      </trkpt>
      <trkpt lat="46.72838" lon="5.77927">
        <ele>491.1</ele>
        <time>2021-04-15T12:05:21Z</time>
      </trkpt>
      <trkpt lat="46.72842" lon="5.77924">
        <ele>492</ele>
        <time>2021-04-15T12:05:28Z</time>
      </trkpt>
      <trkpt lat="46.72848" lon="5.77923">
        <ele>492.2</ele>
        <time>2021-04-15T12:05:34Z</time>
      </trkpt>
      <trkpt lat="46.72852" lon="5.77922">
        <ele>492.1</ele>
        <time>2021-04-15T12:05:40Z</time>
      </trkpt>
      <trkpt lat="46.72857" lon="5.77919">
        <ele>492.4</ele>
        <time>2021-04-15T12:05:45Z</time>
      </trkpt>
      <trkpt lat="46.72861" lon="5.77916">
        <ele>491.6</ele>
        <time>2021-04-15T12:05:49Z</time>
      </trkpt>
      <trkpt lat="46.72866" lon="5.77913">
        <ele>491.6</ele>
        <time>2021-04-15T12:05:56Z</time>
      </trkpt>
      <trkpt lat="46.72871" lon="5.77911">
        <ele>494</ele>
        <time>2021-04-15T12:06:29Z</time>
      </trkpt>
      <trkpt lat="46.72876" lon="5.7791">
        <ele>494.5</ele>
        <time>2021-04-15T12:06:33Z</time>
      </trkpt>
      <trkpt lat="46.72881" lon="5.77911">
        <ele>495.2</ele>
        <time>2021-04-15T12:06:39Z</time>
      </trkpt>
      <trkpt lat="46.72886" lon="5.77911">
        <ele>495.8</ele>
        <time>2021-04-15T12:06:44Z</time>
      </trkpt>
      <trkpt lat="46.72891" lon="5.7791">
        <ele>496.3</ele>
        <time>2021-04-15T12:06:48Z</time>
      </trkpt>
      <trkpt lat="46.72896" lon="5.77906">
        <ele>496.1</ele>
        <time>2021-04-15T12:06:52Z</time>
      </trkpt>
      <trkpt lat="46.72903" lon="5.779">
        <ele>495.3</ele>
        <time>2021-04-15T12:06:56Z</time>
      </trkpt>
      <trkpt lat="46.72907" lon="5.77902">
        <ele>495</ele>
        <time>2021-04-15T12:07:03Z</time>
      </trkpt>
      <trkpt lat="46.72912" lon="5.77903">
        <ele>495.8</ele>
        <time>2021-04-15T12:07:09Z</time>
      </trkpt>
      <trkpt lat="46.72917" lon="5.77903">
        <ele>496.7</ele>
        <time>2021-04-15T12:07:14Z</time>
      </trkpt>
      <trkpt lat="46.72921" lon="5.77899">
        <ele>497.4</ele>
        <time>2021-04-15T12:07:19Z</time>
      </trkpt>
      <trkpt lat="46.72926" lon="5.77896">
        <ele>497.8</ele>
        <time>2021-04-15T12:07:25Z</time>
      </trkpt>
      <trkpt lat="46.72931" lon="5.77894">
        <ele>498.3</ele>
        <time>2021-04-15T12:07:29Z</time>
      </trkpt>
      <trkpt lat="46.72935" lon="5.77892">
        <ele>499.1</ele>
        <time>2021-04-15T12:07:34Z</time>
      </trkpt>
      <trkpt lat="46.72939" lon="5.77889">
        <ele>499.5</ele>
        <time>2021-04-15T12:07:38Z</time>
      </trkpt>
      <trkpt lat="46.72944" lon="5.77887">
        <ele>499.8</ele>
        <time>2021-04-15T12:07:44Z</time>
      </trkpt>
      <trkpt lat="46.72949" lon="5.77888">
        <ele>500</ele>
        <time>2021-04-15T12:07:50Z</time>
      </trkpt>
      <trkpt lat="46.72954" lon="5.77886">
        <ele>500.3</ele>
        <time>2021-04-15T12:07:56Z</time>
      </trkpt>
      <trkpt lat="46.72959" lon="5.77885">
        <ele>500.8</ele>
        <time>2021-04-15T12:08:02Z</time>
      </trkpt>
      <trkpt lat="46.72964" lon="5.77884">
        <ele>501.7</ele>
        <time>2021-04-15T12:08:10Z</time>
      </trkpt>
      <trkpt lat="46.72968" lon="5.77883">
        <ele>502</ele>
        <time>2021-04-15T12:08:15Z</time>
      </trkpt>
      <trkpt lat="46.72974" lon="5.77882">
        <ele>502.5</ele>
        <time>2021-04-15T12:08:20Z</time>
      </trkpt>
      <trkpt lat="46.72979" lon="5.77881">
        <ele>502.5</ele>
        <time>2021-04-15T12:08:24Z</time>
      </trkpt>
      <trkpt lat="46.72984" lon="5.7788">
        <ele>502.6</ele>
        <time>2021-04-15T12:08:30Z</time>
      </trkpt>
      <trkpt lat="46.72989" lon="5.77882">
        <ele>502.6</ele>
        <time>2021-04-15T12:08:40Z</time>
      </trkpt>
      <trkpt lat="46.72994" lon="5.77881">
        <ele>501.2</ele>
        <time>2021-04-15T12:08:45Z</time>
      </trkpt>
      <trkpt lat="46.72999" lon="5.77881">
        <ele>500.1</ele>
        <time>2021-04-15T12:08:52Z</time>
      </trkpt>
      <trkpt lat="46.73003" lon="5.77883">
        <ele>499.8</ele>
        <time>2021-04-15T12:08:58Z</time>
      </trkpt>
      <trkpt lat="46.73008" lon="5.77881">
        <ele>499.8</ele>
        <time>2021-04-15T12:09:02Z</time>
      </trkpt>
      <trkpt lat="46.73013" lon="5.7788">
        <ele>500.1</ele>
        <time>2021-04-15T12:09:06Z</time>
      </trkpt>
      <trkpt lat="46.73018" lon="5.77882">
        <ele>499.9</ele>
        <time>2021-04-15T12:09:15Z</time>
      </trkpt>
      <trkpt lat="46.73024" lon="5.77878">
        <ele>498.4</ele>
        <time>2021-04-15T12:09:28Z</time>
      </trkpt>
      <trkpt lat="46.73029" lon="5.77875">
        <ele>498.6</ele>
        <time>2021-04-15T12:09:33Z</time>
      </trkpt>
      <trkpt lat="46.73034" lon="5.77875">
        <ele>499.5</ele>
        <time>2021-04-15T12:09:38Z</time>
      </trkpt>
      <trkpt lat="46.73039" lon="5.77877">
        <ele>501.3</ele>
        <time>2021-04-15T12:09:43Z</time>
      </trkpt>
      <trkpt lat="46.73043" lon="5.7788">
        <ele>504.2</ele>
        <time>2021-04-15T12:09:51Z</time>
      </trkpt>
      <trkpt lat="46.73047" lon="5.77883">
        <ele>506.8</ele>
        <time>2021-04-15T12:09:59Z</time>
      </trkpt>
      <trkpt lat="46.73052" lon="5.77884">
        <ele>508.6</ele>
        <time>2021-04-15T12:10:05Z</time>
      </trkpt>
      <trkpt lat="46.73057" lon="5.77881">
        <ele>510.2</ele>
        <time>2021-04-15T12:10:10Z</time>
      </trkpt>
      <trkpt lat="46.73062" lon="5.7788">
        <ele>511.5</ele>
        <time>2021-04-15T12:10:14Z</time>
      </trkpt>
      <trkpt lat="46.73067" lon="5.77878">
        <ele>513.1</ele>
        <time>2021-04-15T12:10:20Z</time>
      </trkpt>
      <trkpt lat="46.73071" lon="5.77874">
        <ele>515.4</ele>
        <time>2021-04-15T12:10:31Z</time>
      </trkpt>
      <trkpt lat="46.73076" lon="5.77873">
        <ele>515</ele>
        <time>2021-04-15T12:10:36Z</time>
      </trkpt>
      <trkpt lat="46.73081" lon="5.77875">
        <ele>514.7</ele>
        <time>2021-04-15T12:10:43Z</time>
      </trkpt>
      <trkpt lat="46.73086" lon="5.77874">
        <ele>514.6</ele>
        <time>2021-04-15T12:10:48Z</time>
      </trkpt>
      <trkpt lat="46.73091" lon="5.77873">
        <ele>514.5</ele>
        <time>2021-04-15T12:10:52Z</time>
      </trkpt>
      <trkpt lat="46.73095" lon="5.77872">
        <ele>514.7</ele>
        <time>2021-04-15T12:10:58Z</time>
      </trkpt>
      <trkpt lat="46.731" lon="5.77872">
        <ele>514.9</ele>
        <time>2021-04-15T12:11:03Z</time>
      </trkpt>
      <trkpt lat="46.73105" lon="5.77873">
        <ele>515.4</ele>
        <time>2021-04-15T12:11:09Z</time>
      </trkpt>
      <trkpt lat="46.7311" lon="5.77872">
        <ele>516.7</ele>
        <time>2021-04-15T12:11:15Z</time>
      </trkpt>
      <trkpt lat="46.73115" lon="5.77872">
        <ele>518.4</ele>
        <time>2021-04-15T12:11:23Z</time>
      </trkpt>
      <trkpt lat="46.7312" lon="5.77874">
        <ele>519.5</ele>
        <time>2021-04-15T12:11:29Z</time>
      </trkpt>
      <trkpt lat="46.73125" lon="5.77876">
        <ele>520.2</ele>
        <time>2021-04-15T12:11:34Z</time>
      </trkpt>
      <trkpt lat="46.7313" lon="5.77877">
        <ele>520.7</ele>
        <time>2021-04-15T12:11:40Z</time>
      </trkpt>
      <trkpt lat="46.73135" lon="5.77875">
        <ele>520.7</ele>
        <time>2021-04-15T12:11:46Z</time>
      </trkpt>
      <trkpt lat="46.7314" lon="5.77871">
        <ele>519.8</ele>
        <time>2021-04-15T12:11:50Z</time>
      </trkpt>
      <trkpt lat="46.73145" lon="5.77868">
        <ele>519</ele>
        <time>2021-04-15T12:11:55Z</time>
      </trkpt>
      <trkpt lat="46.7315" lon="5.77867">
        <ele>517.8</ele>
        <time>2021-04-15T12:11:59Z</time>
      </trkpt>
      <trkpt lat="46.73155" lon="5.77865">
        <ele>516.7</ele>
        <time>2021-04-15T12:12:03Z</time>
      </trkpt>
      <trkpt lat="46.7316" lon="5.77866">
        <ele>515.5</ele>
        <time>2021-04-15T12:12:09Z</time>
      </trkpt>
      <trkpt lat="46.73164" lon="5.77865">
        <ele>515.3</ele>
        <time>2021-04-15T12:12:14Z</time>
      </trkpt>
      <trkpt lat="46.73168" lon="5.77861">
        <ele>515.7</ele>
        <time>2021-04-15T12:12:30Z</time>
      </trkpt>
      <trkpt lat="46.73173" lon="5.77862">
        <ele>517.5</ele>
        <time>2021-04-15T12:12:38Z</time>
      </trkpt>
      <trkpt lat="46.73177" lon="5.77864">
        <ele>519.3</ele>
        <time>2021-04-15T12:12:44Z</time>
      </trkpt>
      <trkpt lat="46.73182" lon="5.77862">
        <ele>520.6</ele>
        <time>2021-04-15T12:12:49Z</time>
      </trkpt>
      <trkpt lat="46.73187" lon="5.77862">
        <ele>521</ele>
        <time>2021-04-15T12:12:54Z</time>
      </trkpt>
      <trkpt lat="46.73192" lon="5.7786">
        <ele>521.2</ele>
        <time>2021-04-15T12:12:58Z</time>
      </trkpt>
      <trkpt lat="46.73196" lon="5.77859">
        <ele>521.5</ele>
        <time>2021-04-15T12:13:04Z</time>
      </trkpt>
      <trkpt lat="46.73203" lon="5.77856">
        <ele>527.6</ele>
        <time>2021-04-15T12:14:31Z</time>
      </trkpt>
      <trkpt lat="46.73212" lon="5.77856">
        <ele>532.9</ele>
        <time>2021-04-15T12:14:35Z</time>
      </trkpt>
      <trkpt lat="46.73217" lon="5.77857">
        <ele>542.4</ele>
        <time>2021-04-15T12:14:49Z</time>
      </trkpt>
      <trkpt lat="46.73221" lon="5.77859">
        <ele>545.2</ele>
        <time>2021-04-15T12:14:59Z</time>
      </trkpt>
      <trkpt lat="46.73222" lon="5.77866">
        <ele>539.1</ele>
        <time>2021-04-15T12:15:57Z</time>
      </trkpt>
      <trkpt lat="46.73227" lon="5.77868">
        <ele>538.3</ele>
        <time>2021-04-15T12:16:02Z</time>
      </trkpt>
      <trkpt lat="46.73232" lon="5.77866">
        <ele>538</ele>
        <time>2021-04-15T12:16:07Z</time>
      </trkpt>
      <trkpt lat="46.73236" lon="5.77865">
        <ele>537.8</ele>
        <time>2021-04-15T12:16:12Z</time>
      </trkpt>
      <trkpt lat="46.73241" lon="5.77864">
        <ele>537.8</ele>
        <time>2021-04-15T12:16:18Z</time>
      </trkpt>
      <trkpt lat="46.73246" lon="5.77861">
        <ele>538.1</ele>
        <time>2021-04-15T12:16:24Z</time>
      </trkpt>
      <trkpt lat="46.7325" lon="5.77858">
        <ele>538.1</ele>
        <time>2021-04-15T12:16:31Z</time>
      </trkpt>
      <trkpt lat="46.73255" lon="5.77856">
        <ele>537.6</ele>
        <time>2021-04-15T12:16:37Z</time>
      </trkpt>
      <trkpt lat="46.7326" lon="5.77855">
        <ele>537</ele>
        <time>2021-04-15T12:16:45Z</time>
      </trkpt>
      <trkpt lat="46.73265" lon="5.77857">
        <ele>536.7</ele>
        <time>2021-04-15T12:16:50Z</time>
      </trkpt>
      <trkpt lat="46.7327" lon="5.77856">
        <ele>536.3</ele>
        <time>2021-04-15T12:16:56Z</time>
      </trkpt>
      <trkpt lat="46.73275" lon="5.77858">
        <ele>535.3</ele>
        <time>2021-04-15T12:17:18Z</time>
      </trkpt>
      <trkpt lat="46.73279" lon="5.77857">
        <ele>532.9</ele>
        <time>2021-04-15T12:18:05Z</time>
      </trkpt>
      <trkpt lat="46.73284" lon="5.77856">
        <ele>533.2</ele>
        <time>2021-04-15T12:18:09Z</time>
      </trkpt>
      <trkpt lat="46.73289" lon="5.77854">
        <ele>533.8</ele>
        <time>2021-04-15T12:18:15Z</time>
      </trkpt>
      <trkpt lat="46.73294" lon="5.77854">
        <ele>534.2</ele>
        <time>2021-04-15T12:18:21Z</time>
      </trkpt>
      <trkpt lat="46.73299" lon="5.77855">
        <ele>534.8</ele>
        <time>2021-04-15T12:18:26Z</time>
      </trkpt>
      <trkpt lat="46.73304" lon="5.77857">
        <ele>536.1</ele>
        <time>2021-04-15T12:18:32Z</time>
      </trkpt>
      <trkpt lat="46.73309" lon="5.77859">
        <ele>537.8</ele>
        <time>2021-04-15T12:18:38Z</time>
      </trkpt>
      <trkpt lat="46.73313" lon="5.77857">
        <ele>539.4</ele>
        <time>2021-04-15T12:18:44Z</time>
      </trkpt>
      <trkpt lat="46.73318" lon="5.77856">
        <ele>540.6</ele>
        <time>2021-04-15T12:18:50Z</time>
      </trkpt>
      <trkpt lat="46.73323" lon="5.77856">
        <ele>541.8</ele>
        <time>2021-04-15T12:18:57Z</time>
      </trkpt>
      <trkpt lat="46.73328" lon="5.77855">
        <ele>542.7</ele>
        <time>2021-04-15T12:19:04Z</time>
      </trkpt>
      <trkpt lat="46.73333" lon="5.77855">
        <ele>543.4</ele>
        <time>2021-04-15T12:19:10Z</time>
      </trkpt>
      <trkpt lat="46.73338" lon="5.77853">
        <ele>544.1</ele>
        <time>2021-04-15T12:19:15Z</time>
      </trkpt>
      <trkpt lat="46.73343" lon="5.7785">
        <ele>544.9</ele>
        <time>2021-04-15T12:19:21Z</time>
      </trkpt>
      <trkpt lat="46.73348" lon="5.77848">
        <ele>545.4</ele>
        <time>2021-04-15T12:19:26Z</time>
      </trkpt>
      <trkpt lat="46.73353" lon="5.77847">
        <ele>546</ele>
        <time>2021-04-15T12:19:34Z</time>
      </trkpt>
      <trkpt lat="46.73357" lon="5.77844">
        <ele>546.1</ele>
        <time>2021-04-15T12:19:42Z</time>
      </trkpt>
      <trkpt lat="46.73362" lon="5.77844">
        <ele>546.1</ele>
        <time>2021-04-15T12:19:50Z</time>
      </trkpt>
      <trkpt lat="46.73367" lon="5.77845">
        <ele>546.4</ele>
        <time>2021-04-15T12:19:55Z</time>
      </trkpt>
      <trkpt lat="46.73371" lon="5.77845">
        <ele>546.5</ele>
        <time>2021-04-15T12:20:00Z</time>
      </trkpt>
      <trkpt lat="46.73376" lon="5.77844">
        <ele>546.6</ele>
        <time>2021-04-15T12:20:04Z</time>
      </trkpt>
      <trkpt lat="46.73381" lon="5.77842">
        <ele>546.7</ele>
        <time>2021-04-15T12:20:08Z</time>
      </trkpt>
      <trkpt lat="46.73386" lon="5.77842">
        <ele>547</ele>
        <time>2021-04-15T12:20:13Z</time>
      </trkpt>
      <trkpt lat="46.7339" lon="5.77841">
        <ele>547.3</ele>
        <time>2021-04-15T12:20:17Z</time>
      </trkpt>
      <trkpt lat="46.73396" lon="5.77839">
        <ele>547.9</ele>
        <time>2021-04-15T12:20:22Z</time>
      </trkpt>
      <trkpt lat="46.73402" lon="5.77839">
        <ele>548.7</ele>
        <time>2021-04-15T12:20:27Z</time>
      </trkpt>
      <trkpt lat="46.73407" lon="5.77838">
        <ele>549.5</ele>
        <time>2021-04-15T12:20:32Z</time>
      </trkpt>
      <trkpt lat="46.73411" lon="5.77838">
        <ele>550.2</ele>
        <time>2021-04-15T12:20:38Z</time>
      </trkpt>
      <trkpt lat="46.73416" lon="5.77841">
        <ele>551.4</ele>
        <time>2021-04-15T12:20:45Z</time>
      </trkpt>
      <trkpt lat="46.73421" lon="5.77841">
        <ele>552.2</ele>
        <time>2021-04-15T12:20:51Z</time>
      </trkpt>
      <trkpt lat="46.73426" lon="5.77843">
        <ele>552.9</ele>
        <time>2021-04-15T12:20:57Z</time>
      </trkpt>
      <trkpt lat="46.73431" lon="5.77843">
        <ele>553.4</ele>
        <time>2021-04-15T12:21:06Z</time>
      </trkpt>
      <trkpt lat="46.73435" lon="5.7784">
        <ele>553.4</ele>
        <time>2021-04-15T12:21:12Z</time>
      </trkpt>
      <trkpt lat="46.73439" lon="5.77837">
        <ele>553.2</ele>
        <time>2021-04-15T12:21:17Z</time>
      </trkpt>
      <trkpt lat="46.73444" lon="5.77834">
        <ele>552.9</ele>
        <time>2021-04-15T12:21:23Z</time>
      </trkpt>
      <trkpt lat="46.73449" lon="5.77834">
        <ele>552.7</ele>
        <time>2021-04-15T12:21:29Z</time>
      </trkpt>
      <trkpt lat="46.73454" lon="5.77835">
        <ele>552.5</ele>
        <time>2021-04-15T12:21:35Z</time>
      </trkpt>
      <trkpt lat="46.73459" lon="5.77836">
        <ele>552.6</ele>
        <time>2021-04-15T12:21:42Z</time>
      </trkpt>
      <trkpt lat="46.73463" lon="5.77838">
        <ele>552.5</ele>
        <time>2021-04-15T12:21:50Z</time>
      </trkpt>
      <trkpt lat="46.73468" lon="5.77841">
        <ele>552.6</ele>
        <time>2021-04-15T12:21:58Z</time>
      </trkpt>
      <trkpt lat="46.73472" lon="5.77839">
        <ele>553.4</ele>
        <time>2021-04-15T12:22:04Z</time>
      </trkpt>
      <trkpt lat="46.73477" lon="5.77836">
        <ele>554.1</ele>
        <time>2021-04-15T12:22:08Z</time>
      </trkpt>
      <trkpt lat="46.73481" lon="5.77832">
        <ele>554.8</ele>
        <time>2021-04-15T12:22:13Z</time>
      </trkpt>
      <trkpt lat="46.73486" lon="5.77831">
        <ele>555.8</ele>
        <time>2021-04-15T12:22:19Z</time>
      </trkpt>
      <trkpt lat="46.73491" lon="5.77832">
        <ele>556.8</ele>
        <time>2021-04-15T12:22:25Z</time>
      </trkpt>
      <trkpt lat="46.73495" lon="5.77834">
        <ele>557.9</ele>
        <time>2021-04-15T12:22:31Z</time>
      </trkpt>
      <trkpt lat="46.735" lon="5.77835">
        <ele>558.6</ele>
        <time>2021-04-15T12:22:35Z</time>
      </trkpt>
      <trkpt lat="46.73505" lon="5.77835">
        <ele>559.4</ele>
        <time>2021-04-15T12:22:40Z</time>
      </trkpt>
      <trkpt lat="46.73509" lon="5.77836">
        <ele>560.3</ele>
        <time>2021-04-15T12:22:46Z</time>
      </trkpt>
      <trkpt lat="46.73514" lon="5.77836">
        <ele>561.1</ele>
        <time>2021-04-15T12:22:52Z</time>
      </trkpt>
      <trkpt lat="46.73519" lon="5.77836">
        <ele>561.7</ele>
        <time>2021-04-15T12:22:58Z</time>
      </trkpt>
      <trkpt lat="46.73523" lon="5.77836">
        <ele>562.7</ele>
        <time>2021-04-15T12:23:06Z</time>
      </trkpt>
      <trkpt lat="46.73528" lon="5.77835">
        <ele>563.6</ele>
        <time>2021-04-15T12:23:12Z</time>
      </trkpt>
      <trkpt lat="46.73532" lon="5.77832">
        <ele>564.7</ele>
        <time>2021-04-15T12:23:20Z</time>
      </trkpt>
      <trkpt lat="46.73536" lon="5.77835">
        <ele>574.2</ele>
        <time>2021-04-15T12:26:33Z</time>
      </trkpt>
      <trkpt lat="46.7354" lon="5.77839">
        <ele>574.8</ele>
        <time>2021-04-15T12:26:39Z</time>
      </trkpt>
      <trkpt lat="46.73546" lon="5.77839">
        <ele>575.3</ele>
        <time>2021-04-15T12:26:45Z</time>
      </trkpt>
      <trkpt lat="46.7355" lon="5.77838">
        <ele>575.8</ele>
        <time>2021-04-15T12:26:51Z</time>
      </trkpt>
      <trkpt lat="46.73555" lon="5.77837">
        <ele>576.5</ele>
        <time>2021-04-15T12:26:58Z</time>
      </trkpt>
      <trkpt lat="46.7356" lon="5.77837">
        <ele>577.1</ele>
        <time>2021-04-15T12:27:05Z</time>
      </trkpt>
      <trkpt lat="46.73564" lon="5.77836">
        <ele>577.7</ele>
        <time>2021-04-15T12:27:11Z</time>
      </trkpt>
      <trkpt lat="46.73569" lon="5.77838">
        <ele>578.1</ele>
        <time>2021-04-15T12:27:18Z</time>
      </trkpt>
      <trkpt lat="46.73574" lon="5.77838">
        <ele>578.4</ele>
        <time>2021-04-15T12:27:25Z</time>
      </trkpt>
      <trkpt lat="46.73579" lon="5.77838">
        <ele>578.8</ele>
        <time>2021-04-15T12:27:31Z</time>
      </trkpt>
      <trkpt lat="46.73584" lon="5.77837">
        <ele>579.1</ele>
        <time>2021-04-15T12:27:36Z</time>
      </trkpt>
      <trkpt lat="46.73588" lon="5.77835">
        <ele>579.4</ele>
        <time>2021-04-15T12:27:41Z</time>
      </trkpt>
      <trkpt lat="46.73593" lon="5.77833">
        <ele>579.8</ele>
        <time>2021-04-15T12:27:48Z</time>
      </trkpt>
      <trkpt lat="46.73598" lon="5.77834">
        <ele>580.4</ele>
        <time>2021-04-15T12:27:56Z</time>
      </trkpt>
      <trkpt lat="46.73603" lon="5.77834">
        <ele>580.8</ele>
        <time>2021-04-15T12:28:02Z</time>
      </trkpt>
      <trkpt lat="46.73608" lon="5.77834">
        <ele>581.2</ele>
        <time>2021-04-15T12:28:08Z</time>
      </trkpt>
      <trkpt lat="46.73613" lon="5.77835">
        <ele>581.6</ele>
        <time>2021-04-15T12:28:15Z</time>
      </trkpt>
      <trkpt lat="46.73617" lon="5.77834">
        <ele>582.2</ele>
        <time>2021-04-15T12:28:21Z</time>
      </trkpt>
      <trkpt lat="46.73622" lon="5.77833">
        <ele>583</ele>
        <time>2021-04-15T12:28:29Z</time>
      </trkpt>
      <trkpt lat="46.73627" lon="5.77832">
        <ele>583.8</ele>
        <time>2021-04-15T12:28:36Z</time>
      </trkpt>
      <trkpt lat="46.73632" lon="5.7783">
        <ele>584</ele>
        <time>2021-04-15T12:28:41Z</time>
      </trkpt>
      <trkpt lat="46.73636" lon="5.77827">
        <ele>584</ele>
        <time>2021-04-15T12:28:46Z</time>
      </trkpt>
      <trkpt lat="46.73641" lon="5.77825">
        <ele>583.9</ele>
        <time>2021-04-15T12:28:51Z</time>
      </trkpt>
      <trkpt lat="46.73644" lon="5.77821">
        <ele>583.4</ele>
        <time>2021-04-15T12:29:01Z</time>
      </trkpt>
      <trkpt lat="46.73649" lon="5.77821">
        <ele>583.4</ele>
        <time>2021-04-15T12:29:50Z</time>
      </trkpt>
      <trkpt lat="46.73652" lon="5.77826">
        <ele>583.3</ele>
        <time>2021-04-15T12:30:09Z</time>
      </trkpt>
      <trkpt lat="46.73658" lon="5.77826">
        <ele>583.8</ele>
        <time>2021-04-15T12:30:15Z</time>
      </trkpt>
      <trkpt lat="46.73663" lon="5.77827">
        <ele>585.2</ele>
        <time>2021-04-15T12:30:21Z</time>
      </trkpt>
      <trkpt lat="46.73668" lon="5.77826">
        <ele>586.2</ele>
        <time>2021-04-15T12:30:27Z</time>
      </trkpt>
      <trkpt lat="46.73672" lon="5.77828">
        <ele>587.6</ele>
        <time>2021-04-15T12:30:36Z</time>
      </trkpt>
      <trkpt lat="46.73677" lon="5.77827">
        <ele>590</ele>
        <time>2021-04-15T12:30:45Z</time>
      </trkpt>
      <trkpt lat="46.73682" lon="5.77825">
        <ele>591.8</ele>
        <time>2021-04-15T12:30:55Z</time>
      </trkpt>
      <trkpt lat="46.73687" lon="5.77824">
        <ele>592.8</ele>
        <time>2021-04-15T12:31:03Z</time>
      </trkpt>
      <trkpt lat="46.73692" lon="5.77824">
        <ele>593.4</ele>
        <time>2021-04-15T12:31:08Z</time>
      </trkpt>
      <trkpt lat="46.73696" lon="5.77824">
        <ele>593.7</ele>
        <time>2021-04-15T12:31:12Z</time>
      </trkpt>
      <trkpt lat="46.73701" lon="5.77823">
        <ele>593.9</ele>
        <time>2021-04-15T12:31:16Z</time>
      </trkpt>
      <trkpt lat="46.73706" lon="5.77822">
        <ele>594.1</ele>
        <time>2021-04-15T12:31:21Z</time>
      </trkpt>
      <trkpt lat="46.73711" lon="5.77821">
        <ele>594.1</ele>
        <time>2021-04-15T12:31:26Z</time>
      </trkpt>
      <trkpt lat="46.73717" lon="5.77822">
        <ele>594.1</ele>
        <time>2021-04-15T12:31:34Z</time>
      </trkpt>
      <trkpt lat="46.73728" lon="5.77813">
        <ele>595.2</ele>
        <time>2021-04-15T12:31:38Z</time>
      </trkpt>
      <trkpt lat="46.73732" lon="5.77812">
        <ele>595.7</ele>
        <time>2021-04-15T12:31:43Z</time>
      </trkpt>
      <trkpt lat="46.73737" lon="5.77815">
        <ele>595.7</ele>
        <time>2021-04-15T12:31:51Z</time>
      </trkpt>
      <trkpt lat="46.73744" lon="5.77813">
        <ele>595.8</ele>
        <time>2021-04-15T12:31:57Z</time>
      </trkpt>
      <trkpt lat="46.73751" lon="5.7781">
        <ele>597.2</ele>
        <time>2021-04-15T12:32:01Z</time>
      </trkpt>
      <trkpt lat="46.73755" lon="5.77809">
        <ele>598.1</ele>
        <time>2021-04-15T12:32:05Z</time>
      </trkpt>
      <trkpt lat="46.7376" lon="5.77809">
        <ele>598.8</ele>
        <time>2021-04-15T12:32:10Z</time>
      </trkpt>
      <trkpt lat="46.73765" lon="5.77809">
        <ele>599.2</ele>
        <time>2021-04-15T12:32:16Z</time>
      </trkpt>
      <trkpt lat="46.73769" lon="5.77808">
        <ele>599.5</ele>
        <time>2021-04-15T12:32:21Z</time>
      </trkpt>
      <trkpt lat="46.73774" lon="5.77809">
        <ele>599.9</ele>
        <time>2021-04-15T12:32:28Z</time>
      </trkpt>
      <trkpt lat="46.73779" lon="5.77809">
        <ele>600.5</ele>
        <time>2021-04-15T12:32:35Z</time>
      </trkpt>
      <trkpt lat="46.73784" lon="5.77808">
        <ele>601.1</ele>
        <time>2021-04-15T12:32:40Z</time>
      </trkpt>
      <trkpt lat="46.73789" lon="5.77809">
        <ele>601.7</ele>
        <time>2021-04-15T12:32:46Z</time>
      </trkpt>
      <trkpt lat="46.73794" lon="5.7781">
        <ele>602.4</ele>
        <time>2021-04-15T12:32:52Z</time>
      </trkpt>
      <trkpt lat="46.73799" lon="5.7781">
        <ele>603</ele>
        <time>2021-04-15T12:32:58Z</time>
      </trkpt>
      <trkpt lat="46.73804" lon="5.77807">
        <ele>603.5</ele>
        <time>2021-04-15T12:33:03Z</time>
      </trkpt>
      <trkpt lat="46.73808" lon="5.77805">
        <ele>603.7</ele>
        <time>2021-04-15T12:33:07Z</time>
      </trkpt>
      <trkpt lat="46.73814" lon="5.77805">
        <ele>604.1</ele>
        <time>2021-04-15T12:33:12Z</time>
      </trkpt>
      <trkpt lat="46.73819" lon="5.77805">
        <ele>604.1</ele>
        <time>2021-04-15T12:33:17Z</time>
      </trkpt>
      <trkpt lat="46.73824" lon="5.77804">
        <ele>603.7</ele>
        <time>2021-04-15T12:33:36Z</time>
      </trkpt>
      <trkpt lat="46.73829" lon="5.77804">
        <ele>603.8</ele>
        <time>2021-04-15T12:33:42Z</time>
      </trkpt>
      <trkpt lat="46.73833" lon="5.77806">
        <ele>604.2</ele>
        <time>2021-04-15T12:33:49Z</time>
      </trkpt>
      <trkpt lat="46.73838" lon="5.77807">
        <ele>604.6</ele>
        <time>2021-04-15T12:33:54Z</time>
      </trkpt>
      <trkpt lat="46.73843" lon="5.77808">
        <ele>605</ele>
        <time>2021-04-15T12:33:59Z</time>
      </trkpt>
      <trkpt lat="46.73848" lon="5.77808">
        <ele>605.6</ele>
        <time>2021-04-15T12:34:03Z</time>
      </trkpt>
      <trkpt lat="46.73853" lon="5.77808">
        <ele>606</ele>
        <time>2021-04-15T12:34:07Z</time>
      </trkpt>
      <trkpt lat="46.73857" lon="5.77807">
        <ele>606.4</ele>
        <time>2021-04-15T12:34:11Z</time>
      </trkpt>
      <trkpt lat="46.73862" lon="5.77807">
        <ele>606.7</ele>
        <time>2021-04-15T12:34:15Z</time>
      </trkpt>
      <trkpt lat="46.73867" lon="5.77808">
        <ele>607</ele>
        <time>2021-04-15T12:34:19Z</time>
      </trkpt>
      <trkpt lat="46.73873" lon="5.77808">
        <ele>607.2</ele>
        <time>2021-04-15T12:34:24Z</time>
      </trkpt>
      <trkpt lat="46.73878" lon="5.77808">
        <ele>607.9</ele>
        <time>2021-04-15T12:34:31Z</time>
      </trkpt>
      <trkpt lat="46.73883" lon="5.77807">
        <ele>608.8</ele>
        <time>2021-04-15T12:34:39Z</time>
      </trkpt>
      <trkpt lat="46.73887" lon="5.77807">
        <ele>609.6</ele>
        <time>2021-04-15T12:34:45Z</time>
      </trkpt>
      <trkpt lat="46.73892" lon="5.77806">
        <ele>610.2</ele>
        <time>2021-04-15T12:34:50Z</time>
      </trkpt>
      <trkpt lat="46.73897" lon="5.77805">
        <ele>610.9</ele>
        <time>2021-04-15T12:34:55Z</time>
      </trkpt>
      <trkpt lat="46.73901" lon="5.77801">
        <ele>611.6</ele>
        <time>2021-04-15T12:34:59Z</time>
      </trkpt>
      <trkpt lat="46.73907" lon="5.77799">
        <ele>612.3</ele>
        <time>2021-04-15T12:35:04Z</time>
      </trkpt>
      <trkpt lat="46.73911" lon="5.77797">
        <ele>613</ele>
        <time>2021-04-15T12:35:09Z</time>
      </trkpt>
      <trkpt lat="46.73916" lon="5.77795">
        <ele>613.5</ele>
        <time>2021-04-15T12:35:14Z</time>
      </trkpt>
      <trkpt lat="46.73921" lon="5.77794">
        <ele>613.9</ele>
        <time>2021-04-15T12:35:19Z</time>
      </trkpt>
      <trkpt lat="46.73925" lon="5.7779">
        <ele>614</ele>
        <time>2021-04-15T12:35:24Z</time>
      </trkpt>
      <trkpt lat="46.73927" lon="5.77784">
        <ele>614.3</ele>
        <time>2021-04-15T12:35:34Z</time>
      </trkpt>
      <trkpt lat="46.73931" lon="5.77787">
        <ele>613.5</ele>
        <time>2021-04-15T12:36:39Z</time>
      </trkpt>
      <trkpt lat="46.73932" lon="5.7778">
        <ele>614.5</ele>
        <time>2021-04-15T12:38:18Z</time>
      </trkpt>
      <trkpt lat="46.73935" lon="5.77775">
        <ele>614</ele>
        <time>2021-04-15T12:39:24Z</time>
      </trkpt>
      <trkpt lat="46.73939" lon="5.77778">
        <ele>611.6</ele>
        <time>2021-04-15T12:39:39Z</time>
      </trkpt>
      <trkpt lat="46.73944" lon="5.77778">
        <ele>611.7</ele>
        <time>2021-04-15T12:39:47Z</time>
      </trkpt>
      <trkpt lat="46.73949" lon="5.77775">
        <ele>612.2</ele>
        <time>2021-04-15T12:39:53Z</time>
      </trkpt>
      <trkpt lat="46.73953" lon="5.77771">
        <ele>614</ele>
        <time>2021-04-15T12:39:59Z</time>
      </trkpt>
      <trkpt lat="46.73957" lon="5.7777">
        <ele>618.8</ele>
        <time>2021-04-15T12:40:06Z</time>
      </trkpt>
      <trkpt lat="46.73962" lon="5.77768">
        <ele>621.1</ele>
        <time>2021-04-15T12:40:11Z</time>
      </trkpt>
      <trkpt lat="46.73967" lon="5.77767">
        <ele>623.5</ele>
        <time>2021-04-15T12:40:19Z</time>
      </trkpt>
      <trkpt lat="46.73971" lon="5.77765">
        <ele>624.4</ele>
        <time>2021-04-15T12:40:25Z</time>
      </trkpt>
      <trkpt lat="46.73976" lon="5.77762">
        <ele>626.7</ele>
        <time>2021-04-15T12:40:31Z</time>
      </trkpt>
      <trkpt lat="46.73982" lon="5.77762">
        <ele>628.4</ele>
        <time>2021-04-15T12:40:36Z</time>
      </trkpt>
      <trkpt lat="46.73986" lon="5.77762">
        <ele>629.3</ele>
        <time>2021-04-15T12:40:40Z</time>
      </trkpt>
      <trkpt lat="46.73991" lon="5.77761">
        <ele>629.7</ele>
        <time>2021-04-15T12:40:44Z</time>
      </trkpt>
      <trkpt lat="46.73996" lon="5.7776">
        <ele>629.7</ele>
        <time>2021-04-15T12:40:49Z</time>
      </trkpt>
      <trkpt lat="46.74001" lon="5.77758">
        <ele>629.9</ele>
        <time>2021-04-15T12:40:55Z</time>
      </trkpt>
      <trkpt lat="46.74006" lon="5.77755">
        <ele>630.3</ele>
        <time>2021-04-15T12:41:01Z</time>
      </trkpt>
      <trkpt lat="46.7401" lon="5.77752">
        <ele>631.2</ele>
        <time>2021-04-15T12:41:08Z</time>
      </trkpt>
      <trkpt lat="46.74014" lon="5.77747">
        <ele>631.5</ele>
        <time>2021-04-15T12:41:14Z</time>
      </trkpt>
      <trkpt lat="46.74017" lon="5.77742">
        <ele>631.9</ele>
        <time>2021-04-15T12:41:19Z</time>
      </trkpt>
      <trkpt lat="46.74022" lon="5.77738">
        <ele>632.4</ele>
        <time>2021-04-15T12:41:26Z</time>
      </trkpt>
      <trkpt lat="46.74027" lon="5.77737">
        <ele>632.7</ele>
        <time>2021-04-15T12:41:31Z</time>
      </trkpt>
      <trkpt lat="46.74032" lon="5.77736">
        <ele>632.9</ele>
        <time>2021-04-15T12:41:36Z</time>
      </trkpt>
      <trkpt lat="46.74037" lon="5.77738">
        <ele>633.2</ele>
        <time>2021-04-15T12:41:41Z</time>
      </trkpt>
      <trkpt lat="46.74041" lon="5.77739">
        <ele>633.6</ele>
        <time>2021-04-15T12:41:46Z</time>
      </trkpt>
      <trkpt lat="46.74046" lon="5.77739">
        <ele>634.2</ele>
        <time>2021-04-15T12:41:51Z</time>
      </trkpt>
      <trkpt lat="46.74051" lon="5.7774">
        <ele>634.2</ele>
        <time>2021-04-15T12:41:56Z</time>
      </trkpt>
      <trkpt lat="46.74056" lon="5.77742">
        <ele>634.5</ele>
        <time>2021-04-15T12:42:01Z</time>
      </trkpt>
      <trkpt lat="46.74061" lon="5.77743">
        <ele>635</ele>
        <time>2021-04-15T12:42:08Z</time>
      </trkpt>
      <trkpt lat="46.74065" lon="5.77739">
        <ele>634.3</ele>
        <time>2021-04-15T12:42:12Z</time>
      </trkpt>
      <trkpt lat="46.7407" lon="5.77737">
        <ele>633.8</ele>
        <time>2021-04-15T12:42:16Z</time>
      </trkpt>
      <trkpt lat="46.74075" lon="5.77737">
        <ele>633.7</ele>
        <time>2021-04-15T12:42:23Z</time>
      </trkpt>
      <trkpt lat="46.74079" lon="5.77735">
        <ele>634.5</ele>
        <time>2021-04-15T12:42:38Z</time>
      </trkpt>
      <trkpt lat="46.74084" lon="5.77737">
        <ele>634.4</ele>
        <time>2021-04-15T12:42:43Z</time>
      </trkpt>
      <trkpt lat="46.74088" lon="5.7774">
        <ele>634</ele>
        <time>2021-04-15T12:42:48Z</time>
      </trkpt>
      <trkpt lat="46.74091" lon="5.77745">
        <ele>633.5</ele>
        <time>2021-04-15T12:42:52Z</time>
      </trkpt>
      <trkpt lat="46.74095" lon="5.77751">
        <ele>632.7</ele>
        <time>2021-04-15T12:42:57Z</time>
      </trkpt>
      <trkpt lat="46.74104" lon="5.77745">
        <ele>631.8</ele>
        <time>2021-04-15T12:43:01Z</time>
      </trkpt>
      <trkpt lat="46.74109" lon="5.77746">
        <ele>630.6</ele>
        <time>2021-04-15T12:43:06Z</time>
      </trkpt>
      <trkpt lat="46.74111" lon="5.7774">
        <ele>629.4</ele>
        <time>2021-04-15T12:43:11Z</time>
      </trkpt>
      <trkpt lat="46.74116" lon="5.77739">
        <ele>628.4</ele>
        <time>2021-04-15T12:43:47Z</time>
      </trkpt>
      <trkpt lat="46.74118" lon="5.77732">
        <ele>628.5</ele>
        <time>2021-04-15T12:43:52Z</time>
      </trkpt>
      <trkpt lat="46.7412" lon="5.77726">
        <ele>628.4</ele>
        <time>2021-04-15T12:43:58Z</time>
      </trkpt>
      <trkpt lat="46.7412" lon="5.77719">
        <ele>628</ele>
        <time>2021-04-15T12:44:05Z</time>
      </trkpt>
      <trkpt lat="46.74123" lon="5.77713">
        <ele>627.5</ele>
        <time>2021-04-15T12:44:11Z</time>
      </trkpt>
      <trkpt lat="46.74127" lon="5.77708">
        <ele>626.8</ele>
        <time>2021-04-15T12:44:16Z</time>
      </trkpt>
      <trkpt lat="46.7413" lon="5.77703">
        <ele>626.5</ele>
        <time>2021-04-15T12:44:21Z</time>
      </trkpt>
      <trkpt lat="46.74131" lon="5.77691">
        <ele>631.6</ele>
        <time>2021-04-15T12:44:25Z</time>
      </trkpt>
      <trkpt lat="46.74135" lon="5.77685">
        <ele>637.1</ele>
        <time>2021-04-15T12:44:29Z</time>
      </trkpt>
      <trkpt lat="46.74139" lon="5.77679">
        <ele>643.1</ele>
        <time>2021-04-15T12:44:33Z</time>
      </trkpt>
      <trkpt lat="46.74143" lon="5.77674">
        <ele>648.3</ele>
        <time>2021-04-15T12:44:38Z</time>
      </trkpt>
      <trkpt lat="46.74146" lon="5.77668">
        <ele>653.8</ele>
        <time>2021-04-15T12:44:47Z</time>
      </trkpt>
      <trkpt lat="46.74151" lon="5.77666">
        <ele>656.2</ele>
        <time>2021-04-15T12:44:53Z</time>
      </trkpt>
      <trkpt lat="46.74156" lon="5.77663">
        <ele>657.3</ele>
        <time>2021-04-15T12:44:57Z</time>
      </trkpt>
      <trkpt lat="46.7416" lon="5.77661">
        <ele>658.5</ele>
        <time>2021-04-15T12:45:02Z</time>
      </trkpt>
      <trkpt lat="46.74162" lon="5.77655">
        <ele>659.5</ele>
        <time>2021-04-15T12:45:09Z</time>
      </trkpt>
      <trkpt lat="46.74157" lon="5.77657">
        <ele>655.5</ele>
        <time>2021-04-15T12:46:12Z</time>
      </trkpt>
      <trkpt lat="46.74162" lon="5.7766">
        <ele>651.4</ele>
        <time>2021-04-15T12:47:26Z</time>
      </trkpt>
      <trkpt lat="46.74156" lon="5.7766">
        <ele>651.3</ele>
        <time>2021-04-15T12:47:59Z</time>
      </trkpt>
      <trkpt lat="46.74151" lon="5.7766">
        <ele>650.9</ele>
        <time>2021-04-15T12:48:26Z</time>
      </trkpt>
      <trkpt lat="46.74147" lon="5.77665">
        <ele>651.4</ele>
        <time>2021-04-15T12:48:32Z</time>
      </trkpt>
      <trkpt lat="46.74144" lon="5.77671">
        <ele>650.6</ele>
        <time>2021-04-15T12:48:36Z</time>
      </trkpt>
      <trkpt lat="46.74141" lon="5.77677">
        <ele>649.9</ele>
        <time>2021-04-15T12:48:42Z</time>
      </trkpt>
      <trkpt lat="46.74138" lon="5.77682">
        <ele>649.4</ele>
        <time>2021-04-15T12:48:47Z</time>
      </trkpt>
      <trkpt lat="46.74134" lon="5.77688">
        <ele>649.1</ele>
        <time>2021-04-15T12:48:52Z</time>
      </trkpt>
      <trkpt lat="46.74131" lon="5.77693">
        <ele>648.2</ele>
        <time>2021-04-15T12:48:57Z</time>
      </trkpt>
      <trkpt lat="46.74128" lon="5.777">
        <ele>646.5</ele>
        <time>2021-04-15T12:49:02Z</time>
      </trkpt>
      <trkpt lat="46.74126" lon="5.77707">
        <ele>644.8</ele>
        <time>2021-04-15T12:49:06Z</time>
      </trkpt>
      <trkpt lat="46.74122" lon="5.77714">
        <ele>640.9</ele>
        <time>2021-04-15T12:49:10Z</time>
      </trkpt>
      <trkpt lat="46.74119" lon="5.7772">
        <ele>637.9</ele>
        <time>2021-04-15T12:49:15Z</time>
      </trkpt>
      <trkpt lat="46.74117" lon="5.77727">
        <ele>636.3</ele>
        <time>2021-04-15T12:49:20Z</time>
      </trkpt>
      <trkpt lat="46.74116" lon="5.77734">
        <ele>635.6</ele>
        <time>2021-04-15T12:49:26Z</time>
      </trkpt>
      <trkpt lat="46.74115" lon="5.77741">
        <ele>635.8</ele>
        <time>2021-04-15T12:49:31Z</time>
      </trkpt>
      <trkpt lat="46.74114" lon="5.77748">
        <ele>635.9</ele>
        <time>2021-04-15T12:49:36Z</time>
      </trkpt>
      <trkpt lat="46.74113" lon="5.77755">
        <ele>635.8</ele>
        <time>2021-04-15T12:49:41Z</time>
      </trkpt>
      <trkpt lat="46.74112" lon="5.77762">
        <ele>637.1</ele>
        <time>2021-04-15T12:49:49Z</time>
      </trkpt>
      <trkpt lat="46.74113" lon="5.77769">
        <ele>639.7</ele>
        <time>2021-04-15T12:49:59Z</time>
      </trkpt>
      <trkpt lat="46.74113" lon="5.77776">
        <ele>640</ele>
        <time>2021-04-15T12:50:08Z</time>
      </trkpt>
      <trkpt lat="46.74113" lon="5.77784">
        <ele>639.4</ele>
        <time>2021-04-15T12:50:13Z</time>
      </trkpt>
      <trkpt lat="46.74114" lon="5.7779">
        <ele>638.2</ele>
        <time>2021-04-15T12:50:18Z</time>
      </trkpt>
      <trkpt lat="46.74116" lon="5.77797">
        <ele>637</ele>
        <time>2021-04-15T12:50:23Z</time>
      </trkpt>
      <trkpt lat="46.74117" lon="5.77804">
        <ele>635.4</ele>
        <time>2021-04-15T12:50:30Z</time>
      </trkpt>
      <trkpt lat="46.7412" lon="5.7781">
        <ele>630.7</ele>
        <time>2021-04-15T12:50:37Z</time>
      </trkpt>
      <trkpt lat="46.74122" lon="5.77816">
        <ele>628.2</ele>
        <time>2021-04-15T12:50:42Z</time>
      </trkpt>
      <trkpt lat="46.74123" lon="5.77823">
        <ele>626</ele>
        <time>2021-04-15T12:50:47Z</time>
      </trkpt>
      <trkpt lat="46.74126" lon="5.7783">
        <ele>623.8</ele>
        <time>2021-04-15T12:50:52Z</time>
      </trkpt>
      <trkpt lat="46.74129" lon="5.77836">
        <ele>622</ele>
        <time>2021-04-15T12:50:57Z</time>
      </trkpt>
      <trkpt lat="46.74132" lon="5.77842">
        <ele>620.4</ele>
        <time>2021-04-15T12:51:02Z</time>
      </trkpt>
      <trkpt lat="46.74136" lon="5.77845">
        <ele>618.8</ele>
        <time>2021-04-15T12:51:07Z</time>
      </trkpt>
      <trkpt lat="46.74141" lon="5.77849">
        <ele>617.1</ele>
        <time>2021-04-15T12:51:13Z</time>
      </trkpt>
      <trkpt lat="46.74145" lon="5.77853">
        <ele>615.8</ele>
        <time>2021-04-15T12:51:18Z</time>
      </trkpt>
      <trkpt lat="46.74149" lon="5.77857">
        <ele>614.4</ele>
        <time>2021-04-15T12:51:23Z</time>
      </trkpt>
      <trkpt lat="46.74152" lon="5.77864">
        <ele>612.9</ele>
        <time>2021-04-15T12:51:28Z</time>
      </trkpt>
      <trkpt lat="46.74157" lon="5.77868">
        <ele>611</ele>
        <time>2021-04-15T12:51:34Z</time>
      </trkpt>
      <trkpt lat="46.7416" lon="5.77873">
        <ele>609.4</ele>
        <time>2021-04-15T12:51:39Z</time>
      </trkpt>
      <trkpt lat="46.74161" lon="5.77891">
        <ele>611.5</ele>
        <time>2021-04-15T12:51:43Z</time>
      </trkpt>
      <trkpt lat="46.74163" lon="5.77897">
        <ele>611.8</ele>
        <time>2021-04-15T12:51:48Z</time>
      </trkpt>
      <trkpt lat="46.74168" lon="5.77902">
        <ele>611</ele>
        <time>2021-04-15T12:51:55Z</time>
      </trkpt>
      <trkpt lat="46.74172" lon="5.77905">
        <ele>610.2</ele>
        <time>2021-04-15T12:52:00Z</time>
      </trkpt>
      <trkpt lat="46.74176" lon="5.7791">
        <ele>609.1</ele>
        <time>2021-04-15T12:52:06Z</time>
      </trkpt>
      <trkpt lat="46.74179" lon="5.77916">
        <ele>608</ele>
        <time>2021-04-15T12:52:11Z</time>
      </trkpt>
      <trkpt lat="46.74183" lon="5.77926">
        <ele>609.1</ele>
        <time>2021-04-15T12:52:15Z</time>
      </trkpt>
      <trkpt lat="46.74188" lon="5.77935">
        <ele>610.2</ele>
        <time>2021-04-15T12:52:19Z</time>
      </trkpt>
      <trkpt lat="46.7419" lon="5.7794">
        <ele>610.6</ele>
        <time>2021-04-15T12:52:24Z</time>
      </trkpt>
      <trkpt lat="46.74193" lon="5.77947">
        <ele>610.4</ele>
        <time>2021-04-15T12:52:29Z</time>
      </trkpt>
      <trkpt lat="46.74197" lon="5.77952">
        <ele>609.8</ele>
        <time>2021-04-15T12:52:34Z</time>
      </trkpt>
      <trkpt lat="46.74201" lon="5.77957">
        <ele>608.9</ele>
        <time>2021-04-15T12:52:39Z</time>
      </trkpt>
      <trkpt lat="46.74203" lon="5.77964">
        <ele>608.1</ele>
        <time>2021-04-15T12:52:43Z</time>
      </trkpt>
      <trkpt lat="46.74206" lon="5.77971">
        <ele>607.3</ele>
        <time>2021-04-15T12:52:47Z</time>
      </trkpt>
      <trkpt lat="46.74208" lon="5.77978">
        <ele>606.7</ele>
        <time>2021-04-15T12:52:51Z</time>
      </trkpt>
      <trkpt lat="46.7421" lon="5.77985">
        <ele>606.5</ele>
        <time>2021-04-15T12:52:55Z</time>
      </trkpt>
      <trkpt lat="46.74212" lon="5.77992">
        <ele>606.6</ele>
        <time>2021-04-15T12:52:59Z</time>
      </trkpt>
      <trkpt lat="46.74217" lon="5.77995">
        <ele>606.3</ele>
        <time>2021-04-15T12:53:04Z</time>
      </trkpt>
      <trkpt lat="46.74222" lon="5.77998">
        <ele>605.4</ele>
        <time>2021-04-15T12:53:10Z</time>
      </trkpt>
      <trkpt lat="46.74225" lon="5.78004">
        <ele>604.2</ele>
        <time>2021-04-15T12:53:16Z</time>
      </trkpt>
      <trkpt lat="46.74229" lon="5.78011">
        <ele>603.7</ele>
        <time>2021-04-15T12:53:20Z</time>
      </trkpt>
      <trkpt lat="46.74233" lon="5.78016">
        <ele>603.2</ele>
        <time>2021-04-15T12:53:24Z</time>
      </trkpt>
      <trkpt lat="46.74237" lon="5.78018">
        <ele>602</ele>
        <time>2021-04-15T12:53:31Z</time>
      </trkpt>
      <trkpt lat="46.74241" lon="5.78026">
        <ele>602.1</ele>
        <time>2021-04-15T12:53:35Z</time>
      </trkpt>
      <trkpt lat="46.74246" lon="5.78029">
        <ele>601.7</ele>
        <time>2021-04-15T12:53:40Z</time>
      </trkpt>
      <trkpt lat="46.74251" lon="5.78031">
        <ele>600.5</ele>
        <time>2021-04-15T12:53:46Z</time>
      </trkpt>
      <trkpt lat="46.74256" lon="5.78033">
        <ele>599.5</ele>
        <time>2021-04-15T12:53:51Z</time>
      </trkpt>
      <trkpt lat="46.74261" lon="5.78035">
        <ele>597.5</ele>
        <time>2021-04-15T12:53:58Z</time>
      </trkpt>
      <trkpt lat="46.74264" lon="5.78039">
        <ele>595.5</ele>
        <time>2021-04-15T12:54:04Z</time>
      </trkpt>
      <trkpt lat="46.74272" lon="5.78044">
        <ele>596.7</ele>
        <time>2021-04-15T12:54:08Z</time>
      </trkpt>
      <trkpt lat="46.74277" lon="5.78046">
        <ele>597.3</ele>
        <time>2021-04-15T12:54:14Z</time>
      </trkpt>
      <trkpt lat="46.74281" lon="5.78049">
        <ele>597.3</ele>
        <time>2021-04-15T12:54:20Z</time>
      </trkpt>
      <trkpt lat="46.74285" lon="5.78058">
        <ele>597.8</ele>
        <time>2021-04-15T12:54:24Z</time>
      </trkpt>
      <trkpt lat="46.74289" lon="5.78067">
        <ele>598.4</ele>
        <time>2021-04-15T12:54:28Z</time>
      </trkpt>
      <trkpt lat="46.74292" lon="5.78071">
        <ele>598.7</ele>
        <time>2021-04-15T12:54:33Z</time>
      </trkpt>
      <trkpt lat="46.74298" lon="5.78076">
        <ele>599.7</ele>
        <time>2021-04-15T12:54:37Z</time>
      </trkpt>
      <trkpt lat="46.74303" lon="5.78078">
        <ele>600.1</ele>
        <time>2021-04-15T12:54:41Z</time>
      </trkpt>
      <trkpt lat="46.74308" lon="5.7808">
        <ele>600.2</ele>
        <time>2021-04-15T12:54:46Z</time>
      </trkpt>
      <trkpt lat="46.74311" lon="5.78085">
        <ele>600</ele>
        <time>2021-04-15T12:54:51Z</time>
      </trkpt>
      <trkpt lat="46.74315" lon="5.78089">
        <ele>599.7</ele>
        <time>2021-04-15T12:54:57Z</time>
      </trkpt>
      <trkpt lat="46.7432" lon="5.78092">
        <ele>599.3</ele>
        <time>2021-04-15T12:55:02Z</time>
      </trkpt>
      <trkpt lat="46.74324" lon="5.78095">
        <ele>598.4</ele>
        <time>2021-04-15T12:55:09Z</time>
      </trkpt>
      <trkpt lat="46.74328" lon="5.78099">
        <ele>597.4</ele>
        <time>2021-04-15T12:55:16Z</time>
      </trkpt>
      <trkpt lat="46.74332" lon="5.78113">
        <ele>596.3</ele>
        <time>2021-04-15T12:55:22Z</time>
      </trkpt>
      <trkpt lat="46.74336" lon="5.78123">
        <ele>595.5</ele>
        <time>2021-04-15T12:55:26Z</time>
      </trkpt>
      <trkpt lat="46.74339" lon="5.78128">
        <ele>594.4</ele>
        <time>2021-04-15T12:55:31Z</time>
      </trkpt>
      <trkpt lat="46.74341" lon="5.78135">
        <ele>593.1</ele>
        <time>2021-04-15T12:55:39Z</time>
      </trkpt>
      <trkpt lat="46.74343" lon="5.78146">
        <ele>593.1</ele>
        <time>2021-04-15T12:55:43Z</time>
      </trkpt>
      <trkpt lat="46.74346" lon="5.78153">
        <ele>592.8</ele>
        <time>2021-04-15T12:55:47Z</time>
      </trkpt>
      <trkpt lat="46.74349" lon="5.78164">
        <ele>592.5</ele>
        <time>2021-04-15T12:55:53Z</time>
      </trkpt>
      <trkpt lat="46.74351" lon="5.78172">
        <ele>592.6</ele>
        <time>2021-04-15T12:55:57Z</time>
      </trkpt>
      <trkpt lat="46.74355" lon="5.78177">
        <ele>592.6</ele>
        <time>2021-04-15T12:56:02Z</time>
      </trkpt>
      <trkpt lat="46.74359" lon="5.78181">
        <ele>592.8</ele>
        <time>2021-04-15T12:56:06Z</time>
      </trkpt>
      <trkpt lat="46.74363" lon="5.78184">
        <ele>593.1</ele>
        <time>2021-04-15T12:56:10Z</time>
      </trkpt>
      <trkpt lat="46.74367" lon="5.78188">
        <ele>593.4</ele>
        <time>2021-04-15T12:56:16Z</time>
      </trkpt>
      <trkpt lat="46.74367" lon="5.78181">
        <ele>593.4</ele>
        <time>2021-04-15T12:56:30Z</time>
      </trkpt>
      <trkpt lat="46.7437" lon="5.78186">
        <ele>592.1</ele>
        <time>2021-04-15T12:56:46Z</time>
      </trkpt>
      <trkpt lat="46.74374" lon="5.78191">
        <ele>591.3</ele>
        <time>2021-04-15T12:56:51Z</time>
      </trkpt>
      <trkpt lat="46.74379" lon="5.78197">
        <ele>590.7</ele>
        <time>2021-04-15T12:56:56Z</time>
      </trkpt>
      <trkpt lat="46.74382" lon="5.78202">
        <ele>590.8</ele>
        <time>2021-04-15T12:57:00Z</time>
      </trkpt>
      <trkpt lat="46.74386" lon="5.78206">
        <ele>590.9</ele>
        <time>2021-04-15T12:57:04Z</time>
      </trkpt>
      <trkpt lat="46.74389" lon="5.78212">
        <ele>591</ele>
        <time>2021-04-15T12:57:08Z</time>
      </trkpt>
      <trkpt lat="46.74393" lon="5.78215">
        <ele>591.2</ele>
        <time>2021-04-15T12:57:13Z</time>
      </trkpt>
      <trkpt lat="46.74398" lon="5.78218">
        <ele>591.3</ele>
        <time>2021-04-15T12:57:18Z</time>
      </trkpt>
      <trkpt lat="46.74402" lon="5.78222">
        <ele>591.2</ele>
        <time>2021-04-15T12:57:22Z</time>
      </trkpt>
      <trkpt lat="46.74406" lon="5.78228">
        <ele>591.2</ele>
        <time>2021-04-15T12:57:27Z</time>
      </trkpt>
      <trkpt lat="46.7441" lon="5.78233">
        <ele>590.9</ele>
        <time>2021-04-15T12:57:33Z</time>
      </trkpt>
      <trkpt lat="46.74413" lon="5.78238">
        <ele>590.4</ele>
        <time>2021-04-15T12:57:38Z</time>
      </trkpt>
      <trkpt lat="46.74418" lon="5.78241">
        <ele>590.4</ele>
        <time>2021-04-15T12:57:42Z</time>
      </trkpt>
      <trkpt lat="46.74422" lon="5.78244">
        <ele>590.4</ele>
        <time>2021-04-15T12:57:46Z</time>
      </trkpt>
      <trkpt lat="46.74427" lon="5.78247">
        <ele>590.5</ele>
        <time>2021-04-15T12:57:50Z</time>
      </trkpt>
      <trkpt lat="46.74431" lon="5.78252">
        <ele>590.7</ele>
        <time>2021-04-15T12:57:54Z</time>
      </trkpt>
      <trkpt lat="46.74434" lon="5.78257">
        <ele>590.7</ele>
        <time>2021-04-15T12:57:58Z</time>
      </trkpt>
      <trkpt lat="46.74439" lon="5.78261">
        <ele>590.8</ele>
        <time>2021-04-15T12:58:02Z</time>
      </trkpt>
      <trkpt lat="46.74443" lon="5.78265">
        <ele>590.9</ele>
        <time>2021-04-15T12:58:06Z</time>
      </trkpt>
      <trkpt lat="46.74447" lon="5.78268">
        <ele>590.9</ele>
        <time>2021-04-15T12:58:10Z</time>
      </trkpt>
      <trkpt lat="46.74452" lon="5.78272">
        <ele>591.2</ele>
        <time>2021-04-15T12:58:14Z</time>
      </trkpt>
      <trkpt lat="46.74457" lon="5.78274">
        <ele>591.3</ele>
        <time>2021-04-15T12:58:18Z</time>
      </trkpt>
      <trkpt lat="46.74461" lon="5.78277">
        <ele>591.3</ele>
        <time>2021-04-15T12:58:22Z</time>
      </trkpt>
      <trkpt lat="46.74465" lon="5.7828">
        <ele>591.4</ele>
        <time>2021-04-15T12:58:26Z</time>
      </trkpt>
      <trkpt lat="46.7447" lon="5.78283">
        <ele>591.6</ele>
        <time>2021-04-15T12:58:31Z</time>
      </trkpt>
      <trkpt lat="46.74476" lon="5.78286">
        <ele>592.1</ele>
        <time>2021-04-15T12:58:36Z</time>
      </trkpt>
      <trkpt lat="46.7448" lon="5.78289">
        <ele>592.7</ele>
        <time>2021-04-15T12:58:41Z</time>
      </trkpt>
      <trkpt lat="46.74484" lon="5.78293">
        <ele>593.2</ele>
        <time>2021-04-15T12:58:45Z</time>
      </trkpt>
      <trkpt lat="46.74488" lon="5.78297">
        <ele>593.7</ele>
        <time>2021-04-15T12:58:49Z</time>
      </trkpt>
      <trkpt lat="46.74492" lon="5.78301">
        <ele>594.3</ele>
        <time>2021-04-15T12:58:54Z</time>
      </trkpt>
      <trkpt lat="46.74497" lon="5.78304">
        <ele>594.6</ele>
        <time>2021-04-15T12:58:59Z</time>
      </trkpt>
      <trkpt lat="46.74501" lon="5.78307">
        <ele>594.6</ele>
        <time>2021-04-15T12:59:04Z</time>
      </trkpt>
      <trkpt lat="46.74504" lon="5.78313">
        <ele>594.9</ele>
        <time>2021-04-15T12:59:08Z</time>
      </trkpt>
      <trkpt lat="46.74507" lon="5.78321">
        <ele>595.3</ele>
        <time>2021-04-15T12:59:12Z</time>
      </trkpt>
      <trkpt lat="46.74508" lon="5.78327">
        <ele>595.4</ele>
        <time>2021-04-15T12:59:16Z</time>
      </trkpt>
      <trkpt lat="46.74512" lon="5.78333">
        <ele>595.1</ele>
        <time>2021-04-15T12:59:21Z</time>
      </trkpt>
      <trkpt lat="46.74515" lon="5.7834">
        <ele>594.5</ele>
        <time>2021-04-15T12:59:26Z</time>
      </trkpt>
      <trkpt lat="46.74519" lon="5.78343">
        <ele>593.7</ele>
        <time>2021-04-15T12:59:31Z</time>
      </trkpt>
      <trkpt lat="46.74522" lon="5.78349">
        <ele>593.2</ele>
        <time>2021-04-15T12:59:36Z</time>
      </trkpt>
      <trkpt lat="46.74526" lon="5.78354">
        <ele>592.8</ele>
        <time>2021-04-15T12:59:40Z</time>
      </trkpt>
      <trkpt lat="46.7453" lon="5.78358">
        <ele>592.3</ele>
        <time>2021-04-15T12:59:44Z</time>
      </trkpt>
      <trkpt lat="46.74534" lon="5.78363">
        <ele>591.6</ele>
        <time>2021-04-15T12:59:49Z</time>
      </trkpt>
      <trkpt lat="46.74538" lon="5.78367">
        <ele>591.3</ele>
        <time>2021-04-15T12:59:53Z</time>
      </trkpt>
      <trkpt lat="46.74543" lon="5.7837">
        <ele>591.2</ele>
        <time>2021-04-15T12:59:57Z</time>
      </trkpt>
      <trkpt lat="46.74547" lon="5.78373">
        <ele>591</ele>
        <time>2021-04-15T13:00:01Z</time>
      </trkpt>
      <trkpt lat="46.74551" lon="5.78377">
        <ele>591</ele>
        <time>2021-04-15T13:00:05Z</time>
      </trkpt>
      <trkpt lat="46.74555" lon="5.7838">
        <ele>591.3</ele>
        <time>2021-04-15T13:00:09Z</time>
      </trkpt>
      <trkpt lat="46.7456" lon="5.78383">
        <ele>591</ele>
        <time>2021-04-15T13:00:14Z</time>
      </trkpt>
      <trkpt lat="46.74565" lon="5.78384">
        <ele>590.5</ele>
        <time>2021-04-15T13:00:18Z</time>
      </trkpt>
      <trkpt lat="46.74569" lon="5.78386">
        <ele>590</ele>
        <time>2021-04-15T13:00:22Z</time>
      </trkpt>
      <trkpt lat="46.74574" lon="5.78387">
        <ele>589.2</ele>
        <time>2021-04-15T13:00:26Z</time>
      </trkpt>
      <trkpt lat="46.74579" lon="5.78389">
        <ele>588</ele>
        <time>2021-04-15T13:00:31Z</time>
      </trkpt>
      <trkpt lat="46.74583" lon="5.78392">
        <ele>587.1</ele>
        <time>2021-04-15T13:00:36Z</time>
      </trkpt>
      <trkpt lat="46.74587" lon="5.78395">
        <ele>586.6</ele>
        <time>2021-04-15T13:00:41Z</time>
      </trkpt>
      <trkpt lat="46.74592" lon="5.78399">
        <ele>586.4</ele>
        <time>2021-04-15T13:00:46Z</time>
      </trkpt>
      <trkpt lat="46.74598" lon="5.78401">
        <ele>587.3</ele>
        <time>2021-04-15T13:00:50Z</time>
      </trkpt>
      <trkpt lat="46.74602" lon="5.78403">
        <ele>588.2</ele>
        <time>2021-04-15T13:00:54Z</time>
      </trkpt>
      <trkpt lat="46.74607" lon="5.78405">
        <ele>589.2</ele>
        <time>2021-04-15T13:00:58Z</time>
      </trkpt>
      <trkpt lat="46.74612" lon="5.78406">
        <ele>590.1</ele>
        <time>2021-04-15T13:01:02Z</time>
      </trkpt>
      <trkpt lat="46.74617" lon="5.78408">
        <ele>591</ele>
        <time>2021-04-15T13:01:06Z</time>
      </trkpt>
      <trkpt lat="46.74622" lon="5.7841">
        <ele>591.7</ele>
        <time>2021-04-15T13:01:10Z</time>
      </trkpt>
      <trkpt lat="46.74626" lon="5.78411">
        <ele>592</ele>
        <time>2021-04-15T13:01:14Z</time>
      </trkpt>
      <trkpt lat="46.74631" lon="5.78412">
        <ele>592.2</ele>
        <time>2021-04-15T13:01:18Z</time>
      </trkpt>
      <trkpt lat="46.74636" lon="5.78413">
        <ele>592.5</ele>
        <time>2021-04-15T13:01:23Z</time>
      </trkpt>
      <trkpt lat="46.74642" lon="5.78413">
        <ele>592.6</ele>
        <time>2021-04-15T13:01:28Z</time>
      </trkpt>
      <trkpt lat="46.74646" lon="5.78419">
        <ele>594.3</ele>
        <time>2021-04-15T13:01:32Z</time>
      </trkpt>
      <trkpt lat="46.7465" lon="5.78422">
        <ele>595.7</ele>
        <time>2021-04-15T13:01:36Z</time>
      </trkpt>
      <trkpt lat="46.74654" lon="5.78424">
        <ele>596.6</ele>
        <time>2021-04-15T13:01:40Z</time>
      </trkpt>
      <trkpt lat="46.74659" lon="5.78426">
        <ele>597.5</ele>
        <time>2021-04-15T13:01:45Z</time>
      </trkpt>
      <trkpt lat="46.74664" lon="5.78428">
        <ele>598.1</ele>
        <time>2021-04-15T13:01:49Z</time>
      </trkpt>
      <trkpt lat="46.74668" lon="5.78432">
        <ele>598.4</ele>
        <time>2021-04-15T13:01:53Z</time>
      </trkpt>
      <trkpt lat="46.74673" lon="5.78433">
        <ele>598.3</ele>
        <time>2021-04-15T13:01:57Z</time>
      </trkpt>
      <trkpt lat="46.74678" lon="5.78435">
        <ele>598.1</ele>
        <time>2021-04-15T13:02:02Z</time>
      </trkpt>
      <trkpt lat="46.74683" lon="5.78437">
        <ele>597.7</ele>
        <time>2021-04-15T13:02:07Z</time>
      </trkpt>
      <trkpt lat="46.74687" lon="5.78441">
        <ele>596.6</ele>
        <time>2021-04-15T13:02:13Z</time>
      </trkpt>
      <trkpt lat="46.74692" lon="5.78444">
        <ele>595.9</ele>
        <time>2021-04-15T13:02:19Z</time>
      </trkpt>
      <trkpt lat="46.74696" lon="5.78449">
        <ele>595.7</ele>
        <time>2021-04-15T13:02:23Z</time>
      </trkpt>
      <trkpt lat="46.747" lon="5.78451">
        <ele>595.2</ele>
        <time>2021-04-15T13:02:28Z</time>
      </trkpt>
      <trkpt lat="46.74705" lon="5.78454">
        <ele>594.5</ele>
        <time>2021-04-15T13:02:33Z</time>
      </trkpt>
      <trkpt lat="46.74709" lon="5.78456">
        <ele>593.8</ele>
        <time>2021-04-15T13:02:37Z</time>
      </trkpt>
      <trkpt lat="46.74714" lon="5.78459">
        <ele>593.1</ele>
        <time>2021-04-15T13:02:42Z</time>
      </trkpt>
      <trkpt lat="46.74718" lon="5.78462">
        <ele>592.6</ele>
        <time>2021-04-15T13:02:47Z</time>
      </trkpt>
      <trkpt lat="46.74723" lon="5.78465">
        <ele>592.2</ele>
        <time>2021-04-15T13:02:52Z</time>
      </trkpt>
      <trkpt lat="46.74727" lon="5.78467">
        <ele>591.8</ele>
        <time>2021-04-15T13:02:56Z</time>
      </trkpt>
      <trkpt lat="46.74732" lon="5.78469">
        <ele>591.4</ele>
        <time>2021-04-15T13:03:01Z</time>
      </trkpt>
      <trkpt lat="46.74736" lon="5.78473">
        <ele>591.3</ele>
        <time>2021-04-15T13:03:05Z</time>
      </trkpt>
      <trkpt lat="46.74741" lon="5.78475">
        <ele>591</ele>
        <time>2021-04-15T13:03:11Z</time>
      </trkpt>
      <trkpt lat="46.74746" lon="5.78476">
        <ele>590.4</ele>
        <time>2021-04-15T13:03:17Z</time>
      </trkpt>
      <trkpt lat="46.74752" lon="5.78488">
        <ele>592.1</ele>
        <time>2021-04-15T13:03:21Z</time>
      </trkpt>
      <trkpt lat="46.74756" lon="5.78494">
        <ele>593.3</ele>
        <time>2021-04-15T13:03:25Z</time>
      </trkpt>
      <trkpt lat="46.74761" lon="5.78496">
        <ele>594.1</ele>
        <time>2021-04-15T13:03:30Z</time>
      </trkpt>
      <trkpt lat="46.74766" lon="5.78496">
        <ele>594.3</ele>
        <time>2021-04-15T13:03:34Z</time>
      </trkpt>
      <trkpt lat="46.74772" lon="5.78495">
        <ele>594.4</ele>
        <time>2021-04-15T13:03:38Z</time>
      </trkpt>
      <trkpt lat="46.74777" lon="5.78495">
        <ele>594.2</ele>
        <time>2021-04-15T13:03:43Z</time>
      </trkpt>
      <trkpt lat="46.74782" lon="5.78498">
        <ele>593.8</ele>
        <time>2021-04-15T13:03:48Z</time>
      </trkpt>
      <trkpt lat="46.74787" lon="5.78501">
        <ele>593.3</ele>
        <time>2021-04-15T13:03:53Z</time>
      </trkpt>
      <trkpt lat="46.74792" lon="5.78503">
        <ele>592.3</ele>
        <time>2021-04-15T13:03:59Z</time>
      </trkpt>
      <trkpt lat="46.74796" lon="5.78505">
        <ele>591.5</ele>
        <time>2021-04-15T13:04:04Z</time>
      </trkpt>
      <trkpt lat="46.74801" lon="5.78507">
        <ele>590.9</ele>
        <time>2021-04-15T13:04:10Z</time>
      </trkpt>
      <trkpt lat="46.74805" lon="5.78512">
        <ele>589.9</ele>
        <time>2021-04-15T13:04:19Z</time>
      </trkpt>
      <trkpt lat="46.7481" lon="5.78514">
        <ele>589.5</ele>
        <time>2021-04-15T13:04:26Z</time>
      </trkpt>
      <trkpt lat="46.74814" lon="5.78518">
        <ele>589.5</ele>
        <time>2021-04-15T13:04:32Z</time>
      </trkpt>
      <trkpt lat="46.74818" lon="5.78523">
        <ele>589.5</ele>
        <time>2021-04-15T13:04:37Z</time>
      </trkpt>
      <trkpt lat="46.74822" lon="5.78526">
        <ele>589.8</ele>
        <time>2021-04-15T13:04:41Z</time>
      </trkpt>
      <trkpt lat="46.74827" lon="5.78529">
        <ele>590.1</ele>
        <time>2021-04-15T13:04:46Z</time>
      </trkpt>
      <trkpt lat="46.74831" lon="5.78533">
        <ele>590.5</ele>
        <time>2021-04-15T13:04:51Z</time>
      </trkpt>
      <trkpt lat="46.74836" lon="5.78534">
        <ele>591</ele>
        <time>2021-04-15T13:04:55Z</time>
      </trkpt>
      <trkpt lat="46.74841" lon="5.78535">
        <ele>591.3</ele>
        <time>2021-04-15T13:04:59Z</time>
      </trkpt>
      <trkpt lat="46.74845" lon="5.78538">
        <ele>591.3</ele>
        <time>2021-04-15T13:05:03Z</time>
      </trkpt>
      <trkpt lat="46.74852" lon="5.78555">
        <ele>593.9</ele>
        <time>2021-04-15T13:05:07Z</time>
      </trkpt>
      <trkpt lat="46.74856" lon="5.7856">
        <ele>595.1</ele>
        <time>2021-04-15T13:05:12Z</time>
      </trkpt>
      <trkpt lat="46.74861" lon="5.78562">
        <ele>595.4</ele>
        <time>2021-04-15T13:05:17Z</time>
      </trkpt>
      <trkpt lat="46.74865" lon="5.78565">
        <ele>595.4</ele>
        <time>2021-04-15T13:05:21Z</time>
      </trkpt>
      <trkpt lat="46.74871" lon="5.78567">
        <ele>595.3</ele>
        <time>2021-04-15T13:05:25Z</time>
      </trkpt>
      <trkpt lat="46.74877" lon="5.78569">
        <ele>595.2</ele>
        <time>2021-04-15T13:05:29Z</time>
      </trkpt>
      <trkpt lat="46.74883" lon="5.7857">
        <ele>595.8</ele>
        <time>2021-04-15T13:05:33Z</time>
      </trkpt>
      <trkpt lat="46.74888" lon="5.7857">
        <ele>596</ele>
        <time>2021-04-15T13:05:37Z</time>
      </trkpt>
      <trkpt lat="46.74892" lon="5.78571">
        <ele>596.1</ele>
        <time>2021-04-15T13:05:43Z</time>
      </trkpt>
      <trkpt lat="46.74896" lon="5.78575">
        <ele>595.8</ele>
        <time>2021-04-15T13:05:50Z</time>
      </trkpt>
      <trkpt lat="46.74901" lon="5.78574">
        <ele>595.1</ele>
        <time>2021-04-15T13:05:58Z</time>
      </trkpt>
      <trkpt lat="46.74906" lon="5.78575">
        <ele>595.1</ele>
        <time>2021-04-15T13:06:03Z</time>
      </trkpt>
      <trkpt lat="46.74908" lon="5.78583">
        <ele>598.6</ele>
        <time>2021-04-15T13:06:07Z</time>
      </trkpt>
      <trkpt lat="46.7491" lon="5.78592">
        <ele>602.6</ele>
        <time>2021-04-15T13:06:11Z</time>
      </trkpt>
      <trkpt lat="46.74915" lon="5.78594">
        <ele>607.4</ele>
        <time>2021-04-15T13:06:18Z</time>
      </trkpt>
      <trkpt lat="46.7492" lon="5.78593">
        <ele>609.8</ele>
        <time>2021-04-15T13:06:24Z</time>
      </trkpt>
      <trkpt lat="46.74925" lon="5.78589">
        <ele>613.4</ele>
        <time>2021-04-15T13:06:57Z</time>
      </trkpt>
      <trkpt lat="46.74929" lon="5.78586">
        <ele>614.6</ele>
        <time>2021-04-15T13:07:03Z</time>
      </trkpt>
      <trkpt lat="46.74933" lon="5.78583">
        <ele>615.3</ele>
        <time>2021-04-15T13:07:07Z</time>
      </trkpt>
      <trkpt lat="46.74937" lon="5.78579">
        <ele>616.2</ele>
        <time>2021-04-15T13:07:11Z</time>
      </trkpt>
      <trkpt lat="46.7494" lon="5.78573">
        <ele>616.7</ele>
        <time>2021-04-15T13:07:16Z</time>
      </trkpt>
      <trkpt lat="46.74943" lon="5.78568">
        <ele>616.9</ele>
        <time>2021-04-15T13:07:25Z</time>
      </trkpt>
      <trkpt lat="46.74948" lon="5.78565">
        <ele>616.5</ele>
        <time>2021-04-15T13:07:31Z</time>
      </trkpt>
      <trkpt lat="46.74953" lon="5.78566">
        <ele>615.1</ele>
        <time>2021-04-15T13:07:36Z</time>
      </trkpt>
      <trkpt lat="46.74957" lon="5.78561">
        <ele>613.7</ele>
        <time>2021-04-15T13:07:42Z</time>
      </trkpt>
      <trkpt lat="46.74961" lon="5.78557">
        <ele>612.9</ele>
        <time>2021-04-15T13:07:48Z</time>
      </trkpt>
      <trkpt lat="46.74966" lon="5.78555">
        <ele>612</ele>
        <time>2021-04-15T13:07:53Z</time>
      </trkpt>
      <trkpt lat="46.7497" lon="5.78553">
        <ele>611.5</ele>
        <time>2021-04-15T13:08:02Z</time>
      </trkpt>
      <trkpt lat="46.74975" lon="5.78552">
        <ele>611.5</ele>
        <time>2021-04-15T13:08:08Z</time>
      </trkpt>
      <trkpt lat="46.7498" lon="5.78551">
        <ele>611.4</ele>
        <time>2021-04-15T13:08:14Z</time>
      </trkpt>
      <trkpt lat="46.74987" lon="5.78551">
        <ele>612.1</ele>
        <time>2021-04-15T13:09:02Z</time>
      </trkpt>
      <trkpt lat="46.74991" lon="5.78553">
        <ele>612.7</ele>
        <time>2021-04-15T13:09:08Z</time>
      </trkpt>
      <trkpt lat="46.74986" lon="5.78553">
        <ele>616.3</ele>
        <time>2021-04-15T13:09:22Z</time>
      </trkpt>
      <trkpt lat="46.7498" lon="5.78553">
        <ele>619.5</ele>
        <time>2021-04-15T13:09:26Z</time>
      </trkpt>
      <trkpt lat="46.74985" lon="5.78557">
        <ele>622.8</ele>
        <time>2021-04-15T13:09:37Z</time>
      </trkpt>
      <trkpt lat="46.7499" lon="5.78558">
        <ele>622.9</ele>
        <time>2021-04-15T13:09:43Z</time>
      </trkpt>
      <trkpt lat="46.74994" lon="5.78559">
        <ele>622.5</ele>
        <time>2021-04-15T13:09:51Z</time>
      </trkpt>
      <trkpt lat="46.74999" lon="5.78563">
        <ele>622.2</ele>
        <time>2021-04-15T13:09:58Z</time>
      </trkpt>
      <trkpt lat="46.75003" lon="5.78566">
        <ele>622.1</ele>
        <time>2021-04-15T13:10:04Z</time>
      </trkpt>
      <trkpt lat="46.75007" lon="5.78569">
        <ele>621.8</ele>
        <time>2021-04-15T13:10:10Z</time>
      </trkpt>
      <trkpt lat="46.75012" lon="5.7857">
        <ele>621.7</ele>
        <time>2021-04-15T13:10:15Z</time>
      </trkpt>
      <trkpt lat="46.75016" lon="5.78573">
        <ele>622</ele>
        <time>2021-04-15T13:10:19Z</time>
      </trkpt>
      <trkpt lat="46.7502" lon="5.78576">
        <ele>622.3</ele>
        <time>2021-04-15T13:10:23Z</time>
      </trkpt>
      <trkpt lat="46.75025" lon="5.78578">
        <ele>623</ele>
        <time>2021-04-15T13:10:28Z</time>
      </trkpt>
      <trkpt lat="46.75029" lon="5.78581">
        <ele>624.1</ele>
        <time>2021-04-15T13:10:35Z</time>
      </trkpt>
      <trkpt lat="46.75034" lon="5.78584">
        <ele>624.7</ele>
        <time>2021-04-15T13:10:44Z</time>
      </trkpt>
      <trkpt lat="46.75039" lon="5.78586">
        <ele>625.4</ele>
        <time>2021-04-15T13:10:51Z</time>
      </trkpt>
      <trkpt lat="46.75043" lon="5.78589">
        <ele>626.1</ele>
        <time>2021-04-15T13:10:56Z</time>
      </trkpt>
      <trkpt lat="46.75047" lon="5.78595">
        <ele>626.9</ele>
        <time>2021-04-15T13:11:03Z</time>
      </trkpt>
      <trkpt lat="46.75051" lon="5.786">
        <ele>627.3</ele>
        <time>2021-04-15T13:11:08Z</time>
      </trkpt>
      <trkpt lat="46.75054" lon="5.78605">
        <ele>627.7</ele>
        <time>2021-04-15T13:11:13Z</time>
      </trkpt>
      <trkpt lat="46.75059" lon="5.78608">
        <ele>628.3</ele>
        <time>2021-04-15T13:11:18Z</time>
      </trkpt>
      <trkpt lat="46.75064" lon="5.7861">
        <ele>628.3</ele>
        <time>2021-04-15T13:11:22Z</time>
      </trkpt>
      <trkpt lat="46.75068" lon="5.78613">
        <ele>628.1</ele>
        <time>2021-04-15T13:11:26Z</time>
      </trkpt>
      <trkpt lat="46.75072" lon="5.78615">
        <ele>627.6</ele>
        <time>2021-04-15T13:11:30Z</time>
      </trkpt>
      <trkpt lat="46.75076" lon="5.78618">
        <ele>627.2</ele>
        <time>2021-04-15T13:11:35Z</time>
      </trkpt>
      <trkpt lat="46.75079" lon="5.78624">
        <ele>626.7</ele>
        <time>2021-04-15T13:11:42Z</time>
      </trkpt>
      <trkpt lat="46.75082" lon="5.78631">
        <ele>626.8</ele>
        <time>2021-04-15T13:11:47Z</time>
      </trkpt>
      <trkpt lat="46.75085" lon="5.78636">
        <ele>627</ele>
        <time>2021-04-15T13:11:52Z</time>
      </trkpt>
      <trkpt lat="46.7509" lon="5.78639">
        <ele>627.6</ele>
        <time>2021-04-15T13:11:58Z</time>
      </trkpt>
      <trkpt lat="46.75095" lon="5.78642">
        <ele>627.8</ele>
        <time>2021-04-15T13:12:03Z</time>
      </trkpt>
      <trkpt lat="46.75099" lon="5.78645">
        <ele>627.7</ele>
        <time>2021-04-15T13:12:07Z</time>
      </trkpt>
      <trkpt lat="46.75104" lon="5.78647">
        <ele>627.5</ele>
        <time>2021-04-15T13:12:11Z</time>
      </trkpt>
      <trkpt lat="46.75108" lon="5.78649">
        <ele>627.3</ele>
        <time>2021-04-15T13:12:16Z</time>
      </trkpt>
      <trkpt lat="46.75113" lon="5.78651">
        <ele>627.4</ele>
        <time>2021-04-15T13:12:22Z</time>
      </trkpt>
      <trkpt lat="46.75117" lon="5.78655">
        <ele>627.8</ele>
        <time>2021-04-15T13:12:29Z</time>
      </trkpt>
      <trkpt lat="46.75121" lon="5.78659">
        <ele>628.2</ele>
        <time>2021-04-15T13:12:37Z</time>
      </trkpt>
      <trkpt lat="46.75126" lon="5.78662">
        <ele>628.1</ele>
        <time>2021-04-15T13:12:43Z</time>
      </trkpt>
      <trkpt lat="46.75131" lon="5.78663">
        <ele>628.1</ele>
        <time>2021-04-15T13:12:47Z</time>
      </trkpt>
      <trkpt lat="46.75137" lon="5.78662">
        <ele>627.8</ele>
        <time>2021-04-15T13:12:51Z</time>
      </trkpt>
      <trkpt lat="46.75143" lon="5.78661">
        <ele>627.3</ele>
        <time>2021-04-15T13:12:55Z</time>
      </trkpt>
      <trkpt lat="46.75149" lon="5.78664">
        <ele>627</ele>
        <time>2021-04-15T13:13:00Z</time>
      </trkpt>
      <trkpt lat="46.75154" lon="5.78666">
        <ele>626.7</ele>
        <time>2021-04-15T13:13:04Z</time>
      </trkpt>
      <trkpt lat="46.75159" lon="5.78669">
        <ele>626.5</ele>
        <time>2021-04-15T13:13:10Z</time>
      </trkpt>
      <trkpt lat="46.75164" lon="5.78672">
        <ele>626.4</ele>
        <time>2021-04-15T13:13:16Z</time>
      </trkpt>
      <trkpt lat="46.75169" lon="5.78672">
        <ele>626</ele>
        <time>2021-04-15T13:13:21Z</time>
      </trkpt>
      <trkpt lat="46.75173" lon="5.7867">
        <ele>625.6</ele>
        <time>2021-04-15T13:13:25Z</time>
      </trkpt>
      <trkpt lat="46.75178" lon="5.78674">
        <ele>625.3</ele>
        <time>2021-04-15T13:13:33Z</time>
      </trkpt>
      <trkpt lat="46.75181" lon="5.78679">
        <ele>625.2</ele>
        <time>2021-04-15T13:13:39Z</time>
      </trkpt>
      <trkpt lat="46.75184" lon="5.78685">
        <ele>625.1</ele>
        <time>2021-04-15T13:13:44Z</time>
      </trkpt>
      <trkpt lat="46.75188" lon="5.78688">
        <ele>624.8</ele>
        <time>2021-04-15T13:13:48Z</time>
      </trkpt>
      <trkpt lat="46.75193" lon="5.7869">
        <ele>624.4</ele>
        <time>2021-04-15T13:13:52Z</time>
      </trkpt>
      <trkpt lat="46.75197" lon="5.78693">
        <ele>624.1</ele>
        <time>2021-04-15T13:13:57Z</time>
      </trkpt>
      <trkpt lat="46.75202" lon="5.78696">
        <ele>624.1</ele>
        <time>2021-04-15T13:14:03Z</time>
      </trkpt>
      <trkpt lat="46.75206" lon="5.78699">
        <ele>623.8</ele>
        <time>2021-04-15T13:14:08Z</time>
      </trkpt>
      <trkpt lat="46.75212" lon="5.787">
        <ele>623</ele>
        <time>2021-04-15T13:14:13Z</time>
      </trkpt>
      <trkpt lat="46.75217" lon="5.78702">
        <ele>622.7</ele>
        <time>2021-04-15T13:14:17Z</time>
      </trkpt>
      <trkpt lat="46.75221" lon="5.78705">
        <ele>622.5</ele>
        <time>2021-04-15T13:14:21Z</time>
      </trkpt>
      <trkpt lat="46.75225" lon="5.78708">
        <ele>622.3</ele>
        <time>2021-04-15T13:14:26Z</time>
      </trkpt>
      <trkpt lat="46.7523" lon="5.78709">
        <ele>622</ele>
        <time>2021-04-15T13:14:31Z</time>
      </trkpt>
      <trkpt lat="46.75235" lon="5.7871">
        <ele>621.8</ele>
        <time>2021-04-15T13:14:36Z</time>
      </trkpt>
      <trkpt lat="46.75239" lon="5.78713">
        <ele>621.7</ele>
        <time>2021-04-15T13:14:41Z</time>
      </trkpt>
      <trkpt lat="46.75244" lon="5.78715">
        <ele>621.3</ele>
        <time>2021-04-15T13:14:46Z</time>
      </trkpt>
      <trkpt lat="46.75249" lon="5.78715">
        <ele>620.8</ele>
        <time>2021-04-15T13:14:51Z</time>
      </trkpt>
      <trkpt lat="46.75254" lon="5.78719">
        <ele>620.1</ele>
        <time>2021-04-15T13:14:57Z</time>
      </trkpt>
      <trkpt lat="46.75258" lon="5.78721">
        <ele>619.4</ele>
        <time>2021-04-15T13:15:02Z</time>
      </trkpt>
      <trkpt lat="46.75263" lon="5.78723">
        <ele>618.5</ele>
        <time>2021-04-15T13:15:08Z</time>
      </trkpt>
      <trkpt lat="46.75265" lon="5.78735">
        <ele>619.3</ele>
        <time>2021-04-15T13:15:12Z</time>
      </trkpt>
      <trkpt lat="46.75268" lon="5.78748">
        <ele>620.3</ele>
        <time>2021-04-15T13:15:16Z</time>
      </trkpt>
      <trkpt lat="46.7527" lon="5.78754">
        <ele>621</ele>
        <time>2021-04-15T13:15:20Z</time>
      </trkpt>
      <trkpt lat="46.75274" lon="5.78759">
        <ele>621.7</ele>
        <time>2021-04-15T13:15:25Z</time>
      </trkpt>
      <trkpt lat="46.75277" lon="5.78763">
        <ele>622.6</ele>
        <time>2021-04-15T13:15:31Z</time>
      </trkpt>
      <trkpt lat="46.75279" lon="5.7877">
        <ele>623.5</ele>
        <time>2021-04-15T13:15:38Z</time>
      </trkpt>
      <trkpt lat="46.75283" lon="5.78775">
        <ele>623.9</ele>
        <time>2021-04-15T13:15:45Z</time>
      </trkpt>
      <trkpt lat="46.75288" lon="5.78778">
        <ele>624.3</ele>
        <time>2021-04-15T13:15:51Z</time>
      </trkpt>
      <trkpt lat="46.75293" lon="5.78781">
        <ele>624.8</ele>
        <time>2021-04-15T13:15:56Z</time>
      </trkpt>
      <trkpt lat="46.75297" lon="5.78784">
        <ele>625.5</ele>
        <time>2021-04-15T13:16:01Z</time>
      </trkpt>
      <trkpt lat="46.75302" lon="5.78786">
        <ele>626.1</ele>
        <time>2021-04-15T13:16:06Z</time>
      </trkpt>
      <trkpt lat="46.75307" lon="5.78786">
        <ele>626.7</ele>
        <time>2021-04-15T13:16:12Z</time>
      </trkpt>
      <trkpt lat="46.75311" lon="5.78789">
        <ele>626.7</ele>
        <time>2021-04-15T13:16:18Z</time>
      </trkpt>
      <trkpt lat="46.75315" lon="5.78794">
        <ele>626.2</ele>
        <time>2021-04-15T13:16:23Z</time>
      </trkpt>
      <trkpt lat="46.75328" lon="5.78804">
        <ele>626.3</ele>
        <time>2021-04-15T13:16:27Z</time>
      </trkpt>
      <trkpt lat="46.75334" lon="5.78809">
        <ele>626.4</ele>
        <time>2021-04-15T13:16:31Z</time>
      </trkpt>
      <trkpt lat="46.75337" lon="5.78814">
        <ele>626.5</ele>
        <time>2021-04-15T13:16:37Z</time>
      </trkpt>
      <trkpt lat="46.7534" lon="5.7882">
        <ele>626.9</ele>
        <time>2021-04-15T13:16:42Z</time>
      </trkpt>
      <trkpt lat="46.75344" lon="5.78825">
        <ele>627.4</ele>
        <time>2021-04-15T13:16:48Z</time>
      </trkpt>
      <trkpt lat="46.75347" lon="5.7883">
        <ele>627.8</ele>
        <time>2021-04-15T13:16:52Z</time>
      </trkpt>
      <trkpt lat="46.7535" lon="5.78835">
        <ele>628.3</ele>
        <time>2021-04-15T13:16:57Z</time>
      </trkpt>
      <trkpt lat="46.75354" lon="5.78838">
        <ele>628.8</ele>
        <time>2021-04-15T13:17:03Z</time>
      </trkpt>
      <trkpt lat="46.75359" lon="5.78841">
        <ele>629.1</ele>
        <time>2021-04-15T13:17:08Z</time>
      </trkpt>
      <trkpt lat="46.75363" lon="5.78846">
        <ele>629.2</ele>
        <time>2021-04-15T13:17:14Z</time>
      </trkpt>
      <trkpt lat="46.75366" lon="5.7885">
        <ele>629.1</ele>
        <time>2021-04-15T13:17:20Z</time>
      </trkpt>
      <trkpt lat="46.75371" lon="5.78855">
        <ele>628.8</ele>
        <time>2021-04-15T13:17:25Z</time>
      </trkpt>
      <trkpt lat="46.75376" lon="5.78856">
        <ele>628.1</ele>
        <time>2021-04-15T13:17:30Z</time>
      </trkpt>
      <trkpt lat="46.7538" lon="5.78856">
        <ele>626.9</ele>
        <time>2021-04-15T13:17:36Z</time>
      </trkpt>
      <trkpt lat="46.75385" lon="5.78858">
        <ele>625.3</ele>
        <time>2021-04-15T13:17:45Z</time>
      </trkpt>
      <trkpt lat="46.7539" lon="5.7886">
        <ele>624.8</ele>
        <time>2021-04-15T13:17:50Z</time>
      </trkpt>
      <trkpt lat="46.75394" lon="5.78864">
        <ele>624.5</ele>
        <time>2021-04-15T13:17:55Z</time>
      </trkpt>
      <trkpt lat="46.75398" lon="5.7887">
        <ele>624.5</ele>
        <time>2021-04-15T13:18:02Z</time>
      </trkpt>
      <trkpt lat="46.75401" lon="5.78875">
        <ele>624.5</ele>
        <time>2021-04-15T13:18:06Z</time>
      </trkpt>
      <trkpt lat="46.75403" lon="5.78881">
        <ele>624.2</ele>
        <time>2021-04-15T13:18:11Z</time>
      </trkpt>
      <trkpt lat="46.75407" lon="5.78886">
        <ele>623.5</ele>
        <time>2021-04-15T13:18:16Z</time>
      </trkpt>
      <trkpt lat="46.75411" lon="5.78891">
        <ele>622.1</ele>
        <time>2021-04-15T13:18:22Z</time>
      </trkpt>
      <trkpt lat="46.75414" lon="5.78896">
        <ele>620.7</ele>
        <time>2021-04-15T13:18:27Z</time>
      </trkpt>
      <trkpt lat="46.75418" lon="5.789">
        <ele>619.6</ele>
        <time>2021-04-15T13:18:31Z</time>
      </trkpt>
      <trkpt lat="46.75422" lon="5.78905">
        <ele>618.6</ele>
        <time>2021-04-15T13:18:35Z</time>
      </trkpt>
      <trkpt lat="46.75425" lon="5.7891">
        <ele>616.9</ele>
        <time>2021-04-15T13:18:40Z</time>
      </trkpt>
      <trkpt lat="46.75429" lon="5.78914">
        <ele>614.4</ele>
        <time>2021-04-15T13:18:47Z</time>
      </trkpt>
      <trkpt lat="46.75432" lon="5.78919">
        <ele>612.4</ele>
        <time>2021-04-15T13:18:52Z</time>
      </trkpt>
      <trkpt lat="46.75436" lon="5.78924">
        <ele>610.4</ele>
        <time>2021-04-15T13:18:58Z</time>
      </trkpt>
      <trkpt lat="46.7544" lon="5.7893">
        <ele>609.1</ele>
        <time>2021-04-15T13:19:03Z</time>
      </trkpt>
      <trkpt lat="46.75445" lon="5.78933">
        <ele>608.2</ele>
        <time>2021-04-15T13:19:07Z</time>
      </trkpt>
      <trkpt lat="46.7545" lon="5.78934">
        <ele>607.6</ele>
        <time>2021-04-15T13:19:11Z</time>
      </trkpt>
      <trkpt lat="46.75454" lon="5.78936">
        <ele>607.3</ele>
        <time>2021-04-15T13:19:18Z</time>
      </trkpt>
      <trkpt lat="46.75452" lon="5.78943">
        <ele>607.7</ele>
        <time>2021-04-15T13:19:41Z</time>
      </trkpt>
      <trkpt lat="46.75449" lon="5.7895">
        <ele>608</ele>
        <time>2021-04-15T13:19:45Z</time>
      </trkpt>
      <trkpt lat="46.75444" lon="5.78952">
        <ele>609.5</ele>
        <time>2021-04-15T13:20:51Z</time>
      </trkpt>
      <trkpt lat="46.75449" lon="5.78949">
        <ele>611.6</ele>
        <time>2021-04-15T13:21:08Z</time>
      </trkpt>
      <trkpt lat="46.75454" lon="5.7895">
        <ele>612.1</ele>
        <time>2021-04-15T13:21:12Z</time>
      </trkpt>
      <trkpt lat="46.75465" lon="5.7895">
        <ele>618.2</ele>
        <time>2021-04-15T13:21:16Z</time>
      </trkpt>
      <trkpt lat="46.75468" lon="5.78958">
        <ele>626</ele>
        <time>2021-04-15T13:21:37Z</time>
      </trkpt>
      <trkpt lat="46.75465" lon="5.78952">
        <ele>624.7</ele>
        <time>2021-04-15T13:22:02Z</time>
      </trkpt>
      <trkpt lat="46.75471" lon="5.7895">
        <ele>623.7</ele>
        <time>2021-04-15T13:22:35Z</time>
      </trkpt>
      <trkpt lat="46.75475" lon="5.78952">
        <ele>624.9</ele>
        <time>2021-04-15T13:22:46Z</time>
      </trkpt>
      <trkpt lat="46.75475" lon="5.78959">
        <ele>625.4</ele>
        <time>2021-04-15T13:23:16Z</time>
      </trkpt>
      <trkpt lat="46.75475" lon="5.78966">
        <ele>625.9</ele>
        <time>2021-04-15T13:23:38Z</time>
      </trkpt>
      <trkpt lat="46.7548" lon="5.78967">
        <ele>625.8</ele>
        <time>2021-04-15T13:23:48Z</time>
      </trkpt>
      <trkpt lat="46.75485" lon="5.78967">
        <ele>626.1</ele>
        <time>2021-04-15T13:23:54Z</time>
      </trkpt>
      <trkpt lat="46.75489" lon="5.78971">
        <ele>626.3</ele>
        <time>2021-04-15T13:23:59Z</time>
      </trkpt>
      <trkpt lat="46.75494" lon="5.78975">
        <ele>625.9</ele>
        <time>2021-04-15T13:24:03Z</time>
      </trkpt>
      <trkpt lat="46.75499" lon="5.78979">
        <ele>624.9</ele>
        <time>2021-04-15T13:24:07Z</time>
      </trkpt>
      <trkpt lat="46.75506" lon="5.78982">
        <ele>623.1</ele>
        <time>2021-04-15T13:24:11Z</time>
      </trkpt>
      <trkpt lat="46.75511" lon="5.78986">
        <ele>621.2</ele>
        <time>2021-04-15T13:24:15Z</time>
      </trkpt>
      <trkpt lat="46.75516" lon="5.78989">
        <ele>619.9</ele>
        <time>2021-04-15T13:24:19Z</time>
      </trkpt>
      <trkpt lat="46.7552" lon="5.78992">
        <ele>619.7</ele>
        <time>2021-04-15T13:24:23Z</time>
      </trkpt>
      <trkpt lat="46.75524" lon="5.78998">
        <ele>619.9</ele>
        <time>2021-04-15T13:24:28Z</time>
      </trkpt>
      <trkpt lat="46.75528" lon="5.79004">
        <ele>620.2</ele>
        <time>2021-04-15T13:24:32Z</time>
      </trkpt>
      <trkpt lat="46.75532" lon="5.79008">
        <ele>620.8</ele>
        <time>2021-04-15T13:24:36Z</time>
      </trkpt>
      <trkpt lat="46.75536" lon="5.79012">
        <ele>621.7</ele>
        <time>2021-04-15T13:24:40Z</time>
      </trkpt>
      <trkpt lat="46.7554" lon="5.79015">
        <ele>622.8</ele>
        <time>2021-04-15T13:24:44Z</time>
      </trkpt>
      <trkpt lat="46.75545" lon="5.79017">
        <ele>623.3</ele>
        <time>2021-04-15T13:24:48Z</time>
      </trkpt>
      <trkpt lat="46.7555" lon="5.79021">
        <ele>623.9</ele>
        <time>2021-04-15T13:24:53Z</time>
      </trkpt>
      <trkpt lat="46.75554" lon="5.79023">
        <ele>625</ele>
        <time>2021-04-15T13:25:00Z</time>
      </trkpt>
      <trkpt lat="46.75558" lon="5.79029">
        <ele>625.4</ele>
        <time>2021-04-15T13:25:06Z</time>
      </trkpt>
      <trkpt lat="46.7556" lon="5.79037">
        <ele>625.8</ele>
        <time>2021-04-15T13:25:11Z</time>
      </trkpt>
      <trkpt lat="46.75562" lon="5.79042">
        <ele>626</ele>
        <time>2021-04-15T13:25:15Z</time>
      </trkpt>
      <trkpt lat="46.75567" lon="5.79048">
        <ele>626.5</ele>
        <time>2021-04-15T13:25:20Z</time>
      </trkpt>
      <trkpt lat="46.75571" lon="5.79052">
        <ele>626.6</ele>
        <time>2021-04-15T13:25:24Z</time>
      </trkpt>
      <trkpt lat="46.75574" lon="5.79057">
        <ele>626.8</ele>
        <time>2021-04-15T13:25:28Z</time>
      </trkpt>
      <trkpt lat="46.75578" lon="5.79062">
        <ele>627.3</ele>
        <time>2021-04-15T13:25:32Z</time>
      </trkpt>
      <trkpt lat="46.75581" lon="5.79067">
        <ele>627.7</ele>
        <time>2021-04-15T13:25:37Z</time>
      </trkpt>
      <trkpt lat="46.75584" lon="5.79073">
        <ele>628.1</ele>
        <time>2021-04-15T13:25:42Z</time>
      </trkpt>
      <trkpt lat="46.75588" lon="5.79078">
        <ele>628.3</ele>
        <time>2021-04-15T13:25:46Z</time>
      </trkpt>
      <trkpt lat="46.75592" lon="5.79083">
        <ele>628.2</ele>
        <time>2021-04-15T13:25:50Z</time>
      </trkpt>
      <trkpt lat="46.75597" lon="5.79087">
        <ele>627.6</ele>
        <time>2021-04-15T13:25:54Z</time>
      </trkpt>
      <trkpt lat="46.75601" lon="5.79092">
        <ele>627.1</ele>
        <time>2021-04-15T13:26:00Z</time>
      </trkpt>
      <trkpt lat="46.75603" lon="5.79098">
        <ele>627.1</ele>
        <time>2021-04-15T13:26:07Z</time>
      </trkpt>
      <trkpt lat="46.75606" lon="5.79104">
        <ele>627.3</ele>
        <time>2021-04-15T13:26:12Z</time>
      </trkpt>
      <trkpt lat="46.7561" lon="5.79108">
        <ele>627.5</ele>
        <time>2021-04-15T13:26:17Z</time>
      </trkpt>
      <trkpt lat="46.75615" lon="5.79111">
        <ele>627.8</ele>
        <time>2021-04-15T13:26:23Z</time>
      </trkpt>
      <trkpt lat="46.7562" lon="5.79113">
        <ele>627.9</ele>
        <time>2021-04-15T13:26:28Z</time>
      </trkpt>
      <trkpt lat="46.75625" lon="5.79116">
        <ele>628.1</ele>
        <time>2021-04-15T13:26:32Z</time>
      </trkpt>
      <trkpt lat="46.75629" lon="5.79119">
        <ele>628.1</ele>
        <time>2021-04-15T13:26:37Z</time>
      </trkpt>
      <trkpt lat="46.75632" lon="5.79126">
        <ele>628.1</ele>
        <time>2021-04-15T13:26:44Z</time>
      </trkpt>
      <trkpt lat="46.75636" lon="5.79129">
        <ele>627.9</ele>
        <time>2021-04-15T13:26:49Z</time>
      </trkpt>
      <trkpt lat="46.7564" lon="5.79132">
        <ele>627.2</ele>
        <time>2021-04-15T13:26:54Z</time>
      </trkpt>
      <trkpt lat="46.75649" lon="5.79131">
        <ele>627.2</ele>
        <time>2021-04-15T13:26:58Z</time>
      </trkpt>
      <trkpt lat="46.75655" lon="5.79132">
        <ele>627</ele>
        <time>2021-04-15T13:27:02Z</time>
      </trkpt>
      <trkpt lat="46.75659" lon="5.79134">
        <ele>626.1</ele>
        <time>2021-04-15T13:27:08Z</time>
      </trkpt>
      <trkpt lat="46.75664" lon="5.79135">
        <ele>625.4</ele>
        <time>2021-04-15T13:27:13Z</time>
      </trkpt>
      <trkpt lat="46.75671" lon="5.79135">
        <ele>625.3</ele>
        <time>2021-04-15T13:27:17Z</time>
      </trkpt>
      <trkpt lat="46.75676" lon="5.79135">
        <ele>624.8</ele>
        <time>2021-04-15T13:27:21Z</time>
      </trkpt>
      <trkpt lat="46.75682" lon="5.79133">
        <ele>624.8</ele>
        <time>2021-04-15T13:27:25Z</time>
      </trkpt>
      <trkpt lat="46.75687" lon="5.79133">
        <ele>624.6</ele>
        <time>2021-04-15T13:27:30Z</time>
      </trkpt>
      <trkpt lat="46.75692" lon="5.79135">
        <ele>624.5</ele>
        <time>2021-04-15T13:27:35Z</time>
      </trkpt>
      <trkpt lat="46.75697" lon="5.79139">
        <ele>624.5</ele>
        <time>2021-04-15T13:27:40Z</time>
      </trkpt>
      <trkpt lat="46.75701" lon="5.79142">
        <ele>624.3</ele>
        <time>2021-04-15T13:27:45Z</time>
      </trkpt>
      <trkpt lat="46.75706" lon="5.79145">
        <ele>624.4</ele>
        <time>2021-04-15T13:27:51Z</time>
      </trkpt>
      <trkpt lat="46.7571" lon="5.79149">
        <ele>624.6</ele>
        <time>2021-04-15T13:27:56Z</time>
      </trkpt>
      <trkpt lat="46.75714" lon="5.79153">
        <ele>624.4</ele>
        <time>2021-04-15T13:28:00Z</time>
      </trkpt>
      <trkpt lat="46.75718" lon="5.79157">
        <ele>623.8</ele>
        <time>2021-04-15T13:28:05Z</time>
      </trkpt>
      <trkpt lat="46.75724" lon="5.79159">
        <ele>623.8</ele>
        <time>2021-04-15T13:28:09Z</time>
      </trkpt>
      <trkpt lat="46.75729" lon="5.79162">
        <ele>623.7</ele>
        <time>2021-04-15T13:28:13Z</time>
      </trkpt>
      <trkpt lat="46.75733" lon="5.79165">
        <ele>623.6</ele>
        <time>2021-04-15T13:28:17Z</time>
      </trkpt>
      <trkpt lat="46.75739" lon="5.79166">
        <ele>622.9</ele>
        <time>2021-04-15T13:28:21Z</time>
      </trkpt>
      <trkpt lat="46.75745" lon="5.79168">
        <ele>622.4</ele>
        <time>2021-04-15T13:28:25Z</time>
      </trkpt>
      <trkpt lat="46.75749" lon="5.79173">
        <ele>621.9</ele>
        <time>2021-04-15T13:28:30Z</time>
      </trkpt>
      <trkpt lat="46.75754" lon="5.79176">
        <ele>621.7</ele>
        <time>2021-04-15T13:28:34Z</time>
      </trkpt>
      <trkpt lat="46.75759" lon="5.79179">
        <ele>621.6</ele>
        <time>2021-04-15T13:28:38Z</time>
      </trkpt>
      <trkpt lat="46.75763" lon="5.79183">
        <ele>620.9</ele>
        <time>2021-04-15T13:28:43Z</time>
      </trkpt>
      <trkpt lat="46.75767" lon="5.79187">
        <ele>619</ele>
        <time>2021-04-15T13:28:58Z</time>
      </trkpt>
      <trkpt lat="46.75772" lon="5.7919">
        <ele>618.2</ele>
        <time>2021-04-15T13:29:03Z</time>
      </trkpt>
      <trkpt lat="46.75777" lon="5.79194">
        <ele>617.4</ele>
        <time>2021-04-15T13:29:08Z</time>
      </trkpt>
      <trkpt lat="46.75781" lon="5.79199">
        <ele>616.9</ele>
        <time>2021-04-15T13:29:13Z</time>
      </trkpt>
      <trkpt lat="46.75785" lon="5.79205">
        <ele>616</ele>
        <time>2021-04-15T13:29:18Z</time>
      </trkpt>
      <trkpt lat="46.75788" lon="5.7921">
        <ele>614.9</ele>
        <time>2021-04-15T13:29:23Z</time>
      </trkpt>
      <trkpt lat="46.7579" lon="5.79218">
        <ele>613.9</ele>
        <time>2021-04-15T13:29:28Z</time>
      </trkpt>
      <trkpt lat="46.75792" lon="5.79224">
        <ele>613.3</ele>
        <time>2021-04-15T13:29:32Z</time>
      </trkpt>
      <trkpt lat="46.75795" lon="5.79228">
        <ele>612.7</ele>
        <time>2021-04-15T13:29:38Z</time>
      </trkpt>
      <trkpt lat="46.75798" lon="5.79234">
        <ele>611.8</ele>
        <time>2021-04-15T13:29:45Z</time>
      </trkpt>
      <trkpt lat="46.75802" lon="5.79238">
        <ele>610.9</ele>
        <time>2021-04-15T13:29:53Z</time>
      </trkpt>
      <trkpt lat="46.75806" lon="5.79243">
        <ele>610.2</ele>
        <time>2021-04-15T13:29:59Z</time>
      </trkpt>
      <trkpt lat="46.75808" lon="5.79249">
        <ele>610</ele>
        <time>2021-04-15T13:30:03Z</time>
      </trkpt>
      <trkpt lat="46.75811" lon="5.79256">
        <ele>609.7</ele>
        <time>2021-04-15T13:30:07Z</time>
      </trkpt>
      <trkpt lat="46.75815" lon="5.79261">
        <ele>608.9</ele>
        <time>2021-04-15T13:30:12Z</time>
      </trkpt>
      <trkpt lat="46.75818" lon="5.79266">
        <ele>607.6</ele>
        <time>2021-04-15T13:30:17Z</time>
      </trkpt>
      <trkpt lat="46.75822" lon="5.7927">
        <ele>606.5</ele>
        <time>2021-04-15T13:30:22Z</time>
      </trkpt>
      <trkpt lat="46.75824" lon="5.79278">
        <ele>606.1</ele>
        <time>2021-04-15T13:30:27Z</time>
      </trkpt>
      <trkpt lat="46.75826" lon="5.79284">
        <ele>606.1</ele>
        <time>2021-04-15T13:30:31Z</time>
      </trkpt>
      <trkpt lat="46.75828" lon="5.79291">
        <ele>606.4</ele>
        <time>2021-04-15T13:30:38Z</time>
      </trkpt>
      <trkpt lat="46.75831" lon="5.79298">
        <ele>606.5</ele>
        <time>2021-04-15T13:30:44Z</time>
      </trkpt>
      <trkpt lat="46.75834" lon="5.79305">
        <ele>606.6</ele>
        <time>2021-04-15T13:30:49Z</time>
      </trkpt>
      <trkpt lat="46.75836" lon="5.79311">
        <ele>606.8</ele>
        <time>2021-04-15T13:30:53Z</time>
      </trkpt>
      <trkpt lat="46.75839" lon="5.79318">
        <ele>607.2</ele>
        <time>2021-04-15T13:30:58Z</time>
      </trkpt>
      <trkpt lat="46.75842" lon="5.7933">
        <ele>607.6</ele>
        <time>2021-04-15T13:31:02Z</time>
      </trkpt>
      <trkpt lat="46.75846" lon="5.79339">
        <ele>607.9</ele>
        <time>2021-04-15T13:31:06Z</time>
      </trkpt>
      <trkpt lat="46.75849" lon="5.79344">
        <ele>608.2</ele>
        <time>2021-04-15T13:31:10Z</time>
      </trkpt>
      <trkpt lat="46.75853" lon="5.79347">
        <ele>608.1</ele>
        <time>2021-04-15T13:31:16Z</time>
      </trkpt>
      <trkpt lat="46.75857" lon="5.79352">
        <ele>608.2</ele>
        <time>2021-04-15T13:31:21Z</time>
      </trkpt>
      <trkpt lat="46.75862" lon="5.79357">
        <ele>608.3</ele>
        <time>2021-04-15T13:31:25Z</time>
      </trkpt>
      <trkpt lat="46.75868" lon="5.79363">
        <ele>609</ele>
        <time>2021-04-15T13:31:29Z</time>
      </trkpt>
      <trkpt lat="46.75872" lon="5.79368">
        <ele>609.4</ele>
        <time>2021-04-15T13:31:33Z</time>
      </trkpt>
      <trkpt lat="46.75873" lon="5.79374">
        <ele>610</ele>
        <time>2021-04-15T13:31:40Z</time>
      </trkpt>
      <trkpt lat="46.75873" lon="5.79381">
        <ele>610.3</ele>
        <time>2021-04-15T13:31:45Z</time>
      </trkpt>
      <trkpt lat="46.75873" lon="5.79388">
        <ele>610.8</ele>
        <time>2021-04-15T13:31:50Z</time>
      </trkpt>
      <trkpt lat="46.75871" lon="5.79394">
        <ele>610.7</ele>
        <time>2021-04-15T13:32:03Z</time>
      </trkpt>
      <trkpt lat="46.75866" lon="5.79398">
        <ele>607.7</ele>
        <time>2021-04-15T13:32:51Z</time>
      </trkpt>
      <trkpt lat="46.75865" lon="5.79404">
        <ele>609.3</ele>
        <time>2021-04-15T13:32:56Z</time>
      </trkpt>
      <trkpt lat="46.75863" lon="5.79411">
        <ele>612.1</ele>
        <time>2021-04-15T13:33:01Z</time>
      </trkpt>
      <trkpt lat="46.75859" lon="5.79416">
        <ele>615.4</ele>
        <time>2021-04-15T13:33:10Z</time>
      </trkpt>
      <trkpt lat="46.75854" lon="5.79416">
        <ele>616.7</ele>
        <time>2021-04-15T13:33:18Z</time>
      </trkpt>
      <trkpt lat="46.75852" lon="5.79422">
        <ele>617.7</ele>
        <time>2021-04-15T13:33:31Z</time>
      </trkpt>
      <trkpt lat="46.75856" lon="5.79427">
        <ele>619.8</ele>
        <time>2021-04-15T13:33:51Z</time>
      </trkpt>
      <trkpt lat="46.75858" lon="5.79433">
        <ele>620.2</ele>
        <time>2021-04-15T13:33:59Z</time>
      </trkpt>
      <trkpt lat="46.7586" lon="5.7944">
        <ele>620.3</ele>
        <time>2021-04-15T13:34:04Z</time>
      </trkpt>
      <trkpt lat="46.75859" lon="5.79447">
        <ele>620.4</ele>
        <time>2021-04-15T13:34:09Z</time>
      </trkpt>
      <trkpt lat="46.75859" lon="5.79454">
        <ele>617.2</ele>
        <time>2021-04-15T13:34:23Z</time>
      </trkpt>
      <trkpt lat="46.75858" lon="5.79461">
        <ele>615.9</ele>
        <time>2021-04-15T13:34:32Z</time>
      </trkpt>
      <trkpt lat="46.75858" lon="5.79468">
        <ele>616</ele>
        <time>2021-04-15T13:34:37Z</time>
      </trkpt>
      <trkpt lat="46.75859" lon="5.79475">
        <ele>616.2</ele>
        <time>2021-04-15T13:34:41Z</time>
      </trkpt>
      <trkpt lat="46.75861" lon="5.79482">
        <ele>616.5</ele>
        <time>2021-04-15T13:34:48Z</time>
      </trkpt>
      <trkpt lat="46.75862" lon="5.79489">
        <ele>617.4</ele>
        <time>2021-04-15T13:34:57Z</time>
      </trkpt>
      <trkpt lat="46.75862" lon="5.79496">
        <ele>617.9</ele>
        <time>2021-04-15T13:35:04Z</time>
      </trkpt>
      <trkpt lat="46.75862" lon="5.79503">
        <ele>618.2</ele>
        <time>2021-04-15T13:35:10Z</time>
      </trkpt>
      <trkpt lat="46.75864" lon="5.7951">
        <ele>618.3</ele>
        <time>2021-04-15T13:35:16Z</time>
      </trkpt>
      <trkpt lat="46.75867" lon="5.79517">
        <ele>618.1</ele>
        <time>2021-04-15T13:35:21Z</time>
      </trkpt>
      <trkpt lat="46.7587" lon="5.79523">
        <ele>617.7</ele>
        <time>2021-04-15T13:35:26Z</time>
      </trkpt>
      <trkpt lat="46.75873" lon="5.79528">
        <ele>616.7</ele>
        <time>2021-04-15T13:35:32Z</time>
      </trkpt>
      <trkpt lat="46.75877" lon="5.79531">
        <ele>603.3</ele>
        <time>2021-04-15T13:35:41Z</time>
      </trkpt>
      <trkpt lat="46.75881" lon="5.79535">
        <ele>599.1</ele>
        <time>2021-04-15T13:35:48Z</time>
      </trkpt>
      <trkpt lat="46.75885" lon="5.79539">
        <ele>595.9</ele>
        <time>2021-04-15T13:35:54Z</time>
      </trkpt>
      <trkpt lat="46.7589" lon="5.79543">
        <ele>593.2</ele>
        <time>2021-04-15T13:35:59Z</time>
      </trkpt>
      <trkpt lat="46.75893" lon="5.79547">
        <ele>589.5</ele>
        <time>2021-04-15T13:36:06Z</time>
      </trkpt>
      <trkpt lat="46.75896" lon="5.79554">
        <ele>586.8</ele>
        <time>2021-04-15T13:36:12Z</time>
      </trkpt>
      <trkpt lat="46.75898" lon="5.79566">
        <ele>585.7</ele>
        <time>2021-04-15T13:36:16Z</time>
      </trkpt>
      <trkpt lat="46.75899" lon="5.79572">
        <ele>584.6</ele>
        <time>2021-04-15T13:36:20Z</time>
      </trkpt>
      <trkpt lat="46.75903" lon="5.79577">
        <ele>582.5</ele>
        <time>2021-04-15T13:36:27Z</time>
      </trkpt>
      <trkpt lat="46.75906" lon="5.79581">
        <ele>580.9</ele>
        <time>2021-04-15T13:36:32Z</time>
      </trkpt>
      <trkpt lat="46.7591" lon="5.79585">
        <ele>579.5</ele>
        <time>2021-04-15T13:36:38Z</time>
      </trkpt>
      <trkpt lat="46.75912" lon="5.79592">
        <ele>578.9</ele>
        <time>2021-04-15T13:36:45Z</time>
      </trkpt>
      <trkpt lat="46.75917" lon="5.79596">
        <ele>579</ele>
        <time>2021-04-15T13:36:51Z</time>
      </trkpt>
      <trkpt lat="46.75922" lon="5.79597">
        <ele>579.2</ele>
        <time>2021-04-15T13:36:56Z</time>
      </trkpt>
      <trkpt lat="46.75927" lon="5.79598">
        <ele>579.4</ele>
        <time>2021-04-15T13:37:02Z</time>
      </trkpt>
      <trkpt lat="46.75931" lon="5.79599">
        <ele>579.8</ele>
        <time>2021-04-15T13:37:07Z</time>
      </trkpt>
      <trkpt lat="46.75938" lon="5.79605">
        <ele>582.9</ele>
        <time>2021-04-15T13:37:12Z</time>
      </trkpt>
      <trkpt lat="46.75943" lon="5.79613">
        <ele>586.1</ele>
        <time>2021-04-15T13:37:16Z</time>
      </trkpt>
      <trkpt lat="46.75946" lon="5.79618">
        <ele>588.5</ele>
        <time>2021-04-15T13:37:20Z</time>
      </trkpt>
      <trkpt lat="46.75949" lon="5.79624">
        <ele>591</ele>
        <time>2021-04-15T13:37:28Z</time>
      </trkpt>
      <trkpt lat="46.75954" lon="5.79627">
        <ele>591.8</ele>
        <time>2021-04-15T13:37:39Z</time>
      </trkpt>
      <trkpt lat="46.75958" lon="5.79631">
        <ele>591.9</ele>
        <time>2021-04-15T13:37:44Z</time>
      </trkpt>
      <trkpt lat="46.75965" lon="5.7964">
        <ele>593.2</ele>
        <time>2021-04-15T13:37:48Z</time>
      </trkpt>
      <trkpt lat="46.75968" lon="5.79645">
        <ele>594.3</ele>
        <time>2021-04-15T13:37:54Z</time>
      </trkpt>
      <trkpt lat="46.75973" lon="5.79647">
        <ele>595</ele>
        <time>2021-04-15T13:38:03Z</time>
      </trkpt>
      <trkpt lat="46.75977" lon="5.7965">
        <ele>595</ele>
        <time>2021-04-15T13:38:10Z</time>
      </trkpt>
      <trkpt lat="46.75981" lon="5.79654">
        <ele>595</ele>
        <time>2021-04-15T13:38:15Z</time>
      </trkpt>
      <trkpt lat="46.75985" lon="5.79658">
        <ele>594.8</ele>
        <time>2021-04-15T13:38:21Z</time>
      </trkpt>
      <trkpt lat="46.75989" lon="5.79664">
        <ele>594.5</ele>
        <time>2021-04-15T13:38:28Z</time>
      </trkpt>
      <trkpt lat="46.75993" lon="5.79669">
        <ele>594.1</ele>
        <time>2021-04-15T13:38:33Z</time>
      </trkpt>
      <trkpt lat="46.75997" lon="5.79673">
        <ele>593.8</ele>
        <time>2021-04-15T13:38:38Z</time>
      </trkpt>
      <trkpt lat="46.76001" lon="5.79677">
        <ele>593.2</ele>
        <time>2021-04-15T13:38:45Z</time>
      </trkpt>
      <trkpt lat="46.76003" lon="5.79682">
        <ele>592.9</ele>
        <time>2021-04-15T13:38:49Z</time>
      </trkpt>
      <trkpt lat="46.76005" lon="5.79688">
        <ele>592.4</ele>
        <time>2021-04-15T13:38:54Z</time>
      </trkpt>
      <trkpt lat="46.76009" lon="5.79693">
        <ele>591.9</ele>
        <time>2021-04-15T13:38:59Z</time>
      </trkpt>
      <trkpt lat="46.76013" lon="5.79698">
        <ele>591.4</ele>
        <time>2021-04-15T13:39:04Z</time>
      </trkpt>
      <trkpt lat="46.76016" lon="5.79703">
        <ele>590.9</ele>
        <time>2021-04-15T13:39:11Z</time>
      </trkpt>
      <trkpt lat="46.7602" lon="5.79707">
        <ele>590.1</ele>
        <time>2021-04-15T13:39:18Z</time>
      </trkpt>
      <trkpt lat="46.76024" lon="5.7971">
        <ele>589.6</ele>
        <time>2021-04-15T13:39:23Z</time>
      </trkpt>
      <trkpt lat="46.76028" lon="5.79716">
        <ele>589.1</ele>
        <time>2021-04-15T13:39:28Z</time>
      </trkpt>
      <trkpt lat="46.7603" lon="5.79722">
        <ele>588.5</ele>
        <time>2021-04-15T13:39:32Z</time>
      </trkpt>
      <trkpt lat="46.76032" lon="5.79728">
        <ele>587.8</ele>
        <time>2021-04-15T13:39:37Z</time>
      </trkpt>
      <trkpt lat="46.76035" lon="5.79734">
        <ele>586.8</ele>
        <time>2021-04-15T13:39:44Z</time>
      </trkpt>
      <trkpt lat="46.76037" lon="5.7974">
        <ele>585.9</ele>
        <time>2021-04-15T13:39:51Z</time>
      </trkpt>
      <trkpt lat="46.76041" lon="5.79743">
        <ele>585.4</ele>
        <time>2021-04-15T13:39:57Z</time>
      </trkpt>
      <trkpt lat="46.76045" lon="5.79746">
        <ele>584.7</ele>
        <time>2021-04-15T13:40:05Z</time>
      </trkpt>
      <trkpt lat="46.76046" lon="5.79753">
        <ele>584.2</ele>
        <time>2021-04-15T13:40:12Z</time>
      </trkpt>
      <trkpt lat="46.76047" lon="5.7976">
        <ele>583.7</ele>
        <time>2021-04-15T13:40:20Z</time>
      </trkpt>
      <trkpt lat="46.76049" lon="5.79766">
        <ele>583.5</ele>
        <time>2021-04-15T13:40:30Z</time>
      </trkpt>
      <trkpt lat="46.76052" lon="5.79771">
        <ele>583.3</ele>
        <time>2021-04-15T13:40:37Z</time>
      </trkpt>
      <trkpt lat="46.76056" lon="5.79776">
        <ele>582.9</ele>
        <time>2021-04-15T13:40:46Z</time>
      </trkpt>
      <trkpt lat="46.7606" lon="5.7978">
        <ele>582.7</ele>
        <time>2021-04-15T13:40:51Z</time>
      </trkpt>
      <trkpt lat="46.76064" lon="5.79786">
        <ele>582.2</ele>
        <time>2021-04-15T13:40:56Z</time>
      </trkpt>
      <trkpt lat="46.76068" lon="5.7979">
        <ele>581.4</ele>
        <time>2021-04-15T13:41:02Z</time>
      </trkpt>
      <trkpt lat="46.76071" lon="5.79796">
        <ele>580.4</ele>
        <time>2021-04-15T13:41:08Z</time>
      </trkpt>
      <trkpt lat="46.76072" lon="5.79804">
        <ele>579.7</ele>
        <time>2021-04-15T13:41:14Z</time>
      </trkpt>
      <trkpt lat="46.76074" lon="5.7981">
        <ele>578.7</ele>
        <time>2021-04-15T13:41:19Z</time>
      </trkpt>
      <trkpt lat="46.76077" lon="5.79815">
        <ele>577.6</ele>
        <time>2021-04-15T13:41:24Z</time>
      </trkpt>
      <trkpt lat="46.76081" lon="5.79821">
        <ele>575.9</ele>
        <time>2021-04-15T13:41:31Z</time>
      </trkpt>
      <trkpt lat="46.76084" lon="5.79825">
        <ele>574.4</ele>
        <time>2021-04-15T13:41:37Z</time>
      </trkpt>
      <trkpt lat="46.76086" lon="5.79831">
        <ele>572.5</ele>
        <time>2021-04-15T13:41:43Z</time>
      </trkpt>
      <trkpt lat="46.76087" lon="5.79838">
        <ele>570.4</ele>
        <time>2021-04-15T13:41:49Z</time>
      </trkpt>
      <trkpt lat="46.76088" lon="5.79844">
        <ele>570</ele>
        <time>2021-04-15T13:41:57Z</time>
      </trkpt>
      <trkpt lat="46.76088" lon="5.79852">
        <ele>571.2</ele>
        <time>2021-04-15T13:42:01Z</time>
      </trkpt>
      <trkpt lat="46.76089" lon="5.79859">
        <ele>572.5</ele>
        <time>2021-04-15T13:42:05Z</time>
      </trkpt>
      <trkpt lat="46.76092" lon="5.79864">
        <ele>574</ele>
        <time>2021-04-15T13:42:10Z</time>
      </trkpt>
      <trkpt lat="46.76094" lon="5.7987">
        <ele>575.7</ele>
        <time>2021-04-15T13:42:16Z</time>
      </trkpt>
      <trkpt lat="46.76098" lon="5.79875">
        <ele>576.3</ele>
        <time>2021-04-15T13:42:23Z</time>
      </trkpt>
      <trkpt lat="46.761" lon="5.79882">
        <ele>576.5</ele>
        <time>2021-04-15T13:42:29Z</time>
      </trkpt>
      <trkpt lat="46.76101" lon="5.79889">
        <ele>576.6</ele>
        <time>2021-04-15T13:42:34Z</time>
      </trkpt>
      <trkpt lat="46.76104" lon="5.79896">
        <ele>576.2</ele>
        <time>2021-04-15T13:42:41Z</time>
      </trkpt>
      <trkpt lat="46.76104" lon="5.79903">
        <ele>576.1</ele>
        <time>2021-04-15T13:42:47Z</time>
      </trkpt>
      <trkpt lat="46.76105" lon="5.7991">
        <ele>574.8</ele>
        <time>2021-04-15T13:42:59Z</time>
      </trkpt>
      <trkpt lat="46.76104" lon="5.79918">
        <ele>573.5</ele>
        <time>2021-04-15T13:43:08Z</time>
      </trkpt>
      <trkpt lat="46.76104" lon="5.79925">
        <ele>573.1</ele>
        <time>2021-04-15T13:43:14Z</time>
      </trkpt>
      <trkpt lat="46.76103" lon="5.79933">
        <ele>572.2</ele>
        <time>2021-04-15T13:43:18Z</time>
      </trkpt>
      <trkpt lat="46.76103" lon="5.79941">
        <ele>571.1</ele>
        <time>2021-04-15T13:43:23Z</time>
      </trkpt>
      <trkpt lat="46.76103" lon="5.79948">
        <ele>569.5</ele>
        <time>2021-04-15T13:43:27Z</time>
      </trkpt>
      <trkpt lat="46.76105" lon="5.79955">
        <ele>566.2</ele>
        <time>2021-04-15T13:43:34Z</time>
      </trkpt>
      <trkpt lat="46.76107" lon="5.79962">
        <ele>563.8</ele>
        <time>2021-04-15T13:43:41Z</time>
      </trkpt>
      <trkpt lat="46.76107" lon="5.79969">
        <ele>562.4</ele>
        <time>2021-04-15T13:43:46Z</time>
      </trkpt>
      <trkpt lat="46.76106" lon="5.79976">
        <ele>561.5</ele>
        <time>2021-04-15T13:43:51Z</time>
      </trkpt>
      <trkpt lat="46.76107" lon="5.79983">
        <ele>561</ele>
        <time>2021-04-15T13:43:56Z</time>
      </trkpt>
      <trkpt lat="46.76108" lon="5.79991">
        <ele>560.3</ele>
        <time>2021-04-15T13:44:00Z</time>
      </trkpt>
      <trkpt lat="46.76109" lon="5.79998">
        <ele>559.3</ele>
        <time>2021-04-15T13:44:04Z</time>
      </trkpt>
      <trkpt lat="46.76109" lon="5.80005">
        <ele>557.3</ele>
        <time>2021-04-15T13:44:10Z</time>
      </trkpt>
      <trkpt lat="46.7611" lon="5.80013">
        <ele>555.3</ele>
        <time>2021-04-15T13:44:16Z</time>
      </trkpt>
      <trkpt lat="46.76112" lon="5.80019">
        <ele>553.8</ele>
        <time>2021-04-15T13:44:22Z</time>
      </trkpt>
      <trkpt lat="46.76113" lon="5.80026">
        <ele>552.2</ele>
        <time>2021-04-15T13:44:29Z</time>
      </trkpt>
      <trkpt lat="46.76111" lon="5.80032">
        <ele>548.7</ele>
        <time>2021-04-15T13:44:59Z</time>
      </trkpt>
      <trkpt lat="46.76111" lon="5.80039">
        <ele>545.2</ele>
        <time>2021-04-15T13:45:09Z</time>
      </trkpt>
      <trkpt lat="46.76113" lon="5.80046">
        <ele>545.5</ele>
        <time>2021-04-15T13:45:14Z</time>
      </trkpt>
      <trkpt lat="46.76113" lon="5.80054">
        <ele>546.8</ele>
        <time>2021-04-15T13:45:20Z</time>
      </trkpt>
      <trkpt lat="46.76114" lon="5.8006">
        <ele>547.4</ele>
        <time>2021-04-15T13:45:26Z</time>
      </trkpt>
      <trkpt lat="46.76116" lon="5.80067">
        <ele>547.9</ele>
        <time>2021-04-15T13:45:32Z</time>
      </trkpt>
      <trkpt lat="46.76116" lon="5.80074">
        <ele>547.8</ele>
        <time>2021-04-15T13:45:37Z</time>
      </trkpt>
      <trkpt lat="46.76117" lon="5.80081">
        <ele>547.7</ele>
        <time>2021-04-15T13:45:46Z</time>
      </trkpt>
      <trkpt lat="46.76116" lon="5.80088">
        <ele>547.5</ele>
        <time>2021-04-15T13:45:55Z</time>
      </trkpt>
      <trkpt lat="46.76114" lon="5.80094">
        <ele>546.9</ele>
        <time>2021-04-15T13:46:01Z</time>
      </trkpt>
      <trkpt lat="46.76114" lon="5.80101">
        <ele>546</ele>
        <time>2021-04-15T13:46:07Z</time>
      </trkpt>
      <trkpt lat="46.76115" lon="5.80108">
        <ele>544.3</ele>
        <time>2021-04-15T13:46:15Z</time>
      </trkpt>
      <trkpt lat="46.76117" lon="5.80114">
        <ele>542.6</ele>
        <time>2021-04-15T13:46:27Z</time>
      </trkpt>
      <trkpt lat="46.76118" lon="5.80121">
        <ele>541.8</ele>
        <time>2021-04-15T13:46:34Z</time>
      </trkpt>
      <trkpt lat="46.76119" lon="5.80127">
        <ele>541.3</ele>
        <time>2021-04-15T13:46:42Z</time>
      </trkpt>
      <trkpt lat="46.76122" lon="5.80133">
        <ele>540.6</ele>
        <time>2021-04-15T13:46:51Z</time>
      </trkpt>
      <trkpt lat="46.76121" lon="5.80141">
        <ele>540.5</ele>
        <time>2021-04-15T13:46:55Z</time>
      </trkpt>
      <trkpt lat="46.76121" lon="5.80149">
        <ele>540.2</ele>
        <time>2021-04-15T13:47:00Z</time>
      </trkpt>
      <trkpt lat="46.76122" lon="5.80155">
        <ele>539.4</ele>
        <time>2021-04-15T13:47:07Z</time>
      </trkpt>
      <trkpt lat="46.76123" lon="5.80162">
        <ele>538.4</ele>
        <time>2021-04-15T13:47:14Z</time>
      </trkpt>
      <trkpt lat="46.76125" lon="5.80168">
        <ele>537.4</ele>
        <time>2021-04-15T13:47:23Z</time>
      </trkpt>
      <trkpt lat="46.76124" lon="5.80175">
        <ele>536.7</ele>
        <time>2021-04-15T13:47:30Z</time>
      </trkpt>
      <trkpt lat="46.76123" lon="5.80182">
        <ele>536.3</ele>
        <time>2021-04-15T13:47:36Z</time>
      </trkpt>
      <trkpt lat="46.76121" lon="5.80188">
        <ele>535.5</ele>
        <time>2021-04-15T13:47:44Z</time>
      </trkpt>
      <trkpt lat="46.76119" lon="5.80195">
        <ele>535.1</ele>
        <time>2021-04-15T13:47:49Z</time>
      </trkpt>
      <trkpt lat="46.76117" lon="5.80201">
        <ele>534.9</ele>
        <time>2021-04-15T13:47:54Z</time>
      </trkpt>
      <trkpt lat="46.76114" lon="5.80207">
        <ele>534.8</ele>
        <time>2021-04-15T13:48:02Z</time>
      </trkpt>
      <trkpt lat="46.7611" lon="5.80211">
        <ele>534.5</ele>
        <time>2021-04-15T13:48:10Z</time>
      </trkpt>
      <trkpt lat="46.76112" lon="5.80218">
        <ele>533.7</ele>
        <time>2021-04-15T13:48:24Z</time>
      </trkpt>
      <trkpt lat="46.76114" lon="5.80225">
        <ele>533.1</ele>
        <time>2021-04-15T13:48:30Z</time>
      </trkpt>
      <trkpt lat="46.76116" lon="5.80232">
        <ele>531.4</ele>
        <time>2021-04-15T13:48:38Z</time>
      </trkpt>
      <trkpt lat="46.7612" lon="5.80235">
        <ele>527.8</ele>
        <time>2021-04-15T13:48:44Z</time>
      </trkpt>
      <trkpt lat="46.76123" lon="5.80241">
        <ele>524.8</ele>
        <time>2021-04-15T13:48:50Z</time>
      </trkpt>
      <trkpt lat="46.76126" lon="5.80247">
        <ele>522.9</ele>
        <time>2021-04-15T13:48:55Z</time>
      </trkpt>
      <trkpt lat="46.76129" lon="5.80254">
        <ele>522.6</ele>
        <time>2021-04-15T13:48:59Z</time>
      </trkpt>
      <trkpt lat="46.7613" lon="5.80262">
        <ele>523</ele>
        <time>2021-04-15T13:49:04Z</time>
      </trkpt>
      <trkpt lat="46.76126" lon="5.80256">
        <ele>522.5</ele>
        <time>2021-04-15T13:49:16Z</time>
      </trkpt>
      <trkpt lat="46.76123" lon="5.80252">
        <ele>519.9</ele>
        <time>2021-04-15T13:52:15Z</time>
      </trkpt>
      <trkpt lat="46.76123" lon="5.80244">
        <ele>520.1</ele>
        <time>2021-04-15T13:52:20Z</time>
      </trkpt>
      <trkpt lat="46.76122" lon="5.80237">
        <ele>520.7</ele>
        <time>2021-04-15T13:52:26Z</time>
      </trkpt>
      <trkpt lat="46.76118" lon="5.80233">
        <ele>521.1</ele>
        <time>2021-04-15T13:52:30Z</time>
      </trkpt>
      <trkpt lat="46.76114" lon="5.80229">
        <ele>521.5</ele>
        <time>2021-04-15T13:52:34Z</time>
      </trkpt>
      <trkpt lat="46.76111" lon="5.80225">
        <ele>522.1</ele>
        <time>2021-04-15T13:52:45Z</time>
      </trkpt>
      <trkpt lat="46.76106" lon="5.80221">
        <ele>522.4</ele>
        <time>2021-04-15T13:52:52Z</time>
      </trkpt>
      <trkpt lat="46.76103" lon="5.80215">
        <ele>522.7</ele>
        <time>2021-04-15T13:52:57Z</time>
      </trkpt>
      <trkpt lat="46.761" lon="5.8021">
        <ele>522.9</ele>
        <time>2021-04-15T13:53:01Z</time>
      </trkpt>
      <trkpt lat="46.76095" lon="5.80207">
        <ele>523.2</ele>
        <time>2021-04-15T13:53:07Z</time>
      </trkpt>
      <trkpt lat="46.7609" lon="5.80206">
        <ele>523.3</ele>
        <time>2021-04-15T13:53:12Z</time>
      </trkpt>
      <trkpt lat="46.76084" lon="5.80204">
        <ele>523.2</ele>
        <time>2021-04-15T13:53:16Z</time>
      </trkpt>
      <trkpt lat="46.76081" lon="5.80199">
        <ele>523.1</ele>
        <time>2021-04-15T13:53:21Z</time>
      </trkpt>
      <trkpt lat="46.76079" lon="5.80193">
        <ele>522.9</ele>
        <time>2021-04-15T13:53:26Z</time>
      </trkpt>
      <trkpt lat="46.76075" lon="5.80189">
        <ele>521.6</ele>
        <time>2021-04-15T13:53:56Z</time>
      </trkpt>
      <trkpt lat="46.76076" lon="5.80197">
        <ele>520.8</ele>
        <time>2021-04-15T13:54:24Z</time>
      </trkpt>
      <trkpt lat="46.76075" lon="5.80208">
        <ele>521.3</ele>
        <time>2021-04-15T13:55:23Z</time>
      </trkpt>
      <trkpt lat="46.76071" lon="5.80204">
        <ele>522.2</ele>
        <time>2021-04-15T13:55:36Z</time>
      </trkpt>
      <trkpt lat="46.76067" lon="5.802">
        <ele>522.6</ele>
        <time>2021-04-15T13:55:56Z</time>
      </trkpt>
      <trkpt lat="46.76063" lon="5.80195">
        <ele>522.5</ele>
        <time>2021-04-15T13:56:00Z</time>
      </trkpt>
      <trkpt lat="46.76059" lon="5.80191">
        <ele>522.4</ele>
        <time>2021-04-15T13:56:05Z</time>
      </trkpt>
      <trkpt lat="46.76055" lon="5.80186">
        <ele>522.1</ele>
        <time>2021-04-15T13:56:11Z</time>
      </trkpt>
      <trkpt lat="46.76052" lon="5.80181">
        <ele>522</ele>
        <time>2021-04-15T13:56:16Z</time>
      </trkpt>
      <trkpt lat="46.76049" lon="5.80176">
        <ele>521.9</ele>
        <time>2021-04-15T13:56:21Z</time>
      </trkpt>
      <trkpt lat="46.76045" lon="5.8017">
        <ele>521.8</ele>
        <time>2021-04-15T13:56:26Z</time>
      </trkpt>
      <trkpt lat="46.76042" lon="5.80166">
        <ele>522.1</ele>
        <time>2021-04-15T13:56:30Z</time>
      </trkpt>
      <trkpt lat="46.76038" lon="5.8016">
        <ele>522</ele>
        <time>2021-04-15T13:56:35Z</time>
      </trkpt>
      <trkpt lat="46.76034" lon="5.80156">
        <ele>521.8</ele>
        <time>2021-04-15T13:56:39Z</time>
      </trkpt>
      <trkpt lat="46.76031" lon="5.80152">
        <ele>521.6</ele>
        <time>2021-04-15T13:56:43Z</time>
      </trkpt>
      <trkpt lat="46.76027" lon="5.80147">
        <ele>521.2</ele>
        <time>2021-04-15T13:56:47Z</time>
      </trkpt>
      <trkpt lat="46.76024" lon="5.80141">
        <ele>520.9</ele>
        <time>2021-04-15T13:56:52Z</time>
      </trkpt>
      <trkpt lat="46.7602" lon="5.80136">
        <ele>521</ele>
        <time>2021-04-15T13:56:57Z</time>
      </trkpt>
      <trkpt lat="46.76017" lon="5.80131">
        <ele>521.6</ele>
        <time>2021-04-15T13:57:02Z</time>
      </trkpt>
      <trkpt lat="46.76014" lon="5.80125">
        <ele>521.9</ele>
        <time>2021-04-15T13:57:07Z</time>
      </trkpt>
      <trkpt lat="46.76011" lon="5.8012">
        <ele>522.1</ele>
        <time>2021-04-15T13:57:11Z</time>
      </trkpt>
      <trkpt lat="46.76007" lon="5.80115">
        <ele>522.1</ele>
        <time>2021-04-15T13:57:16Z</time>
      </trkpt>
      <trkpt lat="46.76003" lon="5.80111">
        <ele>521.7</ele>
        <time>2021-04-15T13:57:22Z</time>
      </trkpt>
      <trkpt lat="46.75999" lon="5.80106">
        <ele>521.1</ele>
        <time>2021-04-15T13:57:27Z</time>
      </trkpt>
      <trkpt lat="46.75995" lon="5.80101">
        <ele>520.4</ele>
        <time>2021-04-15T13:57:32Z</time>
      </trkpt>
      <trkpt lat="46.75991" lon="5.80097">
        <ele>519.7</ele>
        <time>2021-04-15T13:57:36Z</time>
      </trkpt>
      <trkpt lat="46.75987" lon="5.80093">
        <ele>518.8</ele>
        <time>2021-04-15T13:57:40Z</time>
      </trkpt>
      <trkpt lat="46.75982" lon="5.80089">
        <ele>518</ele>
        <time>2021-04-15T13:57:44Z</time>
      </trkpt>
      <trkpt lat="46.75978" lon="5.80086">
        <ele>517.2</ele>
        <time>2021-04-15T13:57:48Z</time>
      </trkpt>
      <trkpt lat="46.75974" lon="5.80082">
        <ele>516.7</ele>
        <time>2021-04-15T13:57:53Z</time>
      </trkpt>
      <trkpt lat="46.7597" lon="5.80078">
        <ele>515.4</ele>
        <time>2021-04-15T13:58:23Z</time>
      </trkpt>
      <trkpt lat="46.75965" lon="5.80077">
        <ele>515.6</ele>
        <time>2021-04-15T13:58:28Z</time>
      </trkpt>
      <trkpt lat="46.7596" lon="5.80075">
        <ele>515.6</ele>
        <time>2021-04-15T13:58:55Z</time>
      </trkpt>
      <trkpt lat="46.75955" lon="5.80072">
        <ele>515.6</ele>
        <time>2021-04-15T13:59:01Z</time>
      </trkpt>
      <trkpt lat="46.75951" lon="5.80068">
        <ele>516</ele>
        <time>2021-04-15T13:59:07Z</time>
      </trkpt>
      <trkpt lat="46.75946" lon="5.80065">
        <ele>516.4</ele>
        <time>2021-04-15T13:59:12Z</time>
      </trkpt>
      <trkpt lat="46.75942" lon="5.80063">
        <ele>516.9</ele>
        <time>2021-04-15T13:59:16Z</time>
      </trkpt>
      <trkpt lat="46.75937" lon="5.80059">
        <ele>517.4</ele>
        <time>2021-04-15T13:59:21Z</time>
      </trkpt>
      <trkpt lat="46.75933" lon="5.80055">
        <ele>517.7</ele>
        <time>2021-04-15T13:59:25Z</time>
      </trkpt>
      <trkpt lat="46.75929" lon="5.80051">
        <ele>518.5</ele>
        <time>2021-04-15T13:59:29Z</time>
      </trkpt>
      <trkpt lat="46.75925" lon="5.80045">
        <ele>519.2</ele>
        <time>2021-04-15T13:59:34Z</time>
      </trkpt>
      <trkpt lat="46.75922" lon="5.80039">
        <ele>519.2</ele>
        <time>2021-04-15T13:59:39Z</time>
      </trkpt>
      <trkpt lat="46.75917" lon="5.80035">
        <ele>518.7</ele>
        <time>2021-04-15T13:59:44Z</time>
      </trkpt>
      <trkpt lat="46.75913" lon="5.80032">
        <ele>518.1</ele>
        <time>2021-04-15T13:59:49Z</time>
      </trkpt>
      <trkpt lat="46.7591" lon="5.80027">
        <ele>517.5</ele>
        <time>2021-04-15T13:59:54Z</time>
      </trkpt>
      <trkpt lat="46.75907" lon="5.80022">
        <ele>516.8</ele>
        <time>2021-04-15T13:59:59Z</time>
      </trkpt>
      <trkpt lat="46.75903" lon="5.80016">
        <ele>516.1</ele>
        <time>2021-04-15T14:00:04Z</time>
      </trkpt>
      <trkpt lat="46.75899" lon="5.80012">
        <ele>515.6</ele>
        <time>2021-04-15T14:00:09Z</time>
      </trkpt>
      <trkpt lat="46.75894" lon="5.8001">
        <ele>515.4</ele>
        <time>2021-04-15T14:00:13Z</time>
      </trkpt>
      <trkpt lat="46.75889" lon="5.80007">
        <ele>515.4</ele>
        <time>2021-04-15T14:00:18Z</time>
      </trkpt>
      <trkpt lat="46.75885" lon="5.80005">
        <ele>515.6</ele>
        <time>2021-04-15T14:00:23Z</time>
      </trkpt>
      <trkpt lat="46.7588" lon="5.80005">
        <ele>515.9</ele>
        <time>2021-04-15T14:00:28Z</time>
      </trkpt>
      <trkpt lat="46.75875" lon="5.80002">
        <ele>516</ele>
        <time>2021-04-15T14:00:33Z</time>
      </trkpt>
      <trkpt lat="46.7587" lon="5.8">
        <ele>515.9</ele>
        <time>2021-04-15T14:00:38Z</time>
      </trkpt>
      <trkpt lat="46.75865" lon="5.79996">
        <ele>515.6</ele>
        <time>2021-04-15T14:00:44Z</time>
      </trkpt>
      <trkpt lat="46.7586" lon="5.79994">
        <ele>515.3</ele>
        <time>2021-04-15T14:00:49Z</time>
      </trkpt>
      <trkpt lat="46.75855" lon="5.79991">
        <ele>515.1</ele>
        <time>2021-04-15T14:00:54Z</time>
      </trkpt>
      <trkpt lat="46.75849" lon="5.79989">
        <ele>515.2</ele>
        <time>2021-04-15T14:00:58Z</time>
      </trkpt>
      <trkpt lat="46.75844" lon="5.79986">
        <ele>515.1</ele>
        <time>2021-04-15T14:01:02Z</time>
      </trkpt>
      <trkpt lat="46.75839" lon="5.79983">
        <ele>514.8</ele>
        <time>2021-04-15T14:01:07Z</time>
      </trkpt>
      <trkpt lat="46.75834" lon="5.7998">
        <ele>514.4</ele>
        <time>2021-04-15T14:01:12Z</time>
      </trkpt>
      <trkpt lat="46.7583" lon="5.79977">
        <ele>513.9</ele>
        <time>2021-04-15T14:01:17Z</time>
      </trkpt>
      <trkpt lat="46.75826" lon="5.79973">
        <ele>513.5</ele>
        <time>2021-04-15T14:01:22Z</time>
      </trkpt>
      <trkpt lat="46.75821" lon="5.79968">
        <ele>513.1</ele>
        <time>2021-04-15T14:01:27Z</time>
      </trkpt>
      <trkpt lat="46.75817" lon="5.79965">
        <ele>512.6</ele>
        <time>2021-04-15T14:01:32Z</time>
      </trkpt>
      <trkpt lat="46.75813" lon="5.79961">
        <ele>512</ele>
        <time>2021-04-15T14:01:37Z</time>
      </trkpt>
      <trkpt lat="46.75809" lon="5.79956">
        <ele>511.4</ele>
        <time>2021-04-15T14:01:42Z</time>
      </trkpt>
      <trkpt lat="46.75804" lon="5.79951">
        <ele>510.8</ele>
        <time>2021-04-15T14:01:47Z</time>
      </trkpt>
      <trkpt lat="46.75799" lon="5.79949">
        <ele>510.3</ele>
        <time>2021-04-15T14:01:51Z</time>
      </trkpt>
      <trkpt lat="46.75795" lon="5.79947">
        <ele>509.8</ele>
        <time>2021-04-15T14:01:55Z</time>
      </trkpt>
      <trkpt lat="46.7579" lon="5.79944">
        <ele>509.5</ele>
        <time>2021-04-15T14:01:59Z</time>
      </trkpt>
      <trkpt lat="46.75787" lon="5.7994">
        <ele>509.1</ele>
        <time>2021-04-15T14:02:03Z</time>
      </trkpt>
      <trkpt lat="46.75784" lon="5.79933">
        <ele>508.7</ele>
        <time>2021-04-15T14:02:08Z</time>
      </trkpt>
      <trkpt lat="46.75781" lon="5.79928">
        <ele>508.4</ele>
        <time>2021-04-15T14:02:12Z</time>
      </trkpt>
      <trkpt lat="46.75777" lon="5.79924">
        <ele>508.1</ele>
        <time>2021-04-15T14:02:16Z</time>
      </trkpt>
      <trkpt lat="46.75774" lon="5.79918">
        <ele>507.7</ele>
        <time>2021-04-15T14:02:20Z</time>
      </trkpt>
      <trkpt lat="46.7577" lon="5.79913">
        <ele>507.2</ele>
        <time>2021-04-15T14:02:24Z</time>
      </trkpt>
      <trkpt lat="46.75768" lon="5.79907">
        <ele>506.7</ele>
        <time>2021-04-15T14:02:28Z</time>
      </trkpt>
      <trkpt lat="46.75764" lon="5.79901">
        <ele>506.3</ele>
        <time>2021-04-15T14:02:33Z</time>
      </trkpt>
      <trkpt lat="46.75761" lon="5.79895">
        <ele>506</ele>
        <time>2021-04-15T14:02:38Z</time>
      </trkpt>
      <trkpt lat="46.75757" lon="5.7989">
        <ele>506.1</ele>
        <time>2021-04-15T14:02:42Z</time>
      </trkpt>
      <trkpt lat="46.75754" lon="5.79883">
        <ele>506.4</ele>
        <time>2021-04-15T14:02:46Z</time>
      </trkpt>
      <trkpt lat="46.75751" lon="5.79877">
        <ele>506.6</ele>
        <time>2021-04-15T14:02:50Z</time>
      </trkpt>
      <trkpt lat="46.75748" lon="5.79871">
        <ele>507.1</ele>
        <time>2021-04-15T14:03:02Z</time>
      </trkpt>
      <trkpt lat="46.75744" lon="5.79866">
        <ele>507.8</ele>
        <time>2021-04-15T14:03:07Z</time>
      </trkpt>
      <trkpt lat="46.75741" lon="5.79861">
        <ele>508.6</ele>
        <time>2021-04-15T14:03:12Z</time>
      </trkpt>
      <trkpt lat="46.75737" lon="5.79856">
        <ele>509.1</ele>
        <time>2021-04-15T14:03:17Z</time>
      </trkpt>
      <trkpt lat="46.75732" lon="5.79853">
        <ele>509.8</ele>
        <time>2021-04-15T14:03:23Z</time>
      </trkpt>
      <trkpt lat="46.75729" lon="5.79847">
        <ele>510.2</ele>
        <time>2021-04-15T14:03:29Z</time>
      </trkpt>
      <trkpt lat="46.75726" lon="5.79841">
        <ele>510.1</ele>
        <time>2021-04-15T14:03:34Z</time>
      </trkpt>
      <trkpt lat="46.75723" lon="5.79836">
        <ele>509.6</ele>
        <time>2021-04-15T14:03:39Z</time>
      </trkpt>
      <trkpt lat="46.75719" lon="5.79833">
        <ele>509.1</ele>
        <time>2021-04-15T14:03:44Z</time>
      </trkpt>
      <trkpt lat="46.75714" lon="5.79828">
        <ele>508.4</ele>
        <time>2021-04-15T14:03:49Z</time>
      </trkpt>
      <trkpt lat="46.75709" lon="5.79825">
        <ele>508</ele>
        <time>2021-04-15T14:03:54Z</time>
      </trkpt>
      <trkpt lat="46.75705" lon="5.79821">
        <ele>507.9</ele>
        <time>2021-04-15T14:03:58Z</time>
      </trkpt>
      <trkpt lat="46.75701" lon="5.79817">
        <ele>507.8</ele>
        <time>2021-04-15T14:04:03Z</time>
      </trkpt>
      <trkpt lat="46.75697" lon="5.79812">
        <ele>508.1</ele>
        <time>2021-04-15T14:04:08Z</time>
      </trkpt>
      <trkpt lat="46.75693" lon="5.79807">
        <ele>508.4</ele>
        <time>2021-04-15T14:04:13Z</time>
      </trkpt>
      <trkpt lat="46.75689" lon="5.79801">
        <ele>508.7</ele>
        <time>2021-04-15T14:04:18Z</time>
      </trkpt>
      <trkpt lat="46.75685" lon="5.79798">
        <ele>508.6</ele>
        <time>2021-04-15T14:04:22Z</time>
      </trkpt>
      <trkpt lat="46.7568" lon="5.79794">
        <ele>508.6</ele>
        <time>2021-04-15T14:04:27Z</time>
      </trkpt>
      <trkpt lat="46.75677" lon="5.79788">
        <ele>508.6</ele>
        <time>2021-04-15T14:04:31Z</time>
      </trkpt>
      <trkpt lat="46.75673" lon="5.79783">
        <ele>508.8</ele>
        <time>2021-04-15T14:04:35Z</time>
      </trkpt>
      <trkpt lat="46.75669" lon="5.79778">
        <ele>509</ele>
        <time>2021-04-15T14:04:40Z</time>
      </trkpt>
      <trkpt lat="46.75665" lon="5.79775">
        <ele>509.1</ele>
        <time>2021-04-15T14:04:45Z</time>
      </trkpt>
      <trkpt lat="46.7566" lon="5.79772">
        <ele>509.3</ele>
        <time>2021-04-15T14:04:50Z</time>
      </trkpt>
      <trkpt lat="46.75656" lon="5.79769">
        <ele>509.7</ele>
        <time>2021-04-15T14:04:55Z</time>
      </trkpt>
      <trkpt lat="46.75651" lon="5.79766">
        <ele>510</ele>
        <time>2021-04-15T14:05:00Z</time>
      </trkpt>
      <trkpt lat="46.75647" lon="5.79761">
        <ele>510.1</ele>
        <time>2021-04-15T14:05:05Z</time>
      </trkpt>
      <trkpt lat="46.75643" lon="5.79757">
        <ele>510</ele>
        <time>2021-04-15T14:05:09Z</time>
      </trkpt>
      <trkpt lat="46.75638" lon="5.79754">
        <ele>509.8</ele>
        <time>2021-04-15T14:05:13Z</time>
      </trkpt>
      <trkpt lat="46.75634" lon="5.7975">
        <ele>509.7</ele>
        <time>2021-04-15T14:05:17Z</time>
      </trkpt>
      <trkpt lat="46.75631" lon="5.79746">
        <ele>509.5</ele>
        <time>2021-04-15T14:05:22Z</time>
      </trkpt>
      <trkpt lat="46.75627" lon="5.79741">
        <ele>509.4</ele>
        <time>2021-04-15T14:05:27Z</time>
      </trkpt>
      <trkpt lat="46.75623" lon="5.79737">
        <ele>509.1</ele>
        <time>2021-04-15T14:05:32Z</time>
      </trkpt>
      <trkpt lat="46.75619" lon="5.79733">
        <ele>508.6</ele>
        <time>2021-04-15T14:05:37Z</time>
      </trkpt>
      <trkpt lat="46.75614" lon="5.7973">
        <ele>508.1</ele>
        <time>2021-04-15T14:05:42Z</time>
      </trkpt>
      <trkpt lat="46.7561" lon="5.79728">
        <ele>508</ele>
        <time>2021-04-15T14:05:46Z</time>
      </trkpt>
      <trkpt lat="46.75606" lon="5.79725">
        <ele>507.9</ele>
        <time>2021-04-15T14:05:50Z</time>
      </trkpt>
      <trkpt lat="46.75601" lon="5.79722">
        <ele>508.1</ele>
        <time>2021-04-15T14:05:55Z</time>
      </trkpt>
      <trkpt lat="46.75596" lon="5.79718">
        <ele>508.4</ele>
        <time>2021-04-15T14:06:00Z</time>
      </trkpt>
      <trkpt lat="46.75592" lon="5.79716">
        <ele>508.8</ele>
        <time>2021-04-15T14:06:04Z</time>
      </trkpt>
      <trkpt lat="46.75588" lon="5.7971">
        <ele>509</ele>
        <time>2021-04-15T14:06:08Z</time>
      </trkpt>
      <trkpt lat="46.75584" lon="5.79706">
        <ele>509.3</ele>
        <time>2021-04-15T14:06:12Z</time>
      </trkpt>
      <trkpt lat="46.75579" lon="5.79703">
        <ele>509.7</ele>
        <time>2021-04-15T14:06:16Z</time>
      </trkpt>
      <trkpt lat="46.75575" lon="5.79699">
        <ele>510.1</ele>
        <time>2021-04-15T14:06:20Z</time>
      </trkpt>
      <trkpt lat="46.75571" lon="5.79694">
        <ele>510.6</ele>
        <time>2021-04-15T14:06:25Z</time>
      </trkpt>
      <trkpt lat="46.75567" lon="5.7969">
        <ele>510.8</ele>
        <time>2021-04-15T14:06:29Z</time>
      </trkpt>
      <trkpt lat="46.75563" lon="5.79685">
        <ele>510.9</ele>
        <time>2021-04-15T14:06:34Z</time>
      </trkpt>
      <trkpt lat="46.7556" lon="5.79679">
        <ele>510.8</ele>
        <time>2021-04-15T14:06:39Z</time>
      </trkpt>
      <trkpt lat="46.75558" lon="5.79672">
        <ele>510.7</ele>
        <time>2021-04-15T14:06:43Z</time>
      </trkpt>
      <trkpt lat="46.75556" lon="5.79665">
        <ele>510.3</ele>
        <time>2021-04-15T14:06:48Z</time>
      </trkpt>
      <trkpt lat="46.75554" lon="5.79658">
        <ele>510</ele>
        <time>2021-04-15T14:06:53Z</time>
      </trkpt>
      <trkpt lat="46.75553" lon="5.79652">
        <ele>510.1</ele>
        <time>2021-04-15T14:06:58Z</time>
      </trkpt>
      <trkpt lat="46.7555" lon="5.79646">
        <ele>510.4</ele>
        <time>2021-04-15T14:07:04Z</time>
      </trkpt>
      <trkpt lat="46.75548" lon="5.7964">
        <ele>511.1</ele>
        <time>2021-04-15T14:07:12Z</time>
      </trkpt>
      <trkpt lat="46.75547" lon="5.79634">
        <ele>511.4</ele>
        <time>2021-04-15T14:07:17Z</time>
      </trkpt>
      <trkpt lat="46.75547" lon="5.79627">
        <ele>511.4</ele>
        <time>2021-04-15T14:07:21Z</time>
      </trkpt>
      <trkpt lat="46.75545" lon="5.7962">
        <ele>511.3</ele>
        <time>2021-04-15T14:07:27Z</time>
      </trkpt>
      <trkpt lat="46.75543" lon="5.79613">
        <ele>511.1</ele>
        <time>2021-04-15T14:07:33Z</time>
      </trkpt>
      <trkpt lat="46.75539" lon="5.79608">
        <ele>510.9</ele>
        <time>2021-04-15T14:07:44Z</time>
      </trkpt>
      <trkpt lat="46.75537" lon="5.79601">
        <ele>511.2</ele>
        <time>2021-04-15T14:07:51Z</time>
      </trkpt>
      <trkpt lat="46.75536" lon="5.79594">
        <ele>511.7</ele>
        <time>2021-04-15T14:07:58Z</time>
      </trkpt>
      <trkpt lat="46.75534" lon="5.79587">
        <ele>511.9</ele>
        <time>2021-04-15T14:08:05Z</time>
      </trkpt>
      <trkpt lat="46.75532" lon="5.79581">
        <ele>512.2</ele>
        <time>2021-04-15T14:08:13Z</time>
      </trkpt>
      <trkpt lat="46.7553" lon="5.79575">
        <ele>513.1</ele>
        <time>2021-04-15T14:08:23Z</time>
      </trkpt>
      <trkpt lat="46.75529" lon="5.79568">
        <ele>514</ele>
        <time>2021-04-15T14:08:31Z</time>
      </trkpt>
      <trkpt lat="46.75527" lon="5.79561">
        <ele>514.7</ele>
        <time>2021-04-15T14:08:35Z</time>
      </trkpt>
      <trkpt lat="46.75525" lon="5.79554">
        <ele>515.5</ele>
        <time>2021-04-15T14:08:41Z</time>
      </trkpt>
      <trkpt lat="46.75525" lon="5.79546">
        <ele>516</ele>
        <time>2021-04-15T14:08:45Z</time>
      </trkpt>
      <trkpt lat="46.75523" lon="5.79539">
        <ele>516.6</ele>
        <time>2021-04-15T14:08:50Z</time>
      </trkpt>
      <trkpt lat="46.75523" lon="5.79532">
        <ele>517.1</ele>
        <time>2021-04-15T14:08:57Z</time>
      </trkpt>
      <trkpt lat="46.7552" lon="5.79526">
        <ele>517.3</ele>
        <time>2021-04-15T14:09:02Z</time>
      </trkpt>
      <trkpt lat="46.75518" lon="5.7952">
        <ele>517.4</ele>
        <time>2021-04-15T14:09:08Z</time>
      </trkpt>
      <trkpt lat="46.75514" lon="5.79517">
        <ele>518</ele>
        <time>2021-04-15T14:09:16Z</time>
      </trkpt>
      <trkpt lat="46.75512" lon="5.7951">
        <ele>518.5</ele>
        <time>2021-04-15T14:09:23Z</time>
      </trkpt>
      <trkpt lat="46.75511" lon="5.79503">
        <ele>519.3</ele>
        <time>2021-04-15T14:09:29Z</time>
      </trkpt>
      <trkpt lat="46.75509" lon="5.79497">
        <ele>520.1</ele>
        <time>2021-04-15T14:09:35Z</time>
      </trkpt>
      <trkpt lat="46.75507" lon="5.79491">
        <ele>520.8</ele>
        <time>2021-04-15T14:09:41Z</time>
      </trkpt>
      <trkpt lat="46.75504" lon="5.79485">
        <ele>521.7</ele>
        <time>2021-04-15T14:09:48Z</time>
      </trkpt>
      <trkpt lat="46.75501" lon="5.79479">
        <ele>522.7</ele>
        <time>2021-04-15T14:09:53Z</time>
      </trkpt>
      <trkpt lat="46.75498" lon="5.79473">
        <ele>523.7</ele>
        <time>2021-04-15T14:09:58Z</time>
      </trkpt>
      <trkpt lat="46.75496" lon="5.79467">
        <ele>524.9</ele>
        <time>2021-04-15T14:10:04Z</time>
      </trkpt>
      <trkpt lat="46.75492" lon="5.79462">
        <ele>525.7</ele>
        <time>2021-04-15T14:10:10Z</time>
      </trkpt>
      <trkpt lat="46.75488" lon="5.79457">
        <ele>526.7</ele>
        <time>2021-04-15T14:10:16Z</time>
      </trkpt>
      <trkpt lat="46.75485" lon="5.7945">
        <ele>527.8</ele>
        <time>2021-04-15T14:10:23Z</time>
      </trkpt>
      <trkpt lat="46.75483" lon="5.79444">
        <ele>528.8</ele>
        <time>2021-04-15T14:10:28Z</time>
      </trkpt>
      <trkpt lat="46.75479" lon="5.79439">
        <ele>530.5</ele>
        <time>2021-04-15T14:10:35Z</time>
      </trkpt>
      <trkpt lat="46.75475" lon="5.79434">
        <ele>531.7</ele>
        <time>2021-04-15T14:10:40Z</time>
      </trkpt>
      <trkpt lat="46.75471" lon="5.79429">
        <ele>532.9</ele>
        <time>2021-04-15T14:10:45Z</time>
      </trkpt>
      <trkpt lat="46.7547" lon="5.79422">
        <ele>533.9</ele>
        <time>2021-04-15T14:10:50Z</time>
      </trkpt>
      <trkpt lat="46.75467" lon="5.79416">
        <ele>534.8</ele>
        <time>2021-04-15T14:10:56Z</time>
      </trkpt>
      <trkpt lat="46.75465" lon="5.7941">
        <ele>535.5</ele>
        <time>2021-04-15T14:11:02Z</time>
      </trkpt>
      <trkpt lat="46.75465" lon="5.79403">
        <ele>536.4</ele>
        <time>2021-04-15T14:11:09Z</time>
      </trkpt>
      <trkpt lat="46.75464" lon="5.79396">
        <ele>538.7</ele>
        <time>2021-04-15T14:11:35Z</time>
      </trkpt>
      <trkpt lat="46.75459" lon="5.79397">
        <ele>547.8</ele>
        <time>2021-04-15T14:12:31Z</time>
      </trkpt>
      <trkpt lat="46.7546" lon="5.79391">
        <ele>550</ele>
        <time>2021-04-15T14:13:08Z</time>
      </trkpt>
      <trkpt lat="46.75459" lon="5.79384">
        <ele>550.3</ele>
        <time>2021-04-15T14:13:14Z</time>
      </trkpt>
      <trkpt lat="46.75458" lon="5.79377">
        <ele>550.6</ele>
        <time>2021-04-15T14:13:22Z</time>
      </trkpt>
      <trkpt lat="46.75458" lon="5.7937">
        <ele>551.1</ele>
        <time>2021-04-15T14:13:30Z</time>
      </trkpt>
      <trkpt lat="46.75457" lon="5.79362">
        <ele>552</ele>
        <time>2021-04-15T14:13:38Z</time>
      </trkpt>
      <trkpt lat="46.75456" lon="5.79355">
        <ele>552.7</ele>
        <time>2021-04-15T14:13:45Z</time>
      </trkpt>
      <trkpt lat="46.75453" lon="5.79349">
        <ele>553.6</ele>
        <time>2021-04-15T14:13:53Z</time>
      </trkpt>
      <trkpt lat="46.75452" lon="5.79343">
        <ele>554.3</ele>
        <time>2021-04-15T14:14:00Z</time>
      </trkpt>
      <trkpt lat="46.75449" lon="5.79336">
        <ele>554.7</ele>
        <time>2021-04-15T14:14:09Z</time>
      </trkpt>
      <trkpt lat="46.75448" lon="5.79329">
        <ele>554.7</ele>
        <time>2021-04-15T14:14:14Z</time>
      </trkpt>
      <trkpt lat="46.75448" lon="5.79322">
        <ele>555</ele>
        <time>2021-04-15T14:14:19Z</time>
      </trkpt>
      <trkpt lat="46.75447" lon="5.79315">
        <ele>555.3</ele>
        <time>2021-04-15T14:14:25Z</time>
      </trkpt>
      <trkpt lat="46.75446" lon="5.79309">
        <ele>556</ele>
        <time>2021-04-15T14:14:36Z</time>
      </trkpt>
      <trkpt lat="46.75446" lon="5.79302">
        <ele>556.4</ele>
        <time>2021-04-15T14:14:44Z</time>
      </trkpt>
      <trkpt lat="46.75444" lon="5.79293">
        <ele>557.1</ele>
        <time>2021-04-15T14:15:00Z</time>
      </trkpt>
      <trkpt lat="46.75443" lon="5.79287">
        <ele>557.3</ele>
        <time>2021-04-15T14:15:04Z</time>
      </trkpt>
      <trkpt lat="46.7544" lon="5.7928">
        <ele>562.1</ele>
        <time>2021-04-15T14:15:08Z</time>
      </trkpt>
      <trkpt lat="46.75441" lon="5.79272">
        <ele>566.3</ele>
        <time>2021-04-15T14:15:19Z</time>
      </trkpt>
      <trkpt lat="46.75439" lon="5.79266">
        <ele>567.1</ele>
        <time>2021-04-15T14:15:27Z</time>
      </trkpt>
      <trkpt lat="46.75436" lon="5.79261">
        <ele>567.6</ele>
        <time>2021-04-15T14:15:34Z</time>
      </trkpt>
      <trkpt lat="46.75433" lon="5.79255">
        <ele>567.8</ele>
        <time>2021-04-15T14:15:40Z</time>
      </trkpt>
      <trkpt lat="46.75434" lon="5.79248">
        <ele>568.1</ele>
        <time>2021-04-15T14:15:49Z</time>
      </trkpt>
      <trkpt lat="46.75434" lon="5.79241">
        <ele>568.5</ele>
        <time>2021-04-15T14:16:07Z</time>
      </trkpt>
      <trkpt lat="46.75436" lon="5.79235">
        <ele>568.8</ele>
        <time>2021-04-15T14:16:12Z</time>
      </trkpt>
      <trkpt lat="46.75435" lon="5.79228">
        <ele>570</ele>
        <time>2021-04-15T14:16:53Z</time>
      </trkpt>
      <trkpt lat="46.75432" lon="5.79223">
        <ele>570.6</ele>
        <time>2021-04-15T14:17:02Z</time>
      </trkpt>
      <trkpt lat="46.75433" lon="5.79215">
        <ele>570.1</ele>
        <time>2021-04-15T14:17:10Z</time>
      </trkpt>
      <trkpt lat="46.75431" lon="5.79208">
        <ele>569.9</ele>
        <time>2021-04-15T14:17:15Z</time>
      </trkpt>
      <trkpt lat="46.75428" lon="5.79202">
        <ele>570</ele>
        <time>2021-04-15T14:17:20Z</time>
      </trkpt>
      <trkpt lat="46.75426" lon="5.79197">
        <ele>570.2</ele>
        <time>2021-04-15T14:17:26Z</time>
      </trkpt>
      <trkpt lat="46.75422" lon="5.79192">
        <ele>570.3</ele>
        <time>2021-04-15T14:17:32Z</time>
      </trkpt>
      <trkpt lat="46.75418" lon="5.79187">
        <ele>570.5</ele>
        <time>2021-04-15T14:17:40Z</time>
      </trkpt>
      <trkpt lat="46.75416" lon="5.79181">
        <ele>570.6</ele>
        <time>2021-04-15T14:17:50Z</time>
      </trkpt>
      <trkpt lat="46.75413" lon="5.79175">
        <ele>571</ele>
        <time>2021-04-15T14:17:59Z</time>
      </trkpt>
      <trkpt lat="46.75413" lon="5.79168">
        <ele>571.3</ele>
        <time>2021-04-15T14:18:07Z</time>
      </trkpt>
      <trkpt lat="46.75413" lon="5.79161">
        <ele>571.6</ele>
        <time>2021-04-15T14:18:14Z</time>
      </trkpt>
      <trkpt lat="46.75413" lon="5.79154">
        <ele>572</ele>
        <time>2021-04-15T14:18:25Z</time>
      </trkpt>
      <trkpt lat="46.75411" lon="5.79146">
        <ele>572.4</ele>
        <time>2021-04-15T14:18:42Z</time>
      </trkpt>
      <trkpt lat="46.75409" lon="5.79138">
        <ele>572.4</ele>
        <time>2021-04-15T14:18:46Z</time>
      </trkpt>
      <trkpt lat="46.75408" lon="5.79131">
        <ele>572.6</ele>
        <time>2021-04-15T14:18:51Z</time>
      </trkpt>
      <trkpt lat="46.75406" lon="5.79125">
        <ele>573.2</ele>
        <time>2021-04-15T14:18:58Z</time>
      </trkpt>
      <trkpt lat="46.75407" lon="5.79118">
        <ele>575.7</ele>
        <time>2021-04-15T14:19:37Z</time>
      </trkpt>
      <trkpt lat="46.75407" lon="5.79111">
        <ele>579.1</ele>
        <time>2021-04-15T14:20:16Z</time>
      </trkpt>
      <trkpt lat="46.75406" lon="5.79104">
        <ele>580.2</ele>
        <time>2021-04-15T14:20:23Z</time>
      </trkpt>
      <trkpt lat="46.75404" lon="5.79097">
        <ele>581.1</ele>
        <time>2021-04-15T14:20:31Z</time>
      </trkpt>
      <trkpt lat="46.75401" lon="5.7909">
        <ele>581.5</ele>
        <time>2021-04-15T14:20:36Z</time>
      </trkpt>
      <trkpt lat="46.75401" lon="5.79083">
        <ele>582</ele>
        <time>2021-04-15T14:20:42Z</time>
      </trkpt>
      <trkpt lat="46.754" lon="5.79076">
        <ele>582.4</ele>
        <time>2021-04-15T14:20:49Z</time>
      </trkpt>
      <trkpt lat="46.754" lon="5.79069">
        <ele>582.7</ele>
        <time>2021-04-15T14:20:57Z</time>
      </trkpt>
      <trkpt lat="46.754" lon="5.79062">
        <ele>583</ele>
        <time>2021-04-15T14:21:05Z</time>
      </trkpt>
      <trkpt lat="46.75406" lon="5.79053">
        <ele>584.4</ele>
        <time>2021-04-15T14:21:39Z</time>
      </trkpt>
      <trkpt lat="46.7541" lon="5.79045">
        <ele>585.1</ele>
        <time>2021-04-15T14:21:43Z</time>
      </trkpt>
      <trkpt lat="46.75413" lon="5.7904">
        <ele>586.1</ele>
        <time>2021-04-15T14:21:49Z</time>
      </trkpt>
      <trkpt lat="46.75416" lon="5.79036">
        <ele>587.9</ele>
        <time>2021-04-15T14:22:00Z</time>
      </trkpt>
      <trkpt lat="46.75419" lon="5.7903">
        <ele>588.9</ele>
        <time>2021-04-15T14:22:39Z</time>
      </trkpt>
      <trkpt lat="46.75423" lon="5.79034">
        <ele>590.2</ele>
        <time>2021-04-15T14:23:24Z</time>
      </trkpt>
      <trkpt lat="46.75425" lon="5.79027">
        <ele>591.4</ele>
        <time>2021-04-15T14:23:37Z</time>
      </trkpt>
      <trkpt lat="46.75427" lon="5.79021">
        <ele>592.2</ele>
        <time>2021-04-15T14:23:43Z</time>
      </trkpt>
      <trkpt lat="46.7543" lon="5.79016">
        <ele>593.2</ele>
        <time>2021-04-15T14:23:51Z</time>
      </trkpt>
      <trkpt lat="46.75428" lon="5.79009">
        <ele>597.7</ele>
        <time>2021-04-15T14:23:55Z</time>
      </trkpt>
      <trkpt lat="46.75429" lon="5.79002">
        <ele>603.1</ele>
        <time>2021-04-15T14:24:05Z</time>
      </trkpt>
      <trkpt lat="46.75433" lon="5.79">
        <ele>604.2</ele>
        <time>2021-04-15T14:24:12Z</time>
      </trkpt>
      <trkpt lat="46.75436" lon="5.78995">
        <ele>604.6</ele>
        <time>2021-04-15T14:24:20Z</time>
      </trkpt>
      <trkpt lat="46.75439" lon="5.78989">
        <ele>604.3</ele>
        <time>2021-04-15T14:24:27Z</time>
      </trkpt>
      <trkpt lat="46.75441" lon="5.78981">
        <ele>604.1</ele>
        <time>2021-04-15T14:24:31Z</time>
      </trkpt>
      <trkpt lat="46.75443" lon="5.78975">
        <ele>603.6</ele>
        <time>2021-04-15T14:24:37Z</time>
      </trkpt>
      <trkpt lat="46.75446" lon="5.78965">
        <ele>605.1</ele>
        <time>2021-04-15T14:24:44Z</time>
      </trkpt>
      <trkpt lat="46.75447" lon="5.78957">
        <ele>606.9</ele>
        <time>2021-04-15T14:24:48Z</time>
      </trkpt>
      <trkpt lat="46.75442" lon="5.78952">
        <ele>608.7</ele>
        <time>2021-04-15T14:25:52Z</time>
      </trkpt>
      <trkpt lat="46.75436" lon="5.7895">
        <ele>608.1</ele>
        <time>2021-04-15T14:25:56Z</time>
      </trkpt>
      <trkpt lat="46.75431" lon="5.78947">
        <ele>607.4</ele>
        <time>2021-04-15T14:26:00Z</time>
      </trkpt>
      <trkpt lat="46.75427" lon="5.78944">
        <ele>606.8</ele>
        <time>2021-04-15T14:26:05Z</time>
      </trkpt>
      <trkpt lat="46.75423" lon="5.78939">
        <ele>606.4</ele>
        <time>2021-04-15T14:26:14Z</time>
      </trkpt>
      <trkpt lat="46.75417" lon="5.78934">
        <ele>608.2</ele>
        <time>2021-04-15T14:26:23Z</time>
      </trkpt>
      <trkpt lat="46.75412" lon="5.7893">
        <ele>610.3</ele>
        <time>2021-04-15T14:26:28Z</time>
      </trkpt>
      <trkpt lat="46.75407" lon="5.78921">
        <ele>612.5</ele>
        <time>2021-04-15T14:26:35Z</time>
      </trkpt>
      <trkpt lat="46.75403" lon="5.78914">
        <ele>613.8</ele>
        <time>2021-04-15T14:26:39Z</time>
      </trkpt>
      <trkpt lat="46.75399" lon="5.7891">
        <ele>614.9</ele>
        <time>2021-04-15T14:26:45Z</time>
      </trkpt>
      <trkpt lat="46.75395" lon="5.78905">
        <ele>615.4</ele>
        <time>2021-04-15T14:26:50Z</time>
      </trkpt>
      <trkpt lat="46.75391" lon="5.789">
        <ele>615.5</ele>
        <time>2021-04-15T14:26:56Z</time>
      </trkpt>
      <trkpt lat="46.75387" lon="5.78895">
        <ele>615.1</ele>
        <time>2021-04-15T14:27:02Z</time>
      </trkpt>
      <trkpt lat="46.75383" lon="5.78891">
        <ele>614.4</ele>
        <time>2021-04-15T14:27:07Z</time>
      </trkpt>
      <trkpt lat="46.75379" lon="5.78887">
        <ele>613.6</ele>
        <time>2021-04-15T14:27:12Z</time>
      </trkpt>
      <trkpt lat="46.75375" lon="5.78882">
        <ele>612.7</ele>
        <time>2021-04-15T14:27:18Z</time>
      </trkpt>
      <trkpt lat="46.75373" lon="5.78875">
        <ele>612</ele>
        <time>2021-04-15T14:27:26Z</time>
      </trkpt>
      <trkpt lat="46.75365" lon="5.78867">
        <ele>613.4</ele>
        <time>2021-04-15T14:27:42Z</time>
      </trkpt>
      <trkpt lat="46.75357" lon="5.7886">
        <ele>616.6</ele>
        <time>2021-04-15T14:27:46Z</time>
      </trkpt>
      <trkpt lat="46.75353" lon="5.78856">
        <ele>619.6</ele>
        <time>2021-04-15T14:27:51Z</time>
      </trkpt>
      <trkpt lat="46.75349" lon="5.7885">
        <ele>622.1</ele>
        <time>2021-04-15T14:27:57Z</time>
      </trkpt>
      <trkpt lat="46.75345" lon="5.78847">
        <ele>623.7</ele>
        <time>2021-04-15T14:28:03Z</time>
      </trkpt>
      <trkpt lat="46.75341" lon="5.78843">
        <ele>624.9</ele>
        <time>2021-04-15T14:28:09Z</time>
      </trkpt>
      <trkpt lat="46.75337" lon="5.78837">
        <ele>625.5</ele>
        <time>2021-04-15T14:28:17Z</time>
      </trkpt>
      <trkpt lat="46.75334" lon="5.78832">
        <ele>626.1</ele>
        <time>2021-04-15T14:28:21Z</time>
      </trkpt>
      <trkpt lat="46.75331" lon="5.78826">
        <ele>626.8</ele>
        <time>2021-04-15T14:28:27Z</time>
      </trkpt>
      <trkpt lat="46.75327" lon="5.78822">
        <ele>627</ele>
        <time>2021-04-15T14:28:34Z</time>
      </trkpt>
      <trkpt lat="46.75324" lon="5.78818">
        <ele>626.9</ele>
        <time>2021-04-15T14:28:40Z</time>
      </trkpt>
      <trkpt lat="46.75319" lon="5.78815">
        <ele>626.8</ele>
        <time>2021-04-15T14:28:44Z</time>
      </trkpt>
      <trkpt lat="46.75311" lon="5.7881">
        <ele>626.4</ele>
        <time>2021-04-15T14:28:48Z</time>
      </trkpt>
      <trkpt lat="46.75307" lon="5.78805">
        <ele>626</ele>
        <time>2021-04-15T14:28:53Z</time>
      </trkpt>
      <trkpt lat="46.75304" lon="5.788">
        <ele>625.5</ele>
        <time>2021-04-15T14:28:58Z</time>
      </trkpt>
      <trkpt lat="46.75301" lon="5.78795">
        <ele>625</ele>
        <time>2021-04-15T14:29:03Z</time>
      </trkpt>
      <trkpt lat="46.75296" lon="5.78787">
        <ele>624.3</ele>
        <time>2021-04-15T14:29:07Z</time>
      </trkpt>
      <trkpt lat="46.75292" lon="5.78781">
        <ele>623.6</ele>
        <time>2021-04-15T14:29:12Z</time>
      </trkpt>
      <trkpt lat="46.75288" lon="5.78779">
        <ele>622.8</ele>
        <time>2021-04-15T14:29:19Z</time>
      </trkpt>
      <trkpt lat="46.75283" lon="5.78776">
        <ele>622.2</ele>
        <time>2021-04-15T14:29:25Z</time>
      </trkpt>
      <trkpt lat="46.75278" lon="5.78773">
        <ele>621.7</ele>
        <time>2021-04-15T14:29:30Z</time>
      </trkpt>
      <trkpt lat="46.75274" lon="5.78769">
        <ele>621.1</ele>
        <time>2021-04-15T14:29:35Z</time>
      </trkpt>
      <trkpt lat="46.7527" lon="5.78765">
        <ele>620.4</ele>
        <time>2021-04-15T14:29:40Z</time>
      </trkpt>
      <trkpt lat="46.75266" lon="5.78761">
        <ele>619.6</ele>
        <time>2021-04-15T14:29:46Z</time>
      </trkpt>
      <trkpt lat="46.7526" lon="5.78756">
        <ele>620.3</ele>
        <time>2021-04-15T14:29:50Z</time>
      </trkpt>
      <trkpt lat="46.75258" lon="5.78747">
        <ele>620.6</ele>
        <time>2021-04-15T14:30:03Z</time>
      </trkpt>
      <trkpt lat="46.75257" lon="5.78741">
        <ele>620.4</ele>
        <time>2021-04-15T14:30:07Z</time>
      </trkpt>
      <trkpt lat="46.75255" lon="5.78735">
        <ele>619.9</ele>
        <time>2021-04-15T14:30:25Z</time>
      </trkpt>
      <trkpt lat="46.7525" lon="5.78733">
        <ele>619.4</ele>
        <time>2021-04-15T14:30:40Z</time>
      </trkpt>
      <trkpt lat="46.75244" lon="5.78732">
        <ele>619</ele>
        <time>2021-04-15T14:30:44Z</time>
      </trkpt>
      <trkpt lat="46.75239" lon="5.7873">
        <ele>618.8</ele>
        <time>2021-04-15T14:30:49Z</time>
      </trkpt>
      <trkpt lat="46.75236" lon="5.78725">
        <ele>618.5</ele>
        <time>2021-04-15T14:31:00Z</time>
      </trkpt>
      <trkpt lat="46.75232" lon="5.78722">
        <ele>619.8</ele>
        <time>2021-04-15T14:31:05Z</time>
      </trkpt>
      <trkpt lat="46.75227" lon="5.78718">
        <ele>620.9</ele>
        <time>2021-04-15T14:31:09Z</time>
      </trkpt>
      <trkpt lat="46.75222" lon="5.78715">
        <ele>621.7</ele>
        <time>2021-04-15T14:31:18Z</time>
      </trkpt>
      <trkpt lat="46.75218" lon="5.78712">
        <ele>621.3</ele>
        <time>2021-04-15T14:31:22Z</time>
      </trkpt>
      <trkpt lat="46.75213" lon="5.78709">
        <ele>621</ele>
        <time>2021-04-15T14:31:27Z</time>
      </trkpt>
      <trkpt lat="46.75209" lon="5.78706">
        <ele>620.5</ele>
        <time>2021-04-15T14:31:32Z</time>
      </trkpt>
      <trkpt lat="46.75205" lon="5.78702">
        <ele>619.8</ele>
        <time>2021-04-15T14:31:38Z</time>
      </trkpt>
      <trkpt lat="46.75202" lon="5.78696">
        <ele>619.3</ele>
        <time>2021-04-15T14:31:43Z</time>
      </trkpt>
      <trkpt lat="46.75199" lon="5.78692">
        <ele>618.7</ele>
        <time>2021-04-15T14:31:49Z</time>
      </trkpt>
      <trkpt lat="46.75195" lon="5.78687">
        <ele>618.2</ele>
        <time>2021-04-15T14:31:55Z</time>
      </trkpt>
      <trkpt lat="46.75191" lon="5.78682">
        <ele>617.7</ele>
        <time>2021-04-15T14:32:00Z</time>
      </trkpt>
      <trkpt lat="46.75187" lon="5.78678">
        <ele>617.3</ele>
        <time>2021-04-15T14:32:04Z</time>
      </trkpt>
      <trkpt lat="46.75184" lon="5.78672">
        <ele>616.7</ele>
        <time>2021-04-15T14:32:09Z</time>
      </trkpt>
      <trkpt lat="46.75179" lon="5.78668">
        <ele>616</ele>
        <time>2021-04-15T14:32:14Z</time>
      </trkpt>
      <trkpt lat="46.75175" lon="5.78665">
        <ele>615.4</ele>
        <time>2021-04-15T14:32:20Z</time>
      </trkpt>
      <trkpt lat="46.7517" lon="5.78664">
        <ele>614.9</ele>
        <time>2021-04-15T14:32:26Z</time>
      </trkpt>
      <trkpt lat="46.75165" lon="5.78662">
        <ele>614.4</ele>
        <time>2021-04-15T14:32:32Z</time>
      </trkpt>
      <trkpt lat="46.7516" lon="5.78661">
        <ele>613.9</ele>
        <time>2021-04-15T14:32:39Z</time>
      </trkpt>
      <trkpt lat="46.75155" lon="5.78659">
        <ele>613.4</ele>
        <time>2021-04-15T14:32:43Z</time>
      </trkpt>
      <trkpt lat="46.75147" lon="5.7866">
        <ele>615</ele>
        <time>2021-04-15T14:32:47Z</time>
      </trkpt>
      <trkpt lat="46.7514" lon="5.78661">
        <ele>616.8</ele>
        <time>2021-04-15T14:32:51Z</time>
      </trkpt>
      <trkpt lat="46.75136" lon="5.78658">
        <ele>617.8</ele>
        <time>2021-04-15T14:32:56Z</time>
      </trkpt>
      <trkpt lat="46.75132" lon="5.78654">
        <ele>617.8</ele>
        <time>2021-04-15T14:33:01Z</time>
      </trkpt>
      <trkpt lat="46.75127" lon="5.7865">
        <ele>617</ele>
        <time>2021-04-15T14:33:07Z</time>
      </trkpt>
      <trkpt lat="46.75123" lon="5.78647">
        <ele>616.2</ele>
        <time>2021-04-15T14:33:12Z</time>
      </trkpt>
      <trkpt lat="46.75118" lon="5.78646">
        <ele>615.3</ele>
        <time>2021-04-15T14:33:18Z</time>
      </trkpt>
      <trkpt lat="46.75113" lon="5.78644">
        <ele>614.3</ele>
        <time>2021-04-15T14:33:24Z</time>
      </trkpt>
      <trkpt lat="46.75109" lon="5.78642">
        <ele>613.4</ele>
        <time>2021-04-15T14:33:30Z</time>
      </trkpt>
      <trkpt lat="46.75105" lon="5.78639">
        <ele>612.7</ele>
        <time>2021-04-15T14:33:35Z</time>
      </trkpt>
      <trkpt lat="46.751" lon="5.78635">
        <ele>612.1</ele>
        <time>2021-04-15T14:33:40Z</time>
      </trkpt>
      <trkpt lat="46.75097" lon="5.7863">
        <ele>611.5</ele>
        <time>2021-04-15T14:33:46Z</time>
      </trkpt>
      <trkpt lat="46.75091" lon="5.78628">
        <ele>610.9</ele>
        <time>2021-04-15T14:33:52Z</time>
      </trkpt>
      <trkpt lat="46.75087" lon="5.78624">
        <ele>610.4</ele>
        <time>2021-04-15T14:33:57Z</time>
      </trkpt>
      <trkpt lat="46.75083" lon="5.7862">
        <ele>609.7</ele>
        <time>2021-04-15T14:34:03Z</time>
      </trkpt>
      <trkpt lat="46.75079" lon="5.78614">
        <ele>609.3</ele>
        <time>2021-04-15T14:34:07Z</time>
      </trkpt>
      <trkpt lat="46.75076" lon="5.78609">
        <ele>608.8</ele>
        <time>2021-04-15T14:34:11Z</time>
      </trkpt>
      <trkpt lat="46.75073" lon="5.78604">
        <ele>608.2</ele>
        <time>2021-04-15T14:34:15Z</time>
      </trkpt>
      <trkpt lat="46.75064" lon="5.78601">
        <ele>610.5</ele>
        <time>2021-04-15T14:34:19Z</time>
      </trkpt>
      <trkpt lat="46.7506" lon="5.78599">
        <ele>612.1</ele>
        <time>2021-04-15T14:34:26Z</time>
      </trkpt>
      <trkpt lat="46.75055" lon="5.78594">
        <ele>614.9</ele>
        <time>2021-04-15T14:34:37Z</time>
      </trkpt>
      <trkpt lat="46.75054" lon="5.78587">
        <ele>621.2</ele>
        <time>2021-04-15T14:36:15Z</time>
      </trkpt>
      <trkpt lat="46.7505" lon="5.78583">
        <ele>621.4</ele>
        <time>2021-04-15T14:36:28Z</time>
      </trkpt>
      <trkpt lat="46.75047" lon="5.78578">
        <ele>620.8</ele>
        <time>2021-04-15T14:36:38Z</time>
      </trkpt>
      <trkpt lat="46.75042" lon="5.78575">
        <ele>620.3</ele>
        <time>2021-04-15T14:36:45Z</time>
      </trkpt>
      <trkpt lat="46.75038" lon="5.78574">
        <ele>619.7</ele>
        <time>2021-04-15T14:36:50Z</time>
      </trkpt>
      <trkpt lat="46.75033" lon="5.78574">
        <ele>619.2</ele>
        <time>2021-04-15T14:36:55Z</time>
      </trkpt>
      <trkpt lat="46.75028" lon="5.78574">
        <ele>618.7</ele>
        <time>2021-04-15T14:37:00Z</time>
      </trkpt>
      <trkpt lat="46.75022" lon="5.78572">
        <ele>618</ele>
        <time>2021-04-15T14:37:05Z</time>
      </trkpt>
      <trkpt lat="46.75018" lon="5.78569">
        <ele>617.1</ele>
        <time>2021-04-15T14:37:10Z</time>
      </trkpt>
      <trkpt lat="46.75013" lon="5.78568">
        <ele>615.9</ele>
        <time>2021-04-15T14:37:15Z</time>
      </trkpt>
      <trkpt lat="46.75009" lon="5.78566">
        <ele>614.9</ele>
        <time>2021-04-15T14:37:20Z</time>
      </trkpt>
      <trkpt lat="46.75004" lon="5.78563">
        <ele>613.6</ele>
        <time>2021-04-15T14:37:32Z</time>
      </trkpt>
      <trkpt lat="46.74999" lon="5.78562">
        <ele>612.5</ele>
        <time>2021-04-15T14:37:40Z</time>
      </trkpt>
      <trkpt lat="46.74993" lon="5.78558">
        <ele>611.5</ele>
        <time>2021-04-15T14:37:46Z</time>
      </trkpt>
      <trkpt lat="46.74989" lon="5.78555">
        <ele>610.8</ele>
        <time>2021-04-15T14:37:50Z</time>
      </trkpt>
      <trkpt lat="46.74984" lon="5.78551">
        <ele>609.9</ele>
        <time>2021-04-15T14:37:55Z</time>
      </trkpt>
      <trkpt lat="46.7498" lon="5.78547">
        <ele>608.7</ele>
        <time>2021-04-15T14:38:03Z</time>
      </trkpt>
      <trkpt lat="46.74976" lon="5.78544">
        <ele>608</ele>
        <time>2021-04-15T14:38:08Z</time>
      </trkpt>
      <trkpt lat="46.74971" lon="5.7854">
        <ele>607</ele>
        <time>2021-04-15T14:38:14Z</time>
      </trkpt>
      <trkpt lat="46.74967" lon="5.78539">
        <ele>606.1</ele>
        <time>2021-04-15T14:38:23Z</time>
      </trkpt>
      <trkpt lat="46.74959" lon="5.78543">
        <ele>607</ele>
        <time>2021-04-15T14:38:27Z</time>
      </trkpt>
      <trkpt lat="46.74955" lon="5.78547">
        <ele>607.1</ele>
        <time>2021-04-15T14:38:36Z</time>
      </trkpt>
      <trkpt lat="46.74951" lon="5.78552">
        <ele>606.6</ele>
        <time>2021-04-15T14:38:41Z</time>
      </trkpt>
      <trkpt lat="46.74948" lon="5.78557">
        <ele>605.7</ele>
        <time>2021-04-15T14:38:47Z</time>
      </trkpt>
      <trkpt lat="46.74942" lon="5.78566">
        <ele>605.7</ele>
        <time>2021-04-15T14:38:51Z</time>
      </trkpt>
      <trkpt lat="46.74938" lon="5.78572">
        <ele>605.6</ele>
        <time>2021-04-15T14:38:55Z</time>
      </trkpt>
      <trkpt lat="46.74934" lon="5.78574">
        <ele>604.5</ele>
        <time>2021-04-15T14:39:03Z</time>
      </trkpt>
      <trkpt lat="46.7493" lon="5.78579">
        <ele>603.7</ele>
        <time>2021-04-15T14:39:11Z</time>
      </trkpt>
      <trkpt lat="46.74926" lon="5.78583">
        <ele>603.4</ele>
        <time>2021-04-15T14:39:19Z</time>
      </trkpt>
      <trkpt lat="46.74922" lon="5.78585">
        <ele>602.9</ele>
        <time>2021-04-15T14:39:27Z</time>
      </trkpt>
      <trkpt lat="46.74916" lon="5.7859">
        <ele>601.7</ele>
        <time>2021-04-15T14:39:31Z</time>
      </trkpt>
      <trkpt lat="46.74909" lon="5.78592">
        <ele>600.3</ele>
        <time>2021-04-15T14:39:35Z</time>
      </trkpt>
      <trkpt lat="46.74904" lon="5.78589">
        <ele>598.7</ele>
        <time>2021-04-15T14:39:39Z</time>
      </trkpt>
      <trkpt lat="46.74899" lon="5.78586">
        <ele>597.3</ele>
        <time>2021-04-15T14:39:43Z</time>
      </trkpt>
      <trkpt lat="46.74895" lon="5.78583">
        <ele>595.9</ele>
        <time>2021-04-15T14:39:47Z</time>
      </trkpt>
      <trkpt lat="46.74891" lon="5.78579">
        <ele>594.2</ele>
        <time>2021-04-15T14:39:52Z</time>
      </trkpt>
      <trkpt lat="46.74887" lon="5.78575">
        <ele>592.5</ele>
        <time>2021-04-15T14:39:57Z</time>
      </trkpt>
      <trkpt lat="46.74883" lon="5.7857">
        <ele>590.9</ele>
        <time>2021-04-15T14:40:02Z</time>
      </trkpt>
      <trkpt lat="46.74879" lon="5.78565">
        <ele>589.5</ele>
        <time>2021-04-15T14:40:07Z</time>
      </trkpt>
      <trkpt lat="46.74873" lon="5.78566">
        <ele>590.7</ele>
        <time>2021-04-15T14:40:11Z</time>
      </trkpt>
      <trkpt lat="46.74867" lon="5.78566">
        <ele>592</ele>
        <time>2021-04-15T14:40:15Z</time>
      </trkpt>
      <trkpt lat="46.74862" lon="5.78562">
        <ele>592.2</ele>
        <time>2021-04-15T14:40:21Z</time>
      </trkpt>
      <trkpt lat="46.74859" lon="5.78557">
        <ele>591.4</ele>
        <time>2021-04-15T14:40:26Z</time>
      </trkpt>
      <trkpt lat="46.74855" lon="5.78553">
        <ele>590.2</ele>
        <time>2021-04-15T14:40:31Z</time>
      </trkpt>
      <trkpt lat="46.7485" lon="5.7855">
        <ele>588.8</ele>
        <time>2021-04-15T14:40:36Z</time>
      </trkpt>
      <trkpt lat="46.74846" lon="5.78546">
        <ele>586.9</ele>
        <time>2021-04-15T14:40:42Z</time>
      </trkpt>
      <trkpt lat="46.74842" lon="5.78543">
        <ele>585.4</ele>
        <time>2021-04-15T14:40:47Z</time>
      </trkpt>
      <trkpt lat="46.74837" lon="5.78539">
        <ele>584.3</ele>
        <time>2021-04-15T14:40:52Z</time>
      </trkpt>
      <trkpt lat="46.74833" lon="5.78537">
        <ele>583.4</ele>
        <time>2021-04-15T14:40:58Z</time>
      </trkpt>
      <trkpt lat="46.74829" lon="5.78534">
        <ele>582.8</ele>
        <time>2021-04-15T14:41:04Z</time>
      </trkpt>
      <trkpt lat="46.74833" lon="5.7853">
        <ele>584.5</ele>
        <time>2021-04-15T14:42:04Z</time>
      </trkpt>
      <trkpt lat="46.74835" lon="5.78524">
        <ele>585.6</ele>
        <time>2021-04-15T14:42:15Z</time>
      </trkpt>
      <trkpt lat="46.74833" lon="5.78531">
        <ele>595.3</ele>
        <time>2021-04-15T14:42:52Z</time>
      </trkpt>
      <trkpt lat="46.7483" lon="5.78537">
        <ele>598.5</ele>
        <time>2021-04-15T14:42:57Z</time>
      </trkpt>
    </trkseg>
  </trk>
</gpx>